<?xml version="1.0" encoding="UTF-8" standalone="no" ?>
<gpx xmlns="http://www.topografix.com/GPX/1/1" xmlns:xsi="http://www.w3.org/2001/XMLSchema-instance" xsi:schemaLocation="http://www.topografix.com/GPX/1/1 http://www.topografix.com/GPX/1/1/gpx.xsd" version="1.1" creator="VisuGPX - https://www.visugpx.com">
  <metadata>
    <name>VTT Neufvilles 05/05/2013</name>
    <desc><![CDATA[vtt Carrières de  Soignies]]></desc>
  </metadata>
  <trk>
    <name><![CDATA[05-MAI-13 11:12:31]]></name>
    <trkseg>
      <trkpt lat="50.54262" lon="4.01001">
        <ele>22.25</ele>
        <time>2013-05-05T06:24:15Z</time>
      </trkpt>
      <trkpt lat="50.54262" lon="4.01001">
        <ele>26.09</ele>
        <time>2013-05-05T06:24:16Z</time>
      </trkpt>
      <trkpt lat="50.54262" lon="4.01">
        <ele>26.09</ele>
        <time>2013-05-05T06:24:17Z</time>
      </trkpt>
      <trkpt lat="50.54262" lon="4.01">
        <ele>26.57</ele>
        <time>2013-05-05T06:24:18Z</time>
      </trkpt>
      <trkpt lat="50.54261" lon="4.01">
        <ele>31.38</ele>
        <time>2013-05-05T06:24:19Z</time>
      </trkpt>
      <trkpt lat="50.54261" lon="4.01">
        <ele>31.38</ele>
        <time>2013-05-05T06:24:20Z</time>
      </trkpt>
      <trkpt lat="50.5426" lon="4.01">
        <ele>32.82</ele>
        <time>2013-05-05T06:24:21Z</time>
      </trkpt>
      <trkpt lat="50.54259" lon="4.01">
        <ele>35.23</ele>
        <time>2013-05-05T06:24:24Z</time>
      </trkpt>
      <trkpt lat="50.54258" lon="4.01006">
        <ele>38.59</ele>
        <time>2013-05-05T06:24:32Z</time>
      </trkpt>
      <trkpt lat="50.54259" lon="4.01008">
        <ele>43.4</ele>
        <time>2013-05-05T06:24:34Z</time>
      </trkpt>
      <trkpt lat="50.54259" lon="4.01008">
        <ele>43.4</ele>
        <time>2013-05-05T06:24:35Z</time>
      </trkpt>
      <trkpt lat="50.54259" lon="4.01008">
        <ele>47.24</ele>
        <time>2013-05-05T06:24:38Z</time>
      </trkpt>
      <trkpt lat="50.5426" lon="4.01005">
        <ele>50.61</ele>
        <time>2013-05-05T06:24:41Z</time>
      </trkpt>
      <trkpt lat="50.54261" lon="4.01005">
        <ele>52.05</ele>
        <time>2013-05-05T06:24:42Z</time>
      </trkpt>
      <trkpt lat="50.54261" lon="4.01003">
        <ele>53.49</ele>
        <time>2013-05-05T06:24:43Z</time>
      </trkpt>
      <trkpt lat="50.54263" lon="4.00996">
        <ele>53.01</ele>
        <time>2013-05-05T06:24:47Z</time>
      </trkpt>
      <trkpt lat="50.54264" lon="4.00995">
        <ele>53.01</ele>
        <time>2013-05-05T06:24:48Z</time>
      </trkpt>
      <trkpt lat="50.54267" lon="4.00995">
        <ele>53.01</ele>
        <time>2013-05-05T06:24:51Z</time>
      </trkpt>
      <trkpt lat="50.54268" lon="4.00998">
        <ele>55.41</ele>
        <time>2013-05-05T06:25:01Z</time>
      </trkpt>
      <trkpt lat="50.54272" lon="4.00995">
        <ele>57.34</ele>
        <time>2013-05-05T06:25:04Z</time>
      </trkpt>
      <trkpt lat="50.54281" lon="4.00985">
        <ele>56.86</ele>
        <time>2013-05-05T06:25:12Z</time>
      </trkpt>
      <trkpt lat="50.54283" lon="4.00986">
        <ele>57.34</ele>
        <time>2013-05-05T06:25:13Z</time>
      </trkpt>
      <trkpt lat="50.54285" lon="4.00988">
        <ele>57.34</ele>
        <time>2013-05-05T06:25:14Z</time>
      </trkpt>
      <trkpt lat="50.54318" lon="4.01041">
        <ele>57.82</ele>
        <time>2013-05-05T06:25:28Z</time>
      </trkpt>
      <trkpt lat="50.54334" lon="4.01071">
        <ele>57.34</ele>
        <time>2013-05-05T06:25:34Z</time>
      </trkpt>
      <trkpt lat="50.54338" lon="4.01084">
        <ele>57.82</ele>
        <time>2013-05-05T06:25:36Z</time>
      </trkpt>
      <trkpt lat="50.54338" lon="4.01091">
        <ele>57.34</ele>
        <time>2013-05-05T06:25:37Z</time>
      </trkpt>
      <trkpt lat="50.54339" lon="4.01098">
        <ele>57.34</ele>
        <time>2013-05-05T06:25:38Z</time>
      </trkpt>
      <trkpt lat="50.54342" lon="4.01189">
        <ele>61.66</ele>
        <time>2013-05-05T06:25:51Z</time>
      </trkpt>
      <trkpt lat="50.54343" lon="4.01203">
        <ele>63.1</ele>
        <time>2013-05-05T06:25:53Z</time>
      </trkpt>
      <trkpt lat="50.54344" lon="4.01225">
        <ele>65.51</ele>
        <time>2013-05-05T06:25:56Z</time>
      </trkpt>
      <trkpt lat="50.54348" lon="4.01286">
        <ele>65.99</ele>
        <time>2013-05-05T06:26:05Z</time>
      </trkpt>
      <trkpt lat="50.54347" lon="4.01356">
        <ele>65.99</ele>
        <time>2013-05-05T06:26:15Z</time>
      </trkpt>
      <trkpt lat="50.54344" lon="4.01433">
        <ele>66.95</ele>
        <time>2013-05-05T06:26:28Z</time>
      </trkpt>
      <trkpt lat="50.54338" lon="4.01567">
        <ele>67.91</ele>
        <time>2013-05-05T06:26:48Z</time>
      </trkpt>
      <trkpt lat="50.54337" lon="4.01596">
        <ele>72.24</ele>
        <time>2013-05-05T06:26:52Z</time>
      </trkpt>
      <trkpt lat="50.54336" lon="4.01624">
        <ele>75.12</ele>
        <time>2013-05-05T06:26:56Z</time>
      </trkpt>
      <trkpt lat="50.54336" lon="4.01629">
        <ele>75.12</ele>
        <time>2013-05-05T06:26:57Z</time>
      </trkpt>
      <trkpt lat="50.54335" lon="4.01659">
        <ele>75.12</ele>
        <time>2013-05-05T06:27:01Z</time>
      </trkpt>
      <trkpt lat="50.54339" lon="4.01686">
        <ele>75.12</ele>
        <time>2013-05-05T06:27:05Z</time>
      </trkpt>
      <trkpt lat="50.54363" lon="4.01811">
        <ele>73.68</ele>
        <time>2013-05-05T06:27:23Z</time>
      </trkpt>
      <trkpt lat="50.54374" lon="4.01852">
        <ele>73.68</ele>
        <time>2013-05-05T06:27:31Z</time>
      </trkpt>
      <trkpt lat="50.54377" lon="4.01853">
        <ele>73.2</ele>
        <time>2013-05-05T06:27:32Z</time>
      </trkpt>
      <trkpt lat="50.5438" lon="4.01852">
        <ele>73.68</ele>
        <time>2013-05-05T06:27:33Z</time>
      </trkpt>
      <trkpt lat="50.544" lon="4.01843">
        <ele>73.2</ele>
        <time>2013-05-05T06:27:38Z</time>
      </trkpt>
      <trkpt lat="50.54405" lon="4.01842">
        <ele>73.2</ele>
        <time>2013-05-05T06:27:39Z</time>
      </trkpt>
      <trkpt lat="50.54409" lon="4.01842">
        <ele>72.72</ele>
        <time>2013-05-05T06:27:40Z</time>
      </trkpt>
      <trkpt lat="50.54414" lon="4.01843">
        <ele>73.2</ele>
        <time>2013-05-05T06:27:41Z</time>
      </trkpt>
      <trkpt lat="50.54418" lon="4.01846">
        <ele>72.72</ele>
        <time>2013-05-05T06:27:42Z</time>
      </trkpt>
      <trkpt lat="50.54422" lon="4.01851">
        <ele>73.68</ele>
        <time>2013-05-05T06:27:43Z</time>
      </trkpt>
      <trkpt lat="50.54426" lon="4.01856">
        <ele>73.2</ele>
        <time>2013-05-05T06:27:44Z</time>
      </trkpt>
      <trkpt lat="50.54447" lon="4.01886">
        <ele>72.72</ele>
        <time>2013-05-05T06:27:50Z</time>
      </trkpt>
      <trkpt lat="50.54451" lon="4.01889">
        <ele>73.2</ele>
        <time>2013-05-05T06:27:51Z</time>
      </trkpt>
      <trkpt lat="50.54455" lon="4.01891">
        <ele>73.2</ele>
        <time>2013-05-05T06:27:52Z</time>
      </trkpt>
      <trkpt lat="50.54473" lon="4.01895">
        <ele>72.72</ele>
        <time>2013-05-05T06:27:56Z</time>
      </trkpt>
      <trkpt lat="50.54478" lon="4.01898">
        <ele>73.2</ele>
        <time>2013-05-05T06:27:57Z</time>
      </trkpt>
      <trkpt lat="50.54482" lon="4.01902">
        <ele>72.72</ele>
        <time>2013-05-05T06:27:58Z</time>
      </trkpt>
      <trkpt lat="50.54485" lon="4.01908">
        <ele>72.72</ele>
        <time>2013-05-05T06:27:59Z</time>
      </trkpt>
      <trkpt lat="50.54487" lon="4.01915">
        <ele>73.2</ele>
        <time>2013-05-05T06:28:00Z</time>
      </trkpt>
      <trkpt lat="50.54489" lon="4.01922">
        <ele>73.68</ele>
        <time>2013-05-05T06:28:01Z</time>
      </trkpt>
      <trkpt lat="50.54492" lon="4.01928">
        <ele>74.64</ele>
        <time>2013-05-05T06:28:02Z</time>
      </trkpt>
      <trkpt lat="50.54499" lon="4.01954">
        <ele>78.48</ele>
        <time>2013-05-05T06:28:06Z</time>
      </trkpt>
      <trkpt lat="50.54507" lon="4.0198">
        <ele>81.37</ele>
        <time>2013-05-05T06:28:10Z</time>
      </trkpt>
      <trkpt lat="50.54517" lon="4.02014">
        <ele>84.25</ele>
        <time>2013-05-05T06:28:15Z</time>
      </trkpt>
      <trkpt lat="50.54521" lon="4.02027">
        <ele>85.21</ele>
        <time>2013-05-05T06:28:17Z</time>
      </trkpt>
      <trkpt lat="50.5453" lon="4.02055">
        <ele>88.1</ele>
        <time>2013-05-05T06:28:21Z</time>
      </trkpt>
      <trkpt lat="50.54543" lon="4.02095">
        <ele>90.5</ele>
        <time>2013-05-05T06:28:27Z</time>
      </trkpt>
      <trkpt lat="50.54552" lon="4.02122">
        <ele>91.94</ele>
        <time>2013-05-05T06:28:31Z</time>
      </trkpt>
      <trkpt lat="50.54568" lon="4.02163">
        <ele>93.39</ele>
        <time>2013-05-05T06:28:38Z</time>
      </trkpt>
      <trkpt lat="50.54571" lon="4.02167">
        <ele>93.87</ele>
        <time>2013-05-05T06:28:39Z</time>
      </trkpt>
      <trkpt lat="50.54575" lon="4.02169">
        <ele>93.87</ele>
        <time>2013-05-05T06:28:40Z</time>
      </trkpt>
      <trkpt lat="50.54579" lon="4.0217">
        <ele>94.35</ele>
        <time>2013-05-05T06:28:41Z</time>
      </trkpt>
      <trkpt lat="50.54583" lon="4.02169">
        <ele>93.87</ele>
        <time>2013-05-05T06:28:42Z</time>
      </trkpt>
      <trkpt lat="50.54587" lon="4.02168">
        <ele>94.35</ele>
        <time>2013-05-05T06:28:43Z</time>
      </trkpt>
      <trkpt lat="50.54657" lon="4.02153">
        <ele>95.79</ele>
        <time>2013-05-05T06:28:58Z</time>
      </trkpt>
      <trkpt lat="50.5469" lon="4.0214">
        <ele>96.27</ele>
        <time>2013-05-05T06:29:05Z</time>
      </trkpt>
      <trkpt lat="50.54758" lon="4.02146">
        <ele>95.31</ele>
        <time>2013-05-05T06:29:19Z</time>
      </trkpt>
      <trkpt lat="50.54767" lon="4.02149">
        <ele>95.79</ele>
        <time>2013-05-05T06:29:21Z</time>
      </trkpt>
      <trkpt lat="50.5478" lon="4.02156">
        <ele>95.79</ele>
        <time>2013-05-05T06:29:24Z</time>
      </trkpt>
      <trkpt lat="50.54802" lon="4.02174">
        <ele>95.31</ele>
        <time>2013-05-05T06:29:29Z</time>
      </trkpt>
      <trkpt lat="50.54838" lon="4.02215">
        <ele>94.83</ele>
        <time>2013-05-05T06:29:38Z</time>
      </trkpt>
      <trkpt lat="50.54891" lon="4.02277">
        <ele>94.83</ele>
        <time>2013-05-05T06:29:52Z</time>
      </trkpt>
      <trkpt lat="50.54905" lon="4.02295">
        <ele>94.35</ele>
        <time>2013-05-05T06:29:56Z</time>
      </trkpt>
      <trkpt lat="50.54908" lon="4.023">
        <ele>94.35</ele>
        <time>2013-05-05T06:29:57Z</time>
      </trkpt>
      <trkpt lat="50.54967" lon="4.02387">
        <ele>93.87</ele>
        <time>2013-05-05T06:30:14Z</time>
      </trkpt>
      <trkpt lat="50.54983" lon="4.024">
        <ele>93.87</ele>
        <time>2013-05-05T06:30:18Z</time>
      </trkpt>
      <trkpt lat="50.54999" lon="4.02411">
        <ele>93.87</ele>
        <time>2013-05-05T06:30:22Z</time>
      </trkpt>
      <trkpt lat="50.55039" lon="4.02449">
        <ele>94.35</ele>
        <time>2013-05-05T06:30:34Z</time>
      </trkpt>
      <trkpt lat="50.55094" lon="4.02513">
        <ele>94.35</ele>
        <time>2013-05-05T06:30:51Z</time>
      </trkpt>
      <trkpt lat="50.55128" lon="4.02561">
        <ele>94.83</ele>
        <time>2013-05-05T06:31:03Z</time>
      </trkpt>
      <trkpt lat="50.55166" lon="4.0262">
        <ele>93.87</ele>
        <time>2013-05-05T06:31:16Z</time>
      </trkpt>
      <trkpt lat="50.5517" lon="4.02626">
        <ele>93.39</ele>
        <time>2013-05-05T06:31:17Z</time>
      </trkpt>
      <trkpt lat="50.55201" lon="4.02708">
        <ele>93.39</ele>
        <time>2013-05-05T06:31:32Z</time>
      </trkpt>
      <trkpt lat="50.55199" lon="4.028">
        <ele>93.39</ele>
        <time>2013-05-05T06:31:47Z</time>
      </trkpt>
      <trkpt lat="50.55188" lon="4.02859">
        <ele>93.87</ele>
        <time>2013-05-05T06:31:57Z</time>
      </trkpt>
      <trkpt lat="50.55174" lon="4.02962">
        <ele>95.31</ele>
        <time>2013-05-05T06:32:14Z</time>
      </trkpt>
      <trkpt lat="50.55179" lon="4.03072">
        <ele>96.75</ele>
        <time>2013-05-05T06:32:33Z</time>
      </trkpt>
      <trkpt lat="50.55208" lon="4.03168">
        <ele>99.15</ele>
        <time>2013-05-05T06:32:51Z</time>
      </trkpt>
      <trkpt lat="50.55261" lon="4.03218">
        <ele>100.11</ele>
        <time>2013-05-05T06:33:08Z</time>
      </trkpt>
      <trkpt lat="50.55289" lon="4.03232">
        <ele>100.11</ele>
        <time>2013-05-05T06:33:15Z</time>
      </trkpt>
      <trkpt lat="50.55348" lon="4.03227">
        <ele>100.11</ele>
        <time>2013-05-05T06:33:29Z</time>
      </trkpt>
      <trkpt lat="50.55361" lon="4.03225">
        <ele>99.63</ele>
        <time>2013-05-05T06:33:32Z</time>
      </trkpt>
      <trkpt lat="50.55382" lon="4.03236">
        <ele>99.15</ele>
        <time>2013-05-05T06:33:37Z</time>
      </trkpt>
      <trkpt lat="50.55444" lon="4.03326">
        <ele>97.71</ele>
        <time>2013-05-05T06:33:55Z</time>
      </trkpt>
      <trkpt lat="50.5548" lon="4.03375">
        <ele>96.75</ele>
        <time>2013-05-05T06:34:06Z</time>
      </trkpt>
      <trkpt lat="50.55488" lon="4.03386">
        <ele>96.27</ele>
        <time>2013-05-05T06:34:09Z</time>
      </trkpt>
      <trkpt lat="50.55491" lon="4.03386">
        <ele>96.75</ele>
        <time>2013-05-05T06:34:10Z</time>
      </trkpt>
      <trkpt lat="50.55494" lon="4.03384">
        <ele>96.75</ele>
        <time>2013-05-05T06:34:11Z</time>
      </trkpt>
      <trkpt lat="50.55497" lon="4.0338">
        <ele>96.75</ele>
        <time>2013-05-05T06:34:12Z</time>
      </trkpt>
      <trkpt lat="50.55499" lon="4.03376">
        <ele>96.75</ele>
        <time>2013-05-05T06:34:13Z</time>
      </trkpt>
      <trkpt lat="50.55501" lon="4.03373">
        <ele>96.75</ele>
        <time>2013-05-05T06:34:14Z</time>
      </trkpt>
      <trkpt lat="50.55542" lon="4.03316">
        <ele>95.31</ele>
        <time>2013-05-05T06:34:27Z</time>
      </trkpt>
      <trkpt lat="50.55546" lon="4.03313">
        <ele>95.31</ele>
        <time>2013-05-05T06:34:28Z</time>
      </trkpt>
      <trkpt lat="50.55551" lon="4.03312">
        <ele>95.31</ele>
        <time>2013-05-05T06:34:29Z</time>
      </trkpt>
      <trkpt lat="50.55556" lon="4.03314">
        <ele>95.31</ele>
        <time>2013-05-05T06:34:30Z</time>
      </trkpt>
      <trkpt lat="50.55561" lon="4.03318">
        <ele>95.31</ele>
        <time>2013-05-05T06:34:31Z</time>
      </trkpt>
      <trkpt lat="50.55565" lon="4.03324">
        <ele>95.31</ele>
        <time>2013-05-05T06:34:32Z</time>
      </trkpt>
      <trkpt lat="50.55569" lon="4.0333">
        <ele>94.83</ele>
        <time>2013-05-05T06:34:33Z</time>
      </trkpt>
      <trkpt lat="50.55578" lon="4.03344">
        <ele>94.35</ele>
        <time>2013-05-05T06:34:35Z</time>
      </trkpt>
      <trkpt lat="50.55584" lon="4.03348">
        <ele>94.35</ele>
        <time>2013-05-05T06:34:36Z</time>
      </trkpt>
      <trkpt lat="50.5559" lon="4.03349">
        <ele>93.87</ele>
        <time>2013-05-05T06:34:37Z</time>
      </trkpt>
      <trkpt lat="50.55596" lon="4.03346">
        <ele>93.39</ele>
        <time>2013-05-05T06:34:38Z</time>
      </trkpt>
      <trkpt lat="50.55601" lon="4.03342">
        <ele>93.39</ele>
        <time>2013-05-05T06:34:39Z</time>
      </trkpt>
      <trkpt lat="50.55607" lon="4.03337">
        <ele>93.39</ele>
        <time>2013-05-05T06:34:40Z</time>
      </trkpt>
      <trkpt lat="50.55617" lon="4.03328">
        <ele>93.87</ele>
        <time>2013-05-05T06:34:42Z</time>
      </trkpt>
      <trkpt lat="50.55623" lon="4.03326">
        <ele>93.39</ele>
        <time>2013-05-05T06:34:43Z</time>
      </trkpt>
      <trkpt lat="50.55633" lon="4.03322">
        <ele>93.39</ele>
        <time>2013-05-05T06:34:45Z</time>
      </trkpt>
      <trkpt lat="50.55639" lon="4.03321">
        <ele>93.39</ele>
        <time>2013-05-05T06:34:46Z</time>
      </trkpt>
      <trkpt lat="50.55659" lon="4.03313">
        <ele>92.9</ele>
        <time>2013-05-05T06:34:50Z</time>
      </trkpt>
      <trkpt lat="50.55664" lon="4.03312">
        <ele>92.9</ele>
        <time>2013-05-05T06:34:51Z</time>
      </trkpt>
      <trkpt lat="50.55751" lon="4.03281">
        <ele>92.42</ele>
        <time>2013-05-05T06:35:08Z</time>
      </trkpt>
      <trkpt lat="50.55767" lon="4.03278">
        <ele>92.42</ele>
        <time>2013-05-05T06:35:11Z</time>
      </trkpt>
      <trkpt lat="50.55771" lon="4.03281">
        <ele>92.42</ele>
        <time>2013-05-05T06:35:12Z</time>
      </trkpt>
      <trkpt lat="50.55792" lon="4.03314">
        <ele>92.42</ele>
        <time>2013-05-05T06:35:18Z</time>
      </trkpt>
      <trkpt lat="50.55798" lon="4.03353">
        <ele>92.42</ele>
        <time>2013-05-05T06:35:24Z</time>
      </trkpt>
      <trkpt lat="50.55797" lon="4.03388">
        <ele>92.9</ele>
        <time>2013-05-05T06:35:30Z</time>
      </trkpt>
      <trkpt lat="50.55799" lon="4.0339">
        <ele>93.39</ele>
        <time>2013-05-05T06:35:31Z</time>
      </trkpt>
      <trkpt lat="50.55802" lon="4.03391">
        <ele>93.87</ele>
        <time>2013-05-05T06:35:32Z</time>
      </trkpt>
      <trkpt lat="50.55856" lon="4.03413">
        <ele>94.35</ele>
        <time>2013-05-05T06:35:46Z</time>
      </trkpt>
      <trkpt lat="50.55913" lon="4.03435">
        <ele>96.27</ele>
        <time>2013-05-05T06:36:02Z</time>
      </trkpt>
      <trkpt lat="50.55957" lon="4.0341">
        <ele>96.75</ele>
        <time>2013-05-05T06:36:16Z</time>
      </trkpt>
      <trkpt lat="50.55999" lon="4.03377">
        <ele>98.19</ele>
        <time>2013-05-05T06:36:31Z</time>
      </trkpt>
      <trkpt lat="50.56051" lon="4.0334">
        <ele>99.15</ele>
        <time>2013-05-05T06:36:48Z</time>
      </trkpt>
      <trkpt lat="50.56095" lon="4.03321">
        <ele>99.63</ele>
        <time>2013-05-05T06:37:02Z</time>
      </trkpt>
      <trkpt lat="50.56146" lon="4.03285">
        <ele>100.11</ele>
        <time>2013-05-05T06:37:18Z</time>
      </trkpt>
      <trkpt lat="50.56195" lon="4.03253">
        <ele>102.04</ele>
        <time>2013-05-05T06:37:34Z</time>
      </trkpt>
      <trkpt lat="50.56238" lon="4.03242">
        <ele>103.48</ele>
        <time>2013-05-05T06:37:50Z</time>
      </trkpt>
      <trkpt lat="50.56275" lon="4.03249">
        <ele>103.48</ele>
        <time>2013-05-05T06:38:02Z</time>
      </trkpt>
      <trkpt lat="50.56296" lon="4.03252">
        <ele>102.52</ele>
        <time>2013-05-05T06:38:08Z</time>
      </trkpt>
      <trkpt lat="50.563" lon="4.03253">
        <ele>102.04</ele>
        <time>2013-05-05T06:38:09Z</time>
      </trkpt>
      <trkpt lat="50.56305" lon="4.03255">
        <ele>102.04</ele>
        <time>2013-05-05T06:38:10Z</time>
      </trkpt>
      <trkpt lat="50.56323" lon="4.03262">
        <ele>100.6</ele>
        <time>2013-05-05T06:38:14Z</time>
      </trkpt>
      <trkpt lat="50.56328" lon="4.03264">
        <ele>100.11</ele>
        <time>2013-05-05T06:38:15Z</time>
      </trkpt>
      <trkpt lat="50.56332" lon="4.03266">
        <ele>99.63</ele>
        <time>2013-05-05T06:38:16Z</time>
      </trkpt>
      <trkpt lat="50.56347" lon="4.03273">
        <ele>98.67</ele>
        <time>2013-05-05T06:38:19Z</time>
      </trkpt>
      <trkpt lat="50.56369" lon="4.03287">
        <ele>95.31</ele>
        <time>2013-05-05T06:38:24Z</time>
      </trkpt>
      <trkpt lat="50.5638" lon="4.03296">
        <ele>93.87</ele>
        <time>2013-05-05T06:38:27Z</time>
      </trkpt>
      <trkpt lat="50.56392" lon="4.03335">
        <ele>93.87</ele>
        <time>2013-05-05T06:38:36Z</time>
      </trkpt>
      <trkpt lat="50.5639" lon="4.03356">
        <ele>93.39</ele>
        <time>2013-05-05T06:38:39Z</time>
      </trkpt>
      <trkpt lat="50.56385" lon="4.0341">
        <ele>92.42</ele>
        <time>2013-05-05T06:38:47Z</time>
      </trkpt>
      <trkpt lat="50.5638" lon="4.03466">
        <ele>92.9</ele>
        <time>2013-05-05T06:38:56Z</time>
      </trkpt>
      <trkpt lat="50.56378" lon="4.03472">
        <ele>92.9</ele>
        <time>2013-05-05T06:38:57Z</time>
      </trkpt>
      <trkpt lat="50.56377" lon="4.03478">
        <ele>92.9</ele>
        <time>2013-05-05T06:38:58Z</time>
      </trkpt>
      <trkpt lat="50.56373" lon="4.03553">
        <ele>94.35</ele>
        <time>2013-05-05T06:39:11Z</time>
      </trkpt>
      <trkpt lat="50.56391" lon="4.03587">
        <ele>94.35</ele>
        <time>2013-05-05T06:39:18Z</time>
      </trkpt>
      <trkpt lat="50.56412" lon="4.03645">
        <ele>95.79</ele>
        <time>2013-05-05T06:39:29Z</time>
      </trkpt>
      <trkpt lat="50.56419" lon="4.03685">
        <ele>97.71</ele>
        <time>2013-05-05T06:39:38Z</time>
      </trkpt>
      <trkpt lat="50.56405" lon="4.0373">
        <ele>100.11</ele>
        <time>2013-05-05T06:39:52Z</time>
      </trkpt>
      <trkpt lat="50.56385" lon="4.03809">
        <ele>101.08</ele>
        <time>2013-05-05T06:40:09Z</time>
      </trkpt>
      <trkpt lat="50.56373" lon="4.03873">
        <ele>101.56</ele>
        <time>2013-05-05T06:40:22Z</time>
      </trkpt>
      <trkpt lat="50.56361" lon="4.03948">
        <ele>101.56</ele>
        <time>2013-05-05T06:40:37Z</time>
      </trkpt>
      <trkpt lat="50.56355" lon="4.03952">
        <ele>102.04</ele>
        <time>2013-05-05T06:40:39Z</time>
      </trkpt>
      <trkpt lat="50.56353" lon="4.03952">
        <ele>102.04</ele>
        <time>2013-05-05T06:40:40Z</time>
      </trkpt>
      <trkpt lat="50.56319" lon="4.03971">
        <ele>104.44</ele>
        <time>2013-05-05T06:40:53Z</time>
      </trkpt>
      <trkpt lat="50.56306" lon="4.04023">
        <ele>107.32</ele>
        <time>2013-05-05T06:41:05Z</time>
      </trkpt>
      <trkpt lat="50.56298" lon="4.0407">
        <ele>110.69</ele>
        <time>2013-05-05T06:41:17Z</time>
      </trkpt>
      <trkpt lat="50.56289" lon="4.04104">
        <ele>114.05</ele>
        <time>2013-05-05T06:41:26Z</time>
      </trkpt>
      <trkpt lat="50.5628" lon="4.04122">
        <ele>115.98</ele>
        <time>2013-05-05T06:41:32Z</time>
      </trkpt>
      <trkpt lat="50.5627" lon="4.04149">
        <ele>118.86</ele>
        <time>2013-05-05T06:41:40Z</time>
      </trkpt>
      <trkpt lat="50.56244" lon="4.04176">
        <ele>122.22</ele>
        <time>2013-05-05T06:41:53Z</time>
      </trkpt>
      <trkpt lat="50.5622" lon="4.04159">
        <ele>122.71</ele>
        <time>2013-05-05T06:42:06Z</time>
      </trkpt>
      <trkpt lat="50.56219" lon="4.04157">
        <ele>123.19</ele>
        <time>2013-05-05T06:42:07Z</time>
      </trkpt>
      <trkpt lat="50.56215" lon="4.04148">
        <ele>123.19</ele>
        <time>2013-05-05T06:42:11Z</time>
      </trkpt>
      <trkpt lat="50.56185" lon="4.04105">
        <ele>123.19</ele>
        <time>2013-05-05T06:42:28Z</time>
      </trkpt>
      <trkpt lat="50.56174" lon="4.04074">
        <ele>122.71</ele>
        <time>2013-05-05T06:42:41Z</time>
      </trkpt>
      <trkpt lat="50.56157" lon="4.04026">
        <ele>124.63</ele>
        <time>2013-05-05T06:42:56Z</time>
      </trkpt>
      <trkpt lat="50.56141" lon="4.03985">
        <ele>127.51</ele>
        <time>2013-05-05T06:43:12Z</time>
      </trkpt>
      <trkpt lat="50.5614" lon="4.03962">
        <ele>129.92</ele>
        <time>2013-05-05T06:43:20Z</time>
      </trkpt>
      <trkpt lat="50.56142" lon="4.03945">
        <ele>131.84</ele>
        <time>2013-05-05T06:43:26Z</time>
      </trkpt>
      <trkpt lat="50.56149" lon="4.03923">
        <ele>134.72</ele>
        <time>2013-05-05T06:43:34Z</time>
      </trkpt>
      <trkpt lat="50.56152" lon="4.03883">
        <ele>136.16</ele>
        <time>2013-05-05T06:43:49Z</time>
      </trkpt>
      <trkpt lat="50.56157" lon="4.03837">
        <ele>136.16</ele>
        <time>2013-05-05T06:44:05Z</time>
      </trkpt>
      <trkpt lat="50.56179" lon="4.03798">
        <ele>137.61</ele>
        <time>2013-05-05T06:44:20Z</time>
      </trkpt>
      <trkpt lat="50.56201" lon="4.03753">
        <ele>138.57</ele>
        <time>2013-05-05T06:44:38Z</time>
      </trkpt>
      <trkpt lat="50.56214" lon="4.03696">
        <ele>138.09</ele>
        <time>2013-05-05T06:44:51Z</time>
      </trkpt>
      <trkpt lat="50.56221" lon="4.03645">
        <ele>139.53</ele>
        <time>2013-05-05T06:45:03Z</time>
      </trkpt>
      <trkpt lat="50.5622" lon="4.03589">
        <ele>140.49</ele>
        <time>2013-05-05T06:45:17Z</time>
      </trkpt>
      <trkpt lat="50.56223" lon="4.0354">
        <ele>140.01</ele>
        <time>2013-05-05T06:45:29Z</time>
      </trkpt>
      <trkpt lat="50.5624" lon="4.03484">
        <ele>139.53</ele>
        <time>2013-05-05T06:45:45Z</time>
      </trkpt>
      <trkpt lat="50.56256" lon="4.03489">
        <ele>139.05</ele>
        <time>2013-05-05T06:45:57Z</time>
      </trkpt>
      <trkpt lat="50.56253" lon="4.03491">
        <ele>139.53</ele>
        <time>2013-05-05T06:46:20Z</time>
      </trkpt>
      <trkpt lat="50.5625" lon="4.03489">
        <ele>139.53</ele>
        <time>2013-05-05T06:46:31Z</time>
      </trkpt>
      <trkpt lat="50.56251" lon="4.03487">
        <ele>139.05</ele>
        <time>2013-05-05T06:46:53Z</time>
      </trkpt>
      <trkpt lat="50.56251" lon="4.03484">
        <ele>138.57</ele>
        <time>2013-05-05T06:47:34Z</time>
      </trkpt>
      <trkpt lat="50.56248" lon="4.03485">
        <ele>139.05</ele>
        <time>2013-05-05T06:47:45Z</time>
      </trkpt>
      <trkpt lat="50.56222" lon="4.03478">
        <ele>140.01</ele>
        <time>2013-05-05T06:47:59Z</time>
      </trkpt>
      <trkpt lat="50.56209" lon="4.03509">
        <ele>138.57</ele>
        <time>2013-05-05T06:48:07Z</time>
      </trkpt>
      <trkpt lat="50.56197" lon="4.03554">
        <ele>134.72</ele>
        <time>2013-05-05T06:48:13Z</time>
      </trkpt>
      <trkpt lat="50.56192" lon="4.03588">
        <ele>131.84</ele>
        <time>2013-05-05T06:48:17Z</time>
      </trkpt>
      <trkpt lat="50.56183" lon="4.03609">
        <ele>130.88</ele>
        <time>2013-05-05T06:48:21Z</time>
      </trkpt>
      <trkpt lat="50.56166" lon="4.03629">
        <ele>127.51</ele>
        <time>2013-05-05T06:48:25Z</time>
      </trkpt>
      <trkpt lat="50.56148" lon="4.03647">
        <ele>121.74</ele>
        <time>2013-05-05T06:48:29Z</time>
      </trkpt>
      <trkpt lat="50.56134" lon="4.03657">
        <ele>117.42</ele>
        <time>2013-05-05T06:48:32Z</time>
      </trkpt>
      <trkpt lat="50.56119" lon="4.03665">
        <ele>113.57</ele>
        <time>2013-05-05T06:48:35Z</time>
      </trkpt>
      <trkpt lat="50.56107" lon="4.0367">
        <ele>112.13</ele>
        <time>2013-05-05T06:48:37Z</time>
      </trkpt>
      <trkpt lat="50.56066" lon="4.03671">
        <ele>111.17</ele>
        <time>2013-05-05T06:48:46Z</time>
      </trkpt>
      <trkpt lat="50.56061" lon="4.03671">
        <ele>110.69</ele>
        <time>2013-05-05T06:48:47Z</time>
      </trkpt>
      <trkpt lat="50.56041" lon="4.03706">
        <ele>109.25</ele>
        <time>2013-05-05T06:48:55Z</time>
      </trkpt>
      <trkpt lat="50.56033" lon="4.03699">
        <ele>109.25</ele>
        <time>2013-05-05T06:49:01Z</time>
      </trkpt>
      <trkpt lat="50.56025" lon="4.03659">
        <ele>103.48</ele>
        <time>2013-05-05T06:49:05Z</time>
      </trkpt>
      <trkpt lat="50.56022" lon="4.03643">
        <ele>101.56</ele>
        <time>2013-05-05T06:49:07Z</time>
      </trkpt>
      <trkpt lat="50.56017" lon="4.03629">
        <ele>100.11</ele>
        <time>2013-05-05T06:49:09Z</time>
      </trkpt>
      <trkpt lat="50.55997" lon="4.03622">
        <ele>100.11</ele>
        <time>2013-05-05T06:49:14Z</time>
      </trkpt>
      <trkpt lat="50.55965" lon="4.03625">
        <ele>100.11</ele>
        <time>2013-05-05T06:49:22Z</time>
      </trkpt>
      <trkpt lat="50.55893" lon="4.03622">
        <ele>99.15</ele>
        <time>2013-05-05T06:49:40Z</time>
      </trkpt>
      <trkpt lat="50.55842" lon="4.03616">
        <ele>99.63</ele>
        <time>2013-05-05T06:49:54Z</time>
      </trkpt>
      <trkpt lat="50.55806" lon="4.03631">
        <ele>99.63</ele>
        <time>2013-05-05T06:50:06Z</time>
      </trkpt>
      <trkpt lat="50.55812" lon="4.03671">
        <ele>100.6</ele>
        <time>2013-05-05T06:50:16Z</time>
      </trkpt>
      <trkpt lat="50.55855" lon="4.03749">
        <ele>101.56</ele>
        <time>2013-05-05T06:50:35Z</time>
      </trkpt>
      <trkpt lat="50.559" lon="4.03828">
        <ele>102.52</ele>
        <time>2013-05-05T06:50:53Z</time>
      </trkpt>
      <trkpt lat="50.55953" lon="4.03917">
        <ele>103.48</ele>
        <time>2013-05-05T06:51:13Z</time>
      </trkpt>
      <trkpt lat="50.56" lon="4.03996">
        <ele>103.48</ele>
        <time>2013-05-05T06:51:30Z</time>
      </trkpt>
      <trkpt lat="50.56021" lon="4.04022">
        <ele>103.96</ele>
        <time>2013-05-05T06:51:37Z</time>
      </trkpt>
      <trkpt lat="50.56043" lon="4.04038">
        <ele>103.96</ele>
        <time>2013-05-05T06:51:43Z</time>
      </trkpt>
      <trkpt lat="50.56052" lon="4.04052">
        <ele>103.48</ele>
        <time>2013-05-05T06:51:46Z</time>
      </trkpt>
      <trkpt lat="50.56054" lon="4.04058">
        <ele>103.96</ele>
        <time>2013-05-05T06:51:47Z</time>
      </trkpt>
      <trkpt lat="50.56055" lon="4.04063">
        <ele>103.96</ele>
        <time>2013-05-05T06:51:48Z</time>
      </trkpt>
      <trkpt lat="50.56055" lon="4.04068">
        <ele>104.44</ele>
        <time>2013-05-05T06:51:49Z</time>
      </trkpt>
      <trkpt lat="50.56056" lon="4.04073">
        <ele>103.96</ele>
        <time>2013-05-05T06:51:50Z</time>
      </trkpt>
      <trkpt lat="50.56065" lon="4.04119">
        <ele>104.44</ele>
        <time>2013-05-05T06:51:58Z</time>
      </trkpt>
      <trkpt lat="50.56114" lon="4.04208">
        <ele>103</ele>
        <time>2013-05-05T06:52:15Z</time>
      </trkpt>
      <trkpt lat="50.56171" lon="4.04318">
        <ele>101.56</ele>
        <time>2013-05-05T06:52:35Z</time>
      </trkpt>
      <trkpt lat="50.56223" lon="4.04418">
        <ele>99.63</ele>
        <time>2013-05-05T06:52:49Z</time>
      </trkpt>
      <trkpt lat="50.56286" lon="4.04534">
        <ele>98.19</ele>
        <time>2013-05-05T06:53:06Z</time>
      </trkpt>
      <trkpt lat="50.56343" lon="4.04648">
        <ele>97.71</ele>
        <time>2013-05-05T06:53:24Z</time>
      </trkpt>
      <trkpt lat="50.56405" lon="4.04748">
        <ele>97.23</ele>
        <time>2013-05-05T06:53:41Z</time>
      </trkpt>
      <trkpt lat="50.56471" lon="4.04879">
        <ele>97.23</ele>
        <time>2013-05-05T06:54:01Z</time>
      </trkpt>
      <trkpt lat="50.56538" lon="4.04995">
        <ele>96.27</ele>
        <time>2013-05-05T06:54:20Z</time>
      </trkpt>
      <trkpt lat="50.56542" lon="4.04998">
        <ele>96.27</ele>
        <time>2013-05-05T06:54:21Z</time>
      </trkpt>
      <trkpt lat="50.56545" lon="4.04998">
        <ele>96.75</ele>
        <time>2013-05-05T06:54:22Z</time>
      </trkpt>
      <trkpt lat="50.56554" lon="4.04989">
        <ele>96.27</ele>
        <time>2013-05-05T06:54:25Z</time>
      </trkpt>
      <trkpt lat="50.56559" lon="4.0498">
        <ele>96.75</ele>
        <time>2013-05-05T06:54:27Z</time>
      </trkpt>
      <trkpt lat="50.5657" lon="4.0495">
        <ele>96.75</ele>
        <time>2013-05-05T06:54:32Z</time>
      </trkpt>
      <trkpt lat="50.56573" lon="4.04937">
        <ele>96.75</ele>
        <time>2013-05-05T06:54:34Z</time>
      </trkpt>
      <trkpt lat="50.56585" lon="4.04916">
        <ele>96.75</ele>
        <time>2013-05-05T06:54:38Z</time>
      </trkpt>
      <trkpt lat="50.56597" lon="4.04895">
        <ele>96.75</ele>
        <time>2013-05-05T06:54:42Z</time>
      </trkpt>
      <trkpt lat="50.56611" lon="4.04882">
        <ele>96.27</ele>
        <time>2013-05-05T06:54:46Z</time>
      </trkpt>
      <trkpt lat="50.5662" lon="4.04881">
        <ele>95.79</ele>
        <time>2013-05-05T06:54:48Z</time>
      </trkpt>
      <trkpt lat="50.56636" lon="4.04893">
        <ele>96.27</ele>
        <time>2013-05-05T06:54:52Z</time>
      </trkpt>
      <trkpt lat="50.56677" lon="4.04979">
        <ele>96.27</ele>
        <time>2013-05-05T06:55:06Z</time>
      </trkpt>
      <trkpt lat="50.56695" lon="4.05016">
        <ele>95.79</ele>
        <time>2013-05-05T06:55:12Z</time>
      </trkpt>
      <trkpt lat="50.56701" lon="4.05045">
        <ele>96.27</ele>
        <time>2013-05-05T06:55:16Z</time>
      </trkpt>
      <trkpt lat="50.56703" lon="4.05076">
        <ele>96.27</ele>
        <time>2013-05-05T06:55:20Z</time>
      </trkpt>
      <trkpt lat="50.56703" lon="4.05106">
        <ele>95.79</ele>
        <time>2013-05-05T06:55:24Z</time>
      </trkpt>
      <trkpt lat="50.5671" lon="4.05134">
        <ele>95.79</ele>
        <time>2013-05-05T06:55:28Z</time>
      </trkpt>
      <trkpt lat="50.56716" lon="4.05145">
        <ele>95.79</ele>
        <time>2013-05-05T06:55:30Z</time>
      </trkpt>
      <trkpt lat="50.56763" lon="4.05247">
        <ele>95.79</ele>
        <time>2013-05-05T06:55:46Z</time>
      </trkpt>
      <trkpt lat="50.56799" lon="4.05326">
        <ele>96.27</ele>
        <time>2013-05-05T06:55:58Z</time>
      </trkpt>
      <trkpt lat="50.56801" lon="4.05334">
        <ele>96.75</ele>
        <time>2013-05-05T06:55:59Z</time>
      </trkpt>
      <trkpt lat="50.56802" lon="4.05342">
        <ele>96.27</ele>
        <time>2013-05-05T06:56:00Z</time>
      </trkpt>
      <trkpt lat="50.56816" lon="4.05446">
        <ele>96.27</ele>
        <time>2013-05-05T06:56:13Z</time>
      </trkpt>
      <trkpt lat="50.56816" lon="4.05454">
        <ele>96.27</ele>
        <time>2013-05-05T06:56:14Z</time>
      </trkpt>
      <trkpt lat="50.56818" lon="4.05461">
        <ele>96.27</ele>
        <time>2013-05-05T06:56:15Z</time>
      </trkpt>
      <trkpt lat="50.56827" lon="4.05561">
        <ele>95.79</ele>
        <time>2013-05-05T06:56:28Z</time>
      </trkpt>
      <trkpt lat="50.56828" lon="4.05569">
        <ele>95.31</ele>
        <time>2013-05-05T06:56:29Z</time>
      </trkpt>
      <trkpt lat="50.5683" lon="4.05576">
        <ele>95.79</ele>
        <time>2013-05-05T06:56:30Z</time>
      </trkpt>
      <trkpt lat="50.56833" lon="4.05584">
        <ele>95.31</ele>
        <time>2013-05-05T06:56:31Z</time>
      </trkpt>
      <trkpt lat="50.56836" lon="4.0559">
        <ele>96.27</ele>
        <time>2013-05-05T06:56:32Z</time>
      </trkpt>
      <trkpt lat="50.56839" lon="4.05597">
        <ele>96.27</ele>
        <time>2013-05-05T06:56:33Z</time>
      </trkpt>
      <trkpt lat="50.56898" lon="4.05725">
        <ele>95.31</ele>
        <time>2013-05-05T06:56:51Z</time>
      </trkpt>
      <trkpt lat="50.56959" lon="4.05859">
        <ele>95.31</ele>
        <time>2013-05-05T06:57:10Z</time>
      </trkpt>
      <trkpt lat="50.57017" lon="4.05998">
        <ele>94.83</ele>
        <time>2013-05-05T06:57:29Z</time>
      </trkpt>
      <trkpt lat="50.5707" lon="4.0612">
        <ele>94.35</ele>
        <time>2013-05-05T06:57:45Z</time>
      </trkpt>
      <trkpt lat="50.5712" lon="4.06257">
        <ele>93.87</ele>
        <time>2013-05-05T06:58:03Z</time>
      </trkpt>
      <trkpt lat="50.57164" lon="4.06376">
        <ele>93.87</ele>
        <time>2013-05-05T06:58:19Z</time>
      </trkpt>
      <trkpt lat="50.57167" lon="4.06384">
        <ele>93.87</ele>
        <time>2013-05-05T06:58:20Z</time>
      </trkpt>
      <trkpt lat="50.57169" lon="4.06391">
        <ele>94.35</ele>
        <time>2013-05-05T06:58:21Z</time>
      </trkpt>
      <trkpt lat="50.57176" lon="4.06413">
        <ele>94.35</ele>
        <time>2013-05-05T06:58:24Z</time>
      </trkpt>
      <trkpt lat="50.57178" lon="4.06421">
        <ele>94.35</ele>
        <time>2013-05-05T06:58:25Z</time>
      </trkpt>
      <trkpt lat="50.5718" lon="4.06453">
        <ele>94.83</ele>
        <time>2013-05-05T06:58:29Z</time>
      </trkpt>
      <trkpt lat="50.57208" lon="4.06554">
        <ele>94.35</ele>
        <time>2013-05-05T06:58:42Z</time>
      </trkpt>
      <trkpt lat="50.57216" lon="4.06585">
        <ele>94.35</ele>
        <time>2013-05-05T06:58:46Z</time>
      </trkpt>
      <trkpt lat="50.5722" lon="4.066">
        <ele>94.35</ele>
        <time>2013-05-05T06:58:48Z</time>
      </trkpt>
      <trkpt lat="50.57226" lon="4.06615">
        <ele>93.87</ele>
        <time>2013-05-05T06:58:50Z</time>
      </trkpt>
      <trkpt lat="50.57229" lon="4.06623">
        <ele>94.35</ele>
        <time>2013-05-05T06:58:51Z</time>
      </trkpt>
      <trkpt lat="50.57267" lon="4.06738">
        <ele>93.87</ele>
        <time>2013-05-05T06:59:06Z</time>
      </trkpt>
      <trkpt lat="50.57271" lon="4.06764">
        <ele>93.39</ele>
        <time>2013-05-05T06:59:14Z</time>
      </trkpt>
      <trkpt lat="50.57269" lon="4.06765">
        <ele>93.87</ele>
        <time>2013-05-05T06:59:17Z</time>
      </trkpt>
      <trkpt lat="50.57266" lon="4.06752">
        <ele>90.98</ele>
        <time>2013-05-05T06:59:28Z</time>
      </trkpt>
      <trkpt lat="50.5725" lon="4.06753">
        <ele>92.42</ele>
        <time>2013-05-05T06:59:44Z</time>
      </trkpt>
      <trkpt lat="50.5725" lon="4.06753">
        <ele>92.42</ele>
        <time>2013-05-05T06:59:45Z</time>
      </trkpt>
      <trkpt lat="50.57244" lon="4.06753">
        <ele>94.35</ele>
        <time>2013-05-05T06:59:54Z</time>
      </trkpt>
      <trkpt lat="50.5724" lon="4.06755">
        <ele>93.87</ele>
        <time>2013-05-05T06:59:56Z</time>
      </trkpt>
      <trkpt lat="50.5724" lon="4.06757">
        <ele>93.87</ele>
        <time>2013-05-05T06:59:57Z</time>
      </trkpt>
      <trkpt lat="50.5724" lon="4.06759">
        <ele>93.87</ele>
        <time>2013-05-05T06:59:58Z</time>
      </trkpt>
      <trkpt lat="50.57243" lon="4.06769">
        <ele>94.35</ele>
        <time>2013-05-05T07:00:01Z</time>
      </trkpt>
      <trkpt lat="50.57233" lon="4.06845">
        <ele>94.35</ele>
        <time>2013-05-05T07:00:16Z</time>
      </trkpt>
      <trkpt lat="50.57228" lon="4.06902">
        <ele>93.87</ele>
        <time>2013-05-05T07:00:25Z</time>
      </trkpt>
      <trkpt lat="50.57227" lon="4.06908">
        <ele>93.87</ele>
        <time>2013-05-05T07:00:26Z</time>
      </trkpt>
      <trkpt lat="50.57225" lon="4.06913">
        <ele>93.87</ele>
        <time>2013-05-05T07:00:27Z</time>
      </trkpt>
      <trkpt lat="50.57222" lon="4.06916">
        <ele>93.87</ele>
        <time>2013-05-05T07:00:28Z</time>
      </trkpt>
      <trkpt lat="50.57219" lon="4.06918">
        <ele>93.87</ele>
        <time>2013-05-05T07:00:29Z</time>
      </trkpt>
      <trkpt lat="50.57215" lon="4.06918">
        <ele>93.87</ele>
        <time>2013-05-05T07:00:30Z</time>
      </trkpt>
      <trkpt lat="50.57211" lon="4.06917">
        <ele>93.87</ele>
        <time>2013-05-05T07:00:31Z</time>
      </trkpt>
      <trkpt lat="50.57208" lon="4.06916">
        <ele>93.87</ele>
        <time>2013-05-05T07:00:32Z</time>
      </trkpt>
      <trkpt lat="50.57204" lon="4.06915">
        <ele>94.35</ele>
        <time>2013-05-05T07:00:33Z</time>
      </trkpt>
      <trkpt lat="50.57194" lon="4.06909">
        <ele>93.87</ele>
        <time>2013-05-05T07:00:36Z</time>
      </trkpt>
      <trkpt lat="50.57192" lon="4.06904">
        <ele>93.87</ele>
        <time>2013-05-05T07:00:37Z</time>
      </trkpt>
      <trkpt lat="50.5719" lon="4.06897">
        <ele>94.35</ele>
        <time>2013-05-05T07:00:38Z</time>
      </trkpt>
      <trkpt lat="50.57188" lon="4.06879">
        <ele>93.39</ele>
        <time>2013-05-05T07:00:41Z</time>
      </trkpt>
      <trkpt lat="50.57186" lon="4.06874">
        <ele>93.87</ele>
        <time>2013-05-05T07:00:42Z</time>
      </trkpt>
      <trkpt lat="50.57184" lon="4.06869">
        <ele>93.87</ele>
        <time>2013-05-05T07:00:43Z</time>
      </trkpt>
      <trkpt lat="50.57181" lon="4.06864">
        <ele>93.39</ele>
        <time>2013-05-05T07:00:44Z</time>
      </trkpt>
      <trkpt lat="50.57178" lon="4.0686">
        <ele>93.87</ele>
        <time>2013-05-05T07:00:45Z</time>
      </trkpt>
      <trkpt lat="50.57175" lon="4.06857">
        <ele>93.87</ele>
        <time>2013-05-05T07:00:46Z</time>
      </trkpt>
      <trkpt lat="50.57171" lon="4.06854">
        <ele>94.35</ele>
        <time>2013-05-05T07:00:47Z</time>
      </trkpt>
      <trkpt lat="50.57167" lon="4.06852">
        <ele>94.35</ele>
        <time>2013-05-05T07:00:48Z</time>
      </trkpt>
      <trkpt lat="50.57155" lon="4.06847">
        <ele>94.35</ele>
        <time>2013-05-05T07:00:51Z</time>
      </trkpt>
      <trkpt lat="50.57151" lon="4.06844">
        <ele>94.35</ele>
        <time>2013-05-05T07:00:52Z</time>
      </trkpt>
      <trkpt lat="50.57148" lon="4.0684">
        <ele>93.87</ele>
        <time>2013-05-05T07:00:53Z</time>
      </trkpt>
      <trkpt lat="50.57142" lon="4.0683">
        <ele>94.83</ele>
        <time>2013-05-05T07:00:55Z</time>
      </trkpt>
      <trkpt lat="50.5714" lon="4.06824">
        <ele>94.35</ele>
        <time>2013-05-05T07:00:56Z</time>
      </trkpt>
      <trkpt lat="50.57138" lon="4.06818">
        <ele>94.35</ele>
        <time>2013-05-05T07:00:57Z</time>
      </trkpt>
      <trkpt lat="50.57117" lon="4.06764">
        <ele>94.83</ele>
        <time>2013-05-05T07:01:07Z</time>
      </trkpt>
      <trkpt lat="50.57114" lon="4.06763">
        <ele>94.35</ele>
        <time>2013-05-05T07:01:08Z</time>
      </trkpt>
      <trkpt lat="50.5711" lon="4.06762">
        <ele>93.87</ele>
        <time>2013-05-05T07:01:09Z</time>
      </trkpt>
      <trkpt lat="50.57107" lon="4.06764">
        <ele>94.35</ele>
        <time>2013-05-05T07:01:10Z</time>
      </trkpt>
      <trkpt lat="50.57104" lon="4.06767">
        <ele>93.87</ele>
        <time>2013-05-05T07:01:11Z</time>
      </trkpt>
      <trkpt lat="50.57089" lon="4.06787">
        <ele>94.35</ele>
        <time>2013-05-05T07:01:16Z</time>
      </trkpt>
      <trkpt lat="50.57089" lon="4.06794">
        <ele>94.35</ele>
        <time>2013-05-05T07:01:17Z</time>
      </trkpt>
      <trkpt lat="50.57089" lon="4.06802">
        <ele>94.35</ele>
        <time>2013-05-05T07:01:18Z</time>
      </trkpt>
      <trkpt lat="50.57092" lon="4.06809">
        <ele>94.35</ele>
        <time>2013-05-05T07:01:19Z</time>
      </trkpt>
      <trkpt lat="50.57094" lon="4.06816">
        <ele>94.35</ele>
        <time>2013-05-05T07:01:20Z</time>
      </trkpt>
      <trkpt lat="50.57097" lon="4.06822">
        <ele>93.87</ele>
        <time>2013-05-05T07:01:21Z</time>
      </trkpt>
      <trkpt lat="50.57132" lon="4.06927">
        <ele>92.9</ele>
        <time>2013-05-05T07:01:35Z</time>
      </trkpt>
      <trkpt lat="50.57147" lon="4.07067">
        <ele>92.42</ele>
        <time>2013-05-05T07:01:49Z</time>
      </trkpt>
      <trkpt lat="50.57149" lon="4.071">
        <ele>91.46</ele>
        <time>2013-05-05T07:01:55Z</time>
      </trkpt>
      <trkpt lat="50.57147" lon="4.07102">
        <ele>91.46</ele>
        <time>2013-05-05T07:01:56Z</time>
      </trkpt>
      <trkpt lat="50.57145" lon="4.07103">
        <ele>91.46</ele>
        <time>2013-05-05T07:01:57Z</time>
      </trkpt>
      <trkpt lat="50.57142" lon="4.07103">
        <ele>91.46</ele>
        <time>2013-05-05T07:01:58Z</time>
      </trkpt>
      <trkpt lat="50.57138" lon="4.07103">
        <ele>91.46</ele>
        <time>2013-05-05T07:01:59Z</time>
      </trkpt>
      <trkpt lat="50.57134" lon="4.07103">
        <ele>91.46</ele>
        <time>2013-05-05T07:02:00Z</time>
      </trkpt>
      <trkpt lat="50.57125" lon="4.07105">
        <ele>91.94</ele>
        <time>2013-05-05T07:02:02Z</time>
      </trkpt>
      <trkpt lat="50.57077" lon="4.0712">
        <ele>92.42</ele>
        <time>2013-05-05T07:02:11Z</time>
      </trkpt>
      <trkpt lat="50.57022" lon="4.07134">
        <ele>90.98</ele>
        <time>2013-05-05T07:02:21Z</time>
      </trkpt>
      <trkpt lat="50.56962" lon="4.07168">
        <ele>90.5</ele>
        <time>2013-05-05T07:02:33Z</time>
      </trkpt>
      <trkpt lat="50.56959" lon="4.07173">
        <ele>90.5</ele>
        <time>2013-05-05T07:02:34Z</time>
      </trkpt>
      <trkpt lat="50.56956" lon="4.07179">
        <ele>90.5</ele>
        <time>2013-05-05T07:02:35Z</time>
      </trkpt>
      <trkpt lat="50.56948" lon="4.07212">
        <ele>90.02</ele>
        <time>2013-05-05T07:02:40Z</time>
      </trkpt>
      <trkpt lat="50.56946" lon="4.07252">
        <ele>90.02</ele>
        <time>2013-05-05T07:02:45Z</time>
      </trkpt>
      <trkpt lat="50.56947" lon="4.07268">
        <ele>89.54</ele>
        <time>2013-05-05T07:02:47Z</time>
      </trkpt>
      <trkpt lat="50.56948" lon="4.07275">
        <ele>89.54</ele>
        <time>2013-05-05T07:02:48Z</time>
      </trkpt>
      <trkpt lat="50.56956" lon="4.07315">
        <ele>89.54</ele>
        <time>2013-05-05T07:02:54Z</time>
      </trkpt>
      <trkpt lat="50.56959" lon="4.0732">
        <ele>89.54</ele>
        <time>2013-05-05T07:02:55Z</time>
      </trkpt>
      <trkpt lat="50.56963" lon="4.07324">
        <ele>89.54</ele>
        <time>2013-05-05T07:02:56Z</time>
      </trkpt>
      <trkpt lat="50.56967" lon="4.07327">
        <ele>89.54</ele>
        <time>2013-05-05T07:02:57Z</time>
      </trkpt>
      <trkpt lat="50.56972" lon="4.07328">
        <ele>89.54</ele>
        <time>2013-05-05T07:02:58Z</time>
      </trkpt>
      <trkpt lat="50.56976" lon="4.07328">
        <ele>89.06</ele>
        <time>2013-05-05T07:02:59Z</time>
      </trkpt>
      <trkpt lat="50.56981" lon="4.07328">
        <ele>89.06</ele>
        <time>2013-05-05T07:03:00Z</time>
      </trkpt>
      <trkpt lat="50.5699" lon="4.07328">
        <ele>89.54</ele>
        <time>2013-05-05T07:03:02Z</time>
      </trkpt>
      <trkpt lat="50.56994" lon="4.07327">
        <ele>89.06</ele>
        <time>2013-05-05T07:03:03Z</time>
      </trkpt>
      <trkpt lat="50.56999" lon="4.07325">
        <ele>89.06</ele>
        <time>2013-05-05T07:03:04Z</time>
      </trkpt>
      <trkpt lat="50.57069" lon="4.07285">
        <ele>89.54</ele>
        <time>2013-05-05T07:03:19Z</time>
      </trkpt>
      <trkpt lat="50.57112" lon="4.07265">
        <ele>89.54</ele>
        <time>2013-05-05T07:03:28Z</time>
      </trkpt>
      <trkpt lat="50.57116" lon="4.07262">
        <ele>90.02</ele>
        <time>2013-05-05T07:03:29Z</time>
      </trkpt>
      <trkpt lat="50.57121" lon="4.0726">
        <ele>89.54</ele>
        <time>2013-05-05T07:03:30Z</time>
      </trkpt>
      <trkpt lat="50.57162" lon="4.0724">
        <ele>89.54</ele>
        <time>2013-05-05T07:03:39Z</time>
      </trkpt>
      <trkpt lat="50.57167" lon="4.07241">
        <ele>89.54</ele>
        <time>2013-05-05T07:03:40Z</time>
      </trkpt>
      <trkpt lat="50.5717" lon="4.07244">
        <ele>88.58</ele>
        <time>2013-05-05T07:03:41Z</time>
      </trkpt>
      <trkpt lat="50.57174" lon="4.0725">
        <ele>88.58</ele>
        <time>2013-05-05T07:03:42Z</time>
      </trkpt>
      <trkpt lat="50.57176" lon="4.07257">
        <ele>89.06</ele>
        <time>2013-05-05T07:03:43Z</time>
      </trkpt>
      <trkpt lat="50.57177" lon="4.07265">
        <ele>88.58</ele>
        <time>2013-05-05T07:03:44Z</time>
      </trkpt>
      <trkpt lat="50.57178" lon="4.07273">
        <ele>88.1</ele>
        <time>2013-05-05T07:03:45Z</time>
      </trkpt>
      <trkpt lat="50.57192" lon="4.07332">
        <ele>87.14</ele>
        <time>2013-05-05T07:03:52Z</time>
      </trkpt>
      <trkpt lat="50.57194" lon="4.0734">
        <ele>86.66</ele>
        <time>2013-05-05T07:03:53Z</time>
      </trkpt>
      <trkpt lat="50.57217" lon="4.07401">
        <ele>86.18</ele>
        <time>2013-05-05T07:04:01Z</time>
      </trkpt>
      <trkpt lat="50.57218" lon="4.07409">
        <ele>86.18</ele>
        <time>2013-05-05T07:04:02Z</time>
      </trkpt>
      <trkpt lat="50.5723" lon="4.07539">
        <ele>85.69</ele>
        <time>2013-05-05T07:04:17Z</time>
      </trkpt>
      <trkpt lat="50.57232" lon="4.07546">
        <ele>85.69</ele>
        <time>2013-05-05T07:04:18Z</time>
      </trkpt>
      <trkpt lat="50.57233" lon="4.07554">
        <ele>86.18</ele>
        <time>2013-05-05T07:04:19Z</time>
      </trkpt>
      <trkpt lat="50.57243" lon="4.07612">
        <ele>87.62</ele>
        <time>2013-05-05T07:04:27Z</time>
      </trkpt>
      <trkpt lat="50.57243" lon="4.07619">
        <ele>88.1</ele>
        <time>2013-05-05T07:04:28Z</time>
      </trkpt>
      <trkpt lat="50.57242" lon="4.07627">
        <ele>88.1</ele>
        <time>2013-05-05T07:04:29Z</time>
      </trkpt>
      <trkpt lat="50.5724" lon="4.07634">
        <ele>88.1</ele>
        <time>2013-05-05T07:04:30Z</time>
      </trkpt>
      <trkpt lat="50.57238" lon="4.07641">
        <ele>88.58</ele>
        <time>2013-05-05T07:04:31Z</time>
      </trkpt>
      <trkpt lat="50.57235" lon="4.07645">
        <ele>88.58</ele>
        <time>2013-05-05T07:04:32Z</time>
      </trkpt>
      <trkpt lat="50.57232" lon="4.07648">
        <ele>89.06</ele>
        <time>2013-05-05T07:04:33Z</time>
      </trkpt>
      <trkpt lat="50.57227" lon="4.07649">
        <ele>89.06</ele>
        <time>2013-05-05T07:04:34Z</time>
      </trkpt>
      <trkpt lat="50.57222" lon="4.07649">
        <ele>88.58</ele>
        <time>2013-05-05T07:04:35Z</time>
      </trkpt>
      <trkpt lat="50.57207" lon="4.07652">
        <ele>89.06</ele>
        <time>2013-05-05T07:04:38Z</time>
      </trkpt>
      <trkpt lat="50.57203" lon="4.07652">
        <ele>89.06</ele>
        <time>2013-05-05T07:04:39Z</time>
      </trkpt>
      <trkpt lat="50.57168" lon="4.07637">
        <ele>89.06</ele>
        <time>2013-05-05T07:04:47Z</time>
      </trkpt>
      <trkpt lat="50.57165" lon="4.07633">
        <ele>89.54</ele>
        <time>2013-05-05T07:04:48Z</time>
      </trkpt>
      <trkpt lat="50.57151" lon="4.07616">
        <ele>89.54</ele>
        <time>2013-05-05T07:04:52Z</time>
      </trkpt>
      <trkpt lat="50.57147" lon="4.07612">
        <ele>90.02</ele>
        <time>2013-05-05T07:04:53Z</time>
      </trkpt>
      <trkpt lat="50.57143" lon="4.0761">
        <ele>90.02</ele>
        <time>2013-05-05T07:04:54Z</time>
      </trkpt>
      <trkpt lat="50.57138" lon="4.07608">
        <ele>90.5</ele>
        <time>2013-05-05T07:04:55Z</time>
      </trkpt>
      <trkpt lat="50.57133" lon="4.07607">
        <ele>90.02</ele>
        <time>2013-05-05T07:04:56Z</time>
      </trkpt>
      <trkpt lat="50.57067" lon="4.07611">
        <ele>90.02</ele>
        <time>2013-05-05T07:05:11Z</time>
      </trkpt>
      <trkpt lat="50.56987" lon="4.07618">
        <ele>90.5</ele>
        <time>2013-05-05T07:05:29Z</time>
      </trkpt>
      <trkpt lat="50.56978" lon="4.07621">
        <ele>91.46</ele>
        <time>2013-05-05T07:05:31Z</time>
      </trkpt>
      <trkpt lat="50.56966" lon="4.07628">
        <ele>91.46</ele>
        <time>2013-05-05T07:05:34Z</time>
      </trkpt>
      <trkpt lat="50.56927" lon="4.07659">
        <ele>90.98</ele>
        <time>2013-05-05T07:05:44Z</time>
      </trkpt>
      <trkpt lat="50.56925" lon="4.07664">
        <ele>90.98</ele>
        <time>2013-05-05T07:05:45Z</time>
      </trkpt>
      <trkpt lat="50.56925" lon="4.0767">
        <ele>90.98</ele>
        <time>2013-05-05T07:05:46Z</time>
      </trkpt>
      <trkpt lat="50.56926" lon="4.07677">
        <ele>90.5</ele>
        <time>2013-05-05T07:05:47Z</time>
      </trkpt>
      <trkpt lat="50.56928" lon="4.07683">
        <ele>91.46</ele>
        <time>2013-05-05T07:05:48Z</time>
      </trkpt>
      <trkpt lat="50.5693" lon="4.0769">
        <ele>90.5</ele>
        <time>2013-05-05T07:05:49Z</time>
      </trkpt>
      <trkpt lat="50.56932" lon="4.07696">
        <ele>90.5</ele>
        <time>2013-05-05T07:05:50Z</time>
      </trkpt>
      <trkpt lat="50.56934" lon="4.07703">
        <ele>90.5</ele>
        <time>2013-05-05T07:05:51Z</time>
      </trkpt>
      <trkpt lat="50.56948" lon="4.07757">
        <ele>91.46</ele>
        <time>2013-05-05T07:05:59Z</time>
      </trkpt>
      <trkpt lat="50.5695" lon="4.07763">
        <ele>91.46</ele>
        <time>2013-05-05T07:06:00Z</time>
      </trkpt>
      <trkpt lat="50.5696" lon="4.07817">
        <ele>92.42</ele>
        <time>2013-05-05T07:06:09Z</time>
      </trkpt>
      <trkpt lat="50.56958" lon="4.07821">
        <ele>92.9</ele>
        <time>2013-05-05T07:06:10Z</time>
      </trkpt>
      <trkpt lat="50.56954" lon="4.07823">
        <ele>92.42</ele>
        <time>2013-05-05T07:06:11Z</time>
      </trkpt>
      <trkpt lat="50.56946" lon="4.07828">
        <ele>92.9</ele>
        <time>2013-05-05T07:06:13Z</time>
      </trkpt>
      <trkpt lat="50.56943" lon="4.07832">
        <ele>92.9</ele>
        <time>2013-05-05T07:06:14Z</time>
      </trkpt>
      <trkpt lat="50.56941" lon="4.07838">
        <ele>92.9</ele>
        <time>2013-05-05T07:06:15Z</time>
      </trkpt>
      <trkpt lat="50.56941" lon="4.07844">
        <ele>92.9</ele>
        <time>2013-05-05T07:06:16Z</time>
      </trkpt>
      <trkpt lat="50.56942" lon="4.07851">
        <ele>92.9</ele>
        <time>2013-05-05T07:06:17Z</time>
      </trkpt>
      <trkpt lat="50.56942" lon="4.07857">
        <ele>92.9</ele>
        <time>2013-05-05T07:06:18Z</time>
      </trkpt>
      <trkpt lat="50.56944" lon="4.07865">
        <ele>92.9</ele>
        <time>2013-05-05T07:06:19Z</time>
      </trkpt>
      <trkpt lat="50.56945" lon="4.07872">
        <ele>92.9</ele>
        <time>2013-05-05T07:06:20Z</time>
      </trkpt>
      <trkpt lat="50.56964" lon="4.07983">
        <ele>93.39</ele>
        <time>2013-05-05T07:06:35Z</time>
      </trkpt>
      <trkpt lat="50.56965" lon="4.07989">
        <ele>93.87</ele>
        <time>2013-05-05T07:06:36Z</time>
      </trkpt>
      <trkpt lat="50.56998" lon="4.08084">
        <ele>95.31</ele>
        <time>2013-05-05T07:06:51Z</time>
      </trkpt>
      <trkpt lat="50.57023" lon="4.08164">
        <ele>96.27</ele>
        <time>2013-05-05T07:07:04Z</time>
      </trkpt>
      <trkpt lat="50.57023" lon="4.0817">
        <ele>96.75</ele>
        <time>2013-05-05T07:07:05Z</time>
      </trkpt>
      <trkpt lat="50.57022" lon="4.08176">
        <ele>96.75</ele>
        <time>2013-05-05T07:07:06Z</time>
      </trkpt>
      <trkpt lat="50.57019" lon="4.08181">
        <ele>96.75</ele>
        <time>2013-05-05T07:07:07Z</time>
      </trkpt>
      <trkpt lat="50.57016" lon="4.08186">
        <ele>96.27</ele>
        <time>2013-05-05T07:07:08Z</time>
      </trkpt>
      <trkpt lat="50.57012" lon="4.08189">
        <ele>96.75</ele>
        <time>2013-05-05T07:07:09Z</time>
      </trkpt>
      <trkpt lat="50.57009" lon="4.08192">
        <ele>96.75</ele>
        <time>2013-05-05T07:07:10Z</time>
      </trkpt>
      <trkpt lat="50.56988" lon="4.08213">
        <ele>96.27</ele>
        <time>2013-05-05T07:07:16Z</time>
      </trkpt>
      <trkpt lat="50.56984" lon="4.08214">
        <ele>96.27</ele>
        <time>2013-05-05T07:07:17Z</time>
      </trkpt>
      <trkpt lat="50.56981" lon="4.08212">
        <ele>96.75</ele>
        <time>2013-05-05T07:07:18Z</time>
      </trkpt>
      <trkpt lat="50.56978" lon="4.08207">
        <ele>96.27</ele>
        <time>2013-05-05T07:07:19Z</time>
      </trkpt>
      <trkpt lat="50.56976" lon="4.08203">
        <ele>96.27</ele>
        <time>2013-05-05T07:07:20Z</time>
      </trkpt>
      <trkpt lat="50.56973" lon="4.082">
        <ele>96.27</ele>
        <time>2013-05-05T07:07:21Z</time>
      </trkpt>
      <trkpt lat="50.5697" lon="4.08199">
        <ele>96.27</ele>
        <time>2013-05-05T07:07:22Z</time>
      </trkpt>
      <trkpt lat="50.56966" lon="4.082">
        <ele>96.27</ele>
        <time>2013-05-05T07:07:23Z</time>
      </trkpt>
      <trkpt lat="50.56963" lon="4.08203">
        <ele>96.27</ele>
        <time>2013-05-05T07:07:24Z</time>
      </trkpt>
      <trkpt lat="50.56959" lon="4.08206">
        <ele>96.27</ele>
        <time>2013-05-05T07:07:25Z</time>
      </trkpt>
      <trkpt lat="50.56956" lon="4.08211">
        <ele>95.79</ele>
        <time>2013-05-05T07:07:26Z</time>
      </trkpt>
      <trkpt lat="50.56893" lon="4.08286">
        <ele>94.35</ele>
        <time>2013-05-05T07:07:41Z</time>
      </trkpt>
      <trkpt lat="50.56842" lon="4.08347">
        <ele>93.87</ele>
        <time>2013-05-05T07:07:53Z</time>
      </trkpt>
      <trkpt lat="50.56777" lon="4.08393">
        <ele>92.42</ele>
        <time>2013-05-05T07:08:06Z</time>
      </trkpt>
      <trkpt lat="50.56771" lon="4.08392">
        <ele>92.42</ele>
        <time>2013-05-05T07:08:07Z</time>
      </trkpt>
      <trkpt lat="50.56767" lon="4.08389">
        <ele>92.42</ele>
        <time>2013-05-05T07:08:08Z</time>
      </trkpt>
      <trkpt lat="50.56763" lon="4.08384">
        <ele>91.94</ele>
        <time>2013-05-05T07:08:09Z</time>
      </trkpt>
      <trkpt lat="50.5676" lon="4.08377">
        <ele>92.42</ele>
        <time>2013-05-05T07:08:10Z</time>
      </trkpt>
      <trkpt lat="50.56758" lon="4.08369">
        <ele>91.94</ele>
        <time>2013-05-05T07:08:11Z</time>
      </trkpt>
      <trkpt lat="50.56758" lon="4.08361">
        <ele>91.94</ele>
        <time>2013-05-05T07:08:12Z</time>
      </trkpt>
      <trkpt lat="50.56759" lon="4.08352">
        <ele>92.42</ele>
        <time>2013-05-05T07:08:13Z</time>
      </trkpt>
      <trkpt lat="50.56759" lon="4.08344">
        <ele>92.42</ele>
        <time>2013-05-05T07:08:14Z</time>
      </trkpt>
      <trkpt lat="50.56762" lon="4.08321">
        <ele>92.42</ele>
        <time>2013-05-05T07:08:17Z</time>
      </trkpt>
      <trkpt lat="50.56764" lon="4.08313">
        <ele>92.42</ele>
        <time>2013-05-05T07:08:18Z</time>
      </trkpt>
      <trkpt lat="50.56767" lon="4.08307">
        <ele>92.42</ele>
        <time>2013-05-05T07:08:19Z</time>
      </trkpt>
      <trkpt lat="50.56771" lon="4.08302">
        <ele>92.9</ele>
        <time>2013-05-05T07:08:20Z</time>
      </trkpt>
      <trkpt lat="50.56776" lon="4.08298">
        <ele>92.42</ele>
        <time>2013-05-05T07:08:21Z</time>
      </trkpt>
      <trkpt lat="50.56841" lon="4.08228">
        <ele>94.35</ele>
        <time>2013-05-05T07:08:34Z</time>
      </trkpt>
      <trkpt lat="50.56894" lon="4.08174">
        <ele>94.83</ele>
        <time>2013-05-05T07:08:43Z</time>
      </trkpt>
      <trkpt lat="50.56904" lon="4.08162">
        <ele>95.31</ele>
        <time>2013-05-05T07:08:45Z</time>
      </trkpt>
      <trkpt lat="50.56909" lon="4.08157">
        <ele>94.83</ele>
        <time>2013-05-05T07:08:46Z</time>
      </trkpt>
      <trkpt lat="50.56918" lon="4.08146">
        <ele>94.83</ele>
        <time>2013-05-05T07:08:48Z</time>
      </trkpt>
      <trkpt lat="50.56924" lon="4.08134">
        <ele>95.31</ele>
        <time>2013-05-05T07:08:50Z</time>
      </trkpt>
      <trkpt lat="50.56926" lon="4.08128">
        <ele>95.31</ele>
        <time>2013-05-05T07:08:51Z</time>
      </trkpt>
      <trkpt lat="50.56928" lon="4.08123">
        <ele>95.31</ele>
        <time>2013-05-05T07:08:52Z</time>
      </trkpt>
      <trkpt lat="50.56929" lon="4.08118">
        <ele>94.83</ele>
        <time>2013-05-05T07:08:53Z</time>
      </trkpt>
      <trkpt lat="50.56931" lon="4.08114">
        <ele>94.83</ele>
        <time>2013-05-05T07:08:54Z</time>
      </trkpt>
      <trkpt lat="50.56933" lon="4.08111">
        <ele>94.83</ele>
        <time>2013-05-05T07:08:55Z</time>
      </trkpt>
      <trkpt lat="50.56933" lon="4.08109">
        <ele>94.35</ele>
        <time>2013-05-05T07:08:56Z</time>
      </trkpt>
      <trkpt lat="50.56933" lon="4.08106">
        <ele>94.83</ele>
        <time>2013-05-05T07:08:57Z</time>
      </trkpt>
      <trkpt lat="50.56932" lon="4.08103">
        <ele>94.83</ele>
        <time>2013-05-05T07:08:58Z</time>
      </trkpt>
      <trkpt lat="50.56931" lon="4.08099">
        <ele>94.35</ele>
        <time>2013-05-05T07:08:59Z</time>
      </trkpt>
      <trkpt lat="50.56929" lon="4.08095">
        <ele>94.83</ele>
        <time>2013-05-05T07:09:00Z</time>
      </trkpt>
      <trkpt lat="50.56889" lon="4.08015">
        <ele>93.87</ele>
        <time>2013-05-05T07:09:14Z</time>
      </trkpt>
      <trkpt lat="50.56848" lon="4.07922">
        <ele>92.42</ele>
        <time>2013-05-05T07:09:28Z</time>
      </trkpt>
      <trkpt lat="50.56834" lon="4.0789">
        <ele>91.94</ele>
        <time>2013-05-05T07:09:35Z</time>
      </trkpt>
      <trkpt lat="50.56832" lon="4.07889">
        <ele>91.94</ele>
        <time>2013-05-05T07:09:36Z</time>
      </trkpt>
      <trkpt lat="50.56829" lon="4.07889">
        <ele>91.94</ele>
        <time>2013-05-05T07:09:37Z</time>
      </trkpt>
      <trkpt lat="50.56826" lon="4.07891">
        <ele>91.46</ele>
        <time>2013-05-05T07:09:38Z</time>
      </trkpt>
      <trkpt lat="50.56823" lon="4.07894">
        <ele>91.94</ele>
        <time>2013-05-05T07:09:39Z</time>
      </trkpt>
      <trkpt lat="50.56759" lon="4.07932">
        <ele>90.5</ele>
        <time>2013-05-05T07:09:53Z</time>
      </trkpt>
      <trkpt lat="50.56681" lon="4.0796">
        <ele>90.02</ele>
        <time>2013-05-05T07:10:09Z</time>
      </trkpt>
      <trkpt lat="50.56677" lon="4.07941">
        <ele>89.54</ele>
        <time>2013-05-05T07:10:13Z</time>
      </trkpt>
      <trkpt lat="50.5667" lon="4.0786">
        <ele>89.54</ele>
        <time>2013-05-05T07:10:24Z</time>
      </trkpt>
      <trkpt lat="50.56658" lon="4.07838">
        <ele>89.06</ele>
        <time>2013-05-05T07:10:28Z</time>
      </trkpt>
      <trkpt lat="50.56649" lon="4.07831">
        <ele>89.54</ele>
        <time>2013-05-05T07:10:30Z</time>
      </trkpt>
      <trkpt lat="50.5664" lon="4.07824">
        <ele>89.54</ele>
        <time>2013-05-05T07:10:32Z</time>
      </trkpt>
      <trkpt lat="50.56591" lon="4.07811">
        <ele>90.02</ele>
        <time>2013-05-05T07:10:43Z</time>
      </trkpt>
      <trkpt lat="50.56549" lon="4.07853">
        <ele>90.98</ele>
        <time>2013-05-05T07:10:55Z</time>
      </trkpt>
      <trkpt lat="50.56536" lon="4.07863">
        <ele>90.98</ele>
        <time>2013-05-05T07:10:58Z</time>
      </trkpt>
      <trkpt lat="50.56518" lon="4.07844">
        <ele>90.98</ele>
        <time>2013-05-05T07:11:05Z</time>
      </trkpt>
      <trkpt lat="50.56526" lon="4.07779">
        <ele>90.5</ele>
        <time>2013-05-05T07:11:15Z</time>
      </trkpt>
      <trkpt lat="50.56534" lon="4.07756">
        <ele>90.5</ele>
        <time>2013-05-05T07:11:19Z</time>
      </trkpt>
      <trkpt lat="50.56548" lon="4.07716">
        <ele>90.02</ele>
        <time>2013-05-05T07:11:26Z</time>
      </trkpt>
      <trkpt lat="50.56545" lon="4.07673">
        <ele>90.98</ele>
        <time>2013-05-05T07:11:35Z</time>
      </trkpt>
      <trkpt lat="50.56543" lon="4.07671">
        <ele>90.98</ele>
        <time>2013-05-05T07:11:36Z</time>
      </trkpt>
      <trkpt lat="50.5654" lon="4.07671">
        <ele>90.98</ele>
        <time>2013-05-05T07:11:37Z</time>
      </trkpt>
      <trkpt lat="50.56537" lon="4.07671">
        <ele>90.98</ele>
        <time>2013-05-05T07:11:38Z</time>
      </trkpt>
      <trkpt lat="50.56534" lon="4.07669">
        <ele>91.46</ele>
        <time>2013-05-05T07:11:39Z</time>
      </trkpt>
      <trkpt lat="50.56533" lon="4.07665">
        <ele>90.98</ele>
        <time>2013-05-05T07:11:40Z</time>
      </trkpt>
      <trkpt lat="50.56534" lon="4.07658">
        <ele>90.98</ele>
        <time>2013-05-05T07:11:42Z</time>
      </trkpt>
      <trkpt lat="50.56541" lon="4.07604">
        <ele>91.46</ele>
        <time>2013-05-05T07:11:52Z</time>
      </trkpt>
      <trkpt lat="50.56541" lon="4.07533">
        <ele>92.42</ele>
        <time>2013-05-05T07:12:03Z</time>
      </trkpt>
      <trkpt lat="50.56548" lon="4.07498">
        <ele>92.42</ele>
        <time>2013-05-05T07:12:08Z</time>
      </trkpt>
      <trkpt lat="50.56556" lon="4.07472">
        <ele>92.42</ele>
        <time>2013-05-05T07:12:12Z</time>
      </trkpt>
      <trkpt lat="50.56565" lon="4.07437">
        <ele>90.5</ele>
        <time>2013-05-05T07:12:16Z</time>
      </trkpt>
      <trkpt lat="50.56595" lon="4.07346">
        <ele>91.94</ele>
        <time>2013-05-05T07:12:28Z</time>
      </trkpt>
      <trkpt lat="50.56597" lon="4.07341">
        <ele>92.42</ele>
        <time>2013-05-05T07:12:29Z</time>
      </trkpt>
      <trkpt lat="50.56607" lon="4.07323">
        <ele>92.9</ele>
        <time>2013-05-05T07:12:33Z</time>
      </trkpt>
      <trkpt lat="50.56619" lon="4.07291">
        <ele>93.39</ele>
        <time>2013-05-05T07:12:38Z</time>
      </trkpt>
      <trkpt lat="50.56637" lon="4.07267">
        <ele>92.9</ele>
        <time>2013-05-05T07:12:43Z</time>
      </trkpt>
      <trkpt lat="50.56649" lon="4.07255">
        <ele>92.42</ele>
        <time>2013-05-05T07:12:46Z</time>
      </trkpt>
      <trkpt lat="50.56679" lon="4.07225">
        <ele>91.46</ele>
        <time>2013-05-05T07:12:53Z</time>
      </trkpt>
      <trkpt lat="50.56703" lon="4.07193">
        <ele>91.94</ele>
        <time>2013-05-05T07:13:03Z</time>
      </trkpt>
      <trkpt lat="50.567" lon="4.07181">
        <ele>91.94</ele>
        <time>2013-05-05T07:13:06Z</time>
      </trkpt>
      <trkpt lat="50.5669" lon="4.07179">
        <ele>92.9</ele>
        <time>2013-05-05T07:13:10Z</time>
      </trkpt>
      <trkpt lat="50.5664" lon="4.07224">
        <ele>92.9</ele>
        <time>2013-05-05T07:13:25Z</time>
      </trkpt>
      <trkpt lat="50.56596" lon="4.07265">
        <ele>92.9</ele>
        <time>2013-05-05T07:13:42Z</time>
      </trkpt>
      <trkpt lat="50.56534" lon="4.07323">
        <ele>92.9</ele>
        <time>2013-05-05T07:14:03Z</time>
      </trkpt>
      <trkpt lat="50.56479" lon="4.07379">
        <ele>93.39</ele>
        <time>2013-05-05T07:14:20Z</time>
      </trkpt>
      <trkpt lat="50.56477" lon="4.07384">
        <ele>92.42</ele>
        <time>2013-05-05T07:14:21Z</time>
      </trkpt>
      <trkpt lat="50.56477" lon="4.07389">
        <ele>92.9</ele>
        <time>2013-05-05T07:14:22Z</time>
      </trkpt>
      <trkpt lat="50.56478" lon="4.07395">
        <ele>93.39</ele>
        <time>2013-05-05T07:14:23Z</time>
      </trkpt>
      <trkpt lat="50.5648" lon="4.074">
        <ele>93.39</ele>
        <time>2013-05-05T07:14:24Z</time>
      </trkpt>
      <trkpt lat="50.56482" lon="4.07405">
        <ele>92.9</ele>
        <time>2013-05-05T07:14:25Z</time>
      </trkpt>
      <trkpt lat="50.56484" lon="4.07411">
        <ele>92.9</ele>
        <time>2013-05-05T07:14:26Z</time>
      </trkpt>
      <trkpt lat="50.56485" lon="4.07417">
        <ele>92.9</ele>
        <time>2013-05-05T07:14:27Z</time>
      </trkpt>
      <trkpt lat="50.5648" lon="4.07438">
        <ele>92.42</ele>
        <time>2013-05-05T07:14:32Z</time>
      </trkpt>
      <trkpt lat="50.5648" lon="4.0744">
        <ele>91.94</ele>
        <time>2013-05-05T07:14:44Z</time>
      </trkpt>
      <trkpt lat="50.56474" lon="4.07446">
        <ele>91.94</ele>
        <time>2013-05-05T07:14:59Z</time>
      </trkpt>
      <trkpt lat="50.56468" lon="4.0744">
        <ele>92.42</ele>
        <time>2013-05-05T07:15:15Z</time>
      </trkpt>
      <trkpt lat="50.56469" lon="4.07436">
        <ele>92.42</ele>
        <time>2013-05-05T07:15:40Z</time>
      </trkpt>
      <trkpt lat="50.56469" lon="4.07452">
        <ele>92.42</ele>
        <time>2013-05-05T07:16:05Z</time>
      </trkpt>
      <trkpt lat="50.56465" lon="4.07437">
        <ele>93.39</ele>
        <time>2013-05-05T07:16:26Z</time>
      </trkpt>
      <trkpt lat="50.56465" lon="4.07438">
        <ele>93.39</ele>
        <time>2013-05-05T07:16:49Z</time>
      </trkpt>
      <trkpt lat="50.56477" lon="4.07442">
        <ele>93.39</ele>
        <time>2013-05-05T07:17:09Z</time>
      </trkpt>
      <trkpt lat="50.56476" lon="4.07446">
        <ele>92.9</ele>
        <time>2013-05-05T07:17:29Z</time>
      </trkpt>
      <trkpt lat="50.56472" lon="4.07441">
        <ele>92.9</ele>
        <time>2013-05-05T07:17:40Z</time>
      </trkpt>
      <trkpt lat="50.5647" lon="4.07446">
        <ele>92.9</ele>
        <time>2013-05-05T07:17:57Z</time>
      </trkpt>
      <trkpt lat="50.56477" lon="4.07437">
        <ele>92.42</ele>
        <time>2013-05-05T07:18:07Z</time>
      </trkpt>
      <trkpt lat="50.56474" lon="4.07445">
        <ele>92.9</ele>
        <time>2013-05-05T07:18:19Z</time>
      </trkpt>
      <trkpt lat="50.56475" lon="4.07439">
        <ele>92.42</ele>
        <time>2013-05-05T07:18:35Z</time>
      </trkpt>
      <trkpt lat="50.56478" lon="4.07436">
        <ele>92.9</ele>
        <time>2013-05-05T07:18:44Z</time>
      </trkpt>
      <trkpt lat="50.56479" lon="4.07446">
        <ele>93.39</ele>
        <time>2013-05-05T07:18:56Z</time>
      </trkpt>
      <trkpt lat="50.56478" lon="4.07447">
        <ele>92.9</ele>
        <time>2013-05-05T07:18:57Z</time>
      </trkpt>
      <trkpt lat="50.56477" lon="4.07449">
        <ele>93.39</ele>
        <time>2013-05-05T07:18:58Z</time>
      </trkpt>
      <trkpt lat="50.56474" lon="4.07455">
        <ele>93.39</ele>
        <time>2013-05-05T07:19:01Z</time>
      </trkpt>
      <trkpt lat="50.56473" lon="4.07457">
        <ele>92.9</ele>
        <time>2013-05-05T07:19:02Z</time>
      </trkpt>
      <trkpt lat="50.56472" lon="4.07459">
        <ele>92.9</ele>
        <time>2013-05-05T07:19:03Z</time>
      </trkpt>
      <trkpt lat="50.56469" lon="4.07467">
        <ele>92.9</ele>
        <time>2013-05-05T07:19:07Z</time>
      </trkpt>
      <trkpt lat="50.56468" lon="4.0747">
        <ele>92.9</ele>
        <time>2013-05-05T07:19:08Z</time>
      </trkpt>
      <trkpt lat="50.56468" lon="4.07472">
        <ele>92.9</ele>
        <time>2013-05-05T07:19:09Z</time>
      </trkpt>
      <trkpt lat="50.56467" lon="4.07473">
        <ele>92.9</ele>
        <time>2013-05-05T07:19:10Z</time>
      </trkpt>
      <trkpt lat="50.56468" lon="4.07477">
        <ele>92.9</ele>
        <time>2013-05-05T07:19:25Z</time>
      </trkpt>
      <trkpt lat="50.56462" lon="4.07492">
        <ele>92.42</ele>
        <time>2013-05-05T07:19:44Z</time>
      </trkpt>
      <trkpt lat="50.56432" lon="4.0757">
        <ele>91.94</ele>
        <time>2013-05-05T07:19:58Z</time>
      </trkpt>
      <trkpt lat="50.5642" lon="4.07605">
        <ele>91.94</ele>
        <time>2013-05-05T07:20:03Z</time>
      </trkpt>
      <trkpt lat="50.56419" lon="4.07613">
        <ele>91.94</ele>
        <time>2013-05-05T07:20:04Z</time>
      </trkpt>
      <trkpt lat="50.5642" lon="4.0762">
        <ele>91.94</ele>
        <time>2013-05-05T07:20:05Z</time>
      </trkpt>
      <trkpt lat="50.56422" lon="4.07627">
        <ele>91.46</ele>
        <time>2013-05-05T07:20:06Z</time>
      </trkpt>
      <trkpt lat="50.56425" lon="4.07633">
        <ele>90.98</ele>
        <time>2013-05-05T07:20:07Z</time>
      </trkpt>
      <trkpt lat="50.56428" lon="4.07638">
        <ele>91.46</ele>
        <time>2013-05-05T07:20:08Z</time>
      </trkpt>
      <trkpt lat="50.56432" lon="4.07643">
        <ele>91.46</ele>
        <time>2013-05-05T07:20:09Z</time>
      </trkpt>
      <trkpt lat="50.56435" lon="4.07648">
        <ele>90.98</ele>
        <time>2013-05-05T07:20:10Z</time>
      </trkpt>
      <trkpt lat="50.56439" lon="4.07653">
        <ele>90.98</ele>
        <time>2013-05-05T07:20:11Z</time>
      </trkpt>
      <trkpt lat="50.56442" lon="4.0766">
        <ele>90.98</ele>
        <time>2013-05-05T07:20:12Z</time>
      </trkpt>
      <trkpt lat="50.56444" lon="4.07667">
        <ele>90.98</ele>
        <time>2013-05-05T07:20:13Z</time>
      </trkpt>
      <trkpt lat="50.56442" lon="4.07675">
        <ele>90.98</ele>
        <time>2013-05-05T07:20:14Z</time>
      </trkpt>
      <trkpt lat="50.5644" lon="4.0768">
        <ele>90.98</ele>
        <time>2013-05-05T07:20:15Z</time>
      </trkpt>
      <trkpt lat="50.56436" lon="4.07683">
        <ele>90.5</ele>
        <time>2013-05-05T07:20:16Z</time>
      </trkpt>
      <trkpt lat="50.5643" lon="4.07683">
        <ele>90.5</ele>
        <time>2013-05-05T07:20:17Z</time>
      </trkpt>
      <trkpt lat="50.56424" lon="4.07683">
        <ele>90.5</ele>
        <time>2013-05-05T07:20:18Z</time>
      </trkpt>
      <trkpt lat="50.56419" lon="4.07685">
        <ele>90.5</ele>
        <time>2013-05-05T07:20:19Z</time>
      </trkpt>
      <trkpt lat="50.56415" lon="4.07687">
        <ele>90.5</ele>
        <time>2013-05-05T07:20:20Z</time>
      </trkpt>
      <trkpt lat="50.5641" lon="4.0769">
        <ele>90.5</ele>
        <time>2013-05-05T07:20:21Z</time>
      </trkpt>
      <trkpt lat="50.56405" lon="4.07694">
        <ele>90.02</ele>
        <time>2013-05-05T07:20:22Z</time>
      </trkpt>
      <trkpt lat="50.564" lon="4.07698">
        <ele>90.5</ele>
        <time>2013-05-05T07:20:23Z</time>
      </trkpt>
      <trkpt lat="50.56334" lon="4.07792">
        <ele>90.5</ele>
        <time>2013-05-05T07:20:40Z</time>
      </trkpt>
      <trkpt lat="50.56331" lon="4.07798">
        <ele>90.5</ele>
        <time>2013-05-05T07:20:41Z</time>
      </trkpt>
      <trkpt lat="50.56329" lon="4.07804">
        <ele>90.5</ele>
        <time>2013-05-05T07:20:42Z</time>
      </trkpt>
      <trkpt lat="50.56329" lon="4.07811">
        <ele>90.5</ele>
        <time>2013-05-05T07:20:43Z</time>
      </trkpt>
      <trkpt lat="50.56347" lon="4.07814">
        <ele>91.46</ele>
        <time>2013-05-05T07:20:48Z</time>
      </trkpt>
      <trkpt lat="50.56374" lon="4.07812">
        <ele>90.02</ele>
        <time>2013-05-05T07:20:55Z</time>
      </trkpt>
      <trkpt lat="50.564" lon="4.07852">
        <ele>90.02</ele>
        <time>2013-05-05T07:21:03Z</time>
      </trkpt>
      <trkpt lat="50.56391" lon="4.07871">
        <ele>90.5</ele>
        <time>2013-05-05T07:21:09Z</time>
      </trkpt>
      <trkpt lat="50.56369" lon="4.07885">
        <ele>90.5</ele>
        <time>2013-05-05T07:21:15Z</time>
      </trkpt>
      <trkpt lat="50.56363" lon="4.07912">
        <ele>90.5</ele>
        <time>2013-05-05T07:21:19Z</time>
      </trkpt>
      <trkpt lat="50.56342" lon="4.08045">
        <ele>90.5</ele>
        <time>2013-05-05T07:21:37Z</time>
      </trkpt>
      <trkpt lat="50.56336" lon="4.08074">
        <ele>90.98</ele>
        <time>2013-05-05T07:21:41Z</time>
      </trkpt>
      <trkpt lat="50.56354" lon="4.08127">
        <ele>90.02</ele>
        <time>2013-05-05T07:21:50Z</time>
      </trkpt>
      <trkpt lat="50.56366" lon="4.08134">
        <ele>90.98</ele>
        <time>2013-05-05T07:21:53Z</time>
      </trkpt>
      <trkpt lat="50.56392" lon="4.0814">
        <ele>90.5</ele>
        <time>2013-05-05T07:21:59Z</time>
      </trkpt>
      <trkpt lat="50.56447" lon="4.08116">
        <ele>90.98</ele>
        <time>2013-05-05T07:22:14Z</time>
      </trkpt>
      <trkpt lat="50.56453" lon="4.08093">
        <ele>91.46</ele>
        <time>2013-05-05T07:22:18Z</time>
      </trkpt>
      <trkpt lat="50.56458" lon="4.0806">
        <ele>90.5</ele>
        <time>2013-05-05T07:22:23Z</time>
      </trkpt>
      <trkpt lat="50.5647" lon="4.07974">
        <ele>90.98</ele>
        <time>2013-05-05T07:22:36Z</time>
      </trkpt>
      <trkpt lat="50.56473" lon="4.07962">
        <ele>90.5</ele>
        <time>2013-05-05T07:22:38Z</time>
      </trkpt>
      <trkpt lat="50.56487" lon="4.07935">
        <ele>90.98</ele>
        <time>2013-05-05T07:22:43Z</time>
      </trkpt>
      <trkpt lat="50.56498" lon="4.07914">
        <ele>90.98</ele>
        <time>2013-05-05T07:22:47Z</time>
      </trkpt>
      <trkpt lat="50.56509" lon="4.07894">
        <ele>90.5</ele>
        <time>2013-05-05T07:22:51Z</time>
      </trkpt>
      <trkpt lat="50.56544" lon="4.07865">
        <ele>90.5</ele>
        <time>2013-05-05T07:23:00Z</time>
      </trkpt>
      <trkpt lat="50.5657" lon="4.07838">
        <ele>90.98</ele>
        <time>2013-05-05T07:23:07Z</time>
      </trkpt>
      <trkpt lat="50.56612" lon="4.07827">
        <ele>89.06</ele>
        <time>2013-05-05T07:23:16Z</time>
      </trkpt>
      <trkpt lat="50.56639" lon="4.07868">
        <ele>83.77</ele>
        <time>2013-05-05T07:23:21Z</time>
      </trkpt>
      <trkpt lat="50.56644" lon="4.07888">
        <ele>82.81</ele>
        <time>2013-05-05T07:23:23Z</time>
      </trkpt>
      <trkpt lat="50.56642" lon="4.07913">
        <ele>81.85</ele>
        <time>2013-05-05T07:23:25Z</time>
      </trkpt>
      <trkpt lat="50.56637" lon="4.07994">
        <ele>82.81</ele>
        <time>2013-05-05T07:23:35Z</time>
      </trkpt>
      <trkpt lat="50.56639" lon="4.08008">
        <ele>84.73</ele>
        <time>2013-05-05T07:23:39Z</time>
      </trkpt>
      <trkpt lat="50.56642" lon="4.0802">
        <ele>87.14</ele>
        <time>2013-05-05T07:23:43Z</time>
      </trkpt>
      <trkpt lat="50.56644" lon="4.08041">
        <ele>89.54</ele>
        <time>2013-05-05T07:23:49Z</time>
      </trkpt>
      <trkpt lat="50.56645" lon="4.08044">
        <ele>90.02</ele>
        <time>2013-05-05T07:23:50Z</time>
      </trkpt>
      <trkpt lat="50.56629" lon="4.0812">
        <ele>89.54</ele>
        <time>2013-05-05T07:24:03Z</time>
      </trkpt>
      <trkpt lat="50.56638" lon="4.0816">
        <ele>89.06</ele>
        <time>2013-05-05T07:24:10Z</time>
      </trkpt>
      <trkpt lat="50.56669" lon="4.0823">
        <ele>90.5</ele>
        <time>2013-05-05T07:24:26Z</time>
      </trkpt>
      <trkpt lat="50.56663" lon="4.08265">
        <ele>90.02</ele>
        <time>2013-05-05T07:24:33Z</time>
      </trkpt>
      <trkpt lat="50.56645" lon="4.08263">
        <ele>87.62</ele>
        <time>2013-05-05T07:24:38Z</time>
      </trkpt>
      <trkpt lat="50.56639" lon="4.08249">
        <ele>86.66</ele>
        <time>2013-05-05T07:24:40Z</time>
      </trkpt>
      <trkpt lat="50.56627" lon="4.08214">
        <ele>82.33</ele>
        <time>2013-05-05T07:24:44Z</time>
      </trkpt>
      <trkpt lat="50.56624" lon="4.08204">
        <ele>81.37</ele>
        <time>2013-05-05T07:24:45Z</time>
      </trkpt>
      <trkpt lat="50.56611" lon="4.08173">
        <ele>76.08</ele>
        <time>2013-05-05T07:24:49Z</time>
      </trkpt>
      <trkpt lat="50.56601" lon="4.08162">
        <ele>73.2</ele>
        <time>2013-05-05T07:24:52Z</time>
      </trkpt>
      <trkpt lat="50.56592" lon="4.08166">
        <ele>71.27</ele>
        <time>2013-05-05T07:24:55Z</time>
      </trkpt>
      <trkpt lat="50.56593" lon="4.08185">
        <ele>71.27</ele>
        <time>2013-05-05T07:24:58Z</time>
      </trkpt>
      <trkpt lat="50.56603" lon="4.08219">
        <ele>70.79</ele>
        <time>2013-05-05T07:25:03Z</time>
      </trkpt>
      <trkpt lat="50.5661" lon="4.08307">
        <ele>69.35</ele>
        <time>2013-05-05T07:25:14Z</time>
      </trkpt>
      <trkpt lat="50.56606" lon="4.08343">
        <ele>67.91</ele>
        <time>2013-05-05T07:25:18Z</time>
      </trkpt>
      <trkpt lat="50.56594" lon="4.08374">
        <ele>62.62</ele>
        <time>2013-05-05T07:25:22Z</time>
      </trkpt>
      <trkpt lat="50.56577" lon="4.08383">
        <ele>58.78</ele>
        <time>2013-05-05T07:25:25Z</time>
      </trkpt>
      <trkpt lat="50.56564" lon="4.08383">
        <ele>56.37</ele>
        <time>2013-05-05T07:25:27Z</time>
      </trkpt>
      <trkpt lat="50.5654" lon="4.0838">
        <ele>51.57</ele>
        <time>2013-05-05T07:25:31Z</time>
      </trkpt>
      <trkpt lat="50.56528" lon="4.0837">
        <ele>49.16</ele>
        <time>2013-05-05T07:25:34Z</time>
      </trkpt>
      <trkpt lat="50.56524" lon="4.08359">
        <ele>47.72</ele>
        <time>2013-05-05T07:25:36Z</time>
      </trkpt>
      <trkpt lat="50.56508" lon="4.08338">
        <ele>44.36</ele>
        <time>2013-05-05T07:25:40Z</time>
      </trkpt>
      <trkpt lat="50.56493" lon="4.08317">
        <ele>40.03</ele>
        <time>2013-05-05T07:25:43Z</time>
      </trkpt>
      <trkpt lat="50.56489" lon="4.08309">
        <ele>38.11</ele>
        <time>2013-05-05T07:25:44Z</time>
      </trkpt>
      <trkpt lat="50.56462" lon="4.08292">
        <ele>35.71</ele>
        <time>2013-05-05T07:25:50Z</time>
      </trkpt>
      <trkpt lat="50.56456" lon="4.08297">
        <ele>37.15</ele>
        <time>2013-05-05T07:25:52Z</time>
      </trkpt>
      <trkpt lat="50.56449" lon="4.08308">
        <ele>33.78</ele>
        <time>2013-05-05T07:25:55Z</time>
      </trkpt>
      <trkpt lat="50.56447" lon="4.08313">
        <ele>34.26</ele>
        <time>2013-05-05T07:25:56Z</time>
      </trkpt>
      <trkpt lat="50.56444" lon="4.08324">
        <ele>33.78</ele>
        <time>2013-05-05T07:26:00Z</time>
      </trkpt>
      <trkpt lat="50.56444" lon="4.08347">
        <ele>33.3</ele>
        <time>2013-05-05T07:26:09Z</time>
      </trkpt>
      <trkpt lat="50.56452" lon="4.08387">
        <ele>35.71</ele>
        <time>2013-05-05T07:26:23Z</time>
      </trkpt>
      <trkpt lat="50.56464" lon="4.08403">
        <ele>39.07</ele>
        <time>2013-05-05T07:26:33Z</time>
      </trkpt>
      <trkpt lat="50.56465" lon="4.08403">
        <ele>39.07</ele>
        <time>2013-05-05T07:26:34Z</time>
      </trkpt>
      <trkpt lat="50.56477" lon="4.08402">
        <ele>41.95</ele>
        <time>2013-05-05T07:26:42Z</time>
      </trkpt>
      <trkpt lat="50.56489" lon="4.08396">
        <ele>44.36</ele>
        <time>2013-05-05T07:26:51Z</time>
      </trkpt>
      <trkpt lat="50.56494" lon="4.08396">
        <ele>45.8</ele>
        <time>2013-05-05T07:26:54Z</time>
      </trkpt>
      <trkpt lat="50.56489" lon="4.08415">
        <ele>47.72</ele>
        <time>2013-05-05T07:27:04Z</time>
      </trkpt>
      <trkpt lat="50.56484" lon="4.08422">
        <ele>49.16</ele>
        <time>2013-05-05T07:27:08Z</time>
      </trkpt>
      <trkpt lat="50.56469" lon="4.08446">
        <ele>52.53</ele>
        <time>2013-05-05T07:27:22Z</time>
      </trkpt>
      <trkpt lat="50.56464" lon="4.08453">
        <ele>54.45</ele>
        <time>2013-05-05T07:27:28Z</time>
      </trkpt>
      <trkpt lat="50.56458" lon="4.08461">
        <ele>53.49</ele>
        <time>2013-05-05T07:27:33Z</time>
      </trkpt>
      <trkpt lat="50.56457" lon="4.08474">
        <ele>53.49</ele>
        <time>2013-05-05T07:27:39Z</time>
      </trkpt>
      <trkpt lat="50.56463" lon="4.08491">
        <ele>56.86</ele>
        <time>2013-05-05T07:27:49Z</time>
      </trkpt>
      <trkpt lat="50.56474" lon="4.08529">
        <ele>59.26</ele>
        <time>2013-05-05T07:28:06Z</time>
      </trkpt>
      <trkpt lat="50.56485" lon="4.0856">
        <ele>61.66</ele>
        <time>2013-05-05T07:28:22Z</time>
      </trkpt>
      <trkpt lat="50.5649" lon="4.08578">
        <ele>64.55</ele>
        <time>2013-05-05T07:28:31Z</time>
      </trkpt>
      <trkpt lat="50.56492" lon="4.08594">
        <ele>67.43</ele>
        <time>2013-05-05T07:28:39Z</time>
      </trkpt>
      <trkpt lat="50.56498" lon="4.08614">
        <ele>71.27</ele>
        <time>2013-05-05T07:28:50Z</time>
      </trkpt>
      <trkpt lat="50.565" lon="4.08643">
        <ele>73.68</ele>
        <time>2013-05-05T07:29:04Z</time>
      </trkpt>
      <trkpt lat="50.56499" lon="4.08647">
        <ele>73.68</ele>
        <time>2013-05-05T07:29:17Z</time>
      </trkpt>
      <trkpt lat="50.565" lon="4.08645">
        <ele>73.68</ele>
        <time>2013-05-05T07:29:48Z</time>
      </trkpt>
      <trkpt lat="50.565" lon="4.08645">
        <ele>73.68</ele>
        <time>2013-05-05T07:29:52Z</time>
      </trkpt>
      <trkpt lat="50.56497" lon="4.08657">
        <ele>73.68</ele>
        <time>2013-05-05T07:29:57Z</time>
      </trkpt>
      <trkpt lat="50.56484" lon="4.08696">
        <ele>75.12</ele>
        <time>2013-05-05T07:30:12Z</time>
      </trkpt>
      <trkpt lat="50.56464" lon="4.08718">
        <ele>78</ele>
        <time>2013-05-05T07:30:26Z</time>
      </trkpt>
      <trkpt lat="50.56451" lon="4.08734">
        <ele>80.89</ele>
        <time>2013-05-05T07:30:36Z</time>
      </trkpt>
      <trkpt lat="50.56435" lon="4.08753">
        <ele>84.25</ele>
        <time>2013-05-05T07:30:49Z</time>
      </trkpt>
      <trkpt lat="50.56434" lon="4.08754">
        <ele>84.25</ele>
        <time>2013-05-05T07:30:50Z</time>
      </trkpt>
      <trkpt lat="50.56425" lon="4.08765">
        <ele>86.66</ele>
        <time>2013-05-05T07:30:58Z</time>
      </trkpt>
      <trkpt lat="50.56416" lon="4.08761">
        <ele>88.1</ele>
        <time>2013-05-05T07:31:05Z</time>
      </trkpt>
      <trkpt lat="50.56412" lon="4.08745">
        <ele>87.14</ele>
        <time>2013-05-05T07:31:09Z</time>
      </trkpt>
      <trkpt lat="50.56408" lon="4.08684">
        <ele>82.81</ele>
        <time>2013-05-05T07:31:14Z</time>
      </trkpt>
      <trkpt lat="50.56406" lon="4.08634">
        <ele>78.97</ele>
        <time>2013-05-05T07:31:17Z</time>
      </trkpt>
      <trkpt lat="50.56396" lon="4.08521">
        <ele>78.48</ele>
        <time>2013-05-05T07:31:26Z</time>
      </trkpt>
      <trkpt lat="50.56388" lon="4.08484">
        <ele>80.41</ele>
        <time>2013-05-05T07:31:36Z</time>
      </trkpt>
      <trkpt lat="50.56386" lon="4.08467">
        <ele>80.89</ele>
        <time>2013-05-05T07:31:41Z</time>
      </trkpt>
      <trkpt lat="50.56384" lon="4.08398">
        <ele>79.93</ele>
        <time>2013-05-05T07:31:55Z</time>
      </trkpt>
      <trkpt lat="50.56381" lon="4.08353">
        <ele>78.48</ele>
        <time>2013-05-05T07:32:02Z</time>
      </trkpt>
      <trkpt lat="50.56367" lon="4.08317">
        <ele>76.08</ele>
        <time>2013-05-05T07:32:06Z</time>
      </trkpt>
      <trkpt lat="50.56345" lon="4.08283">
        <ele>76.08</ele>
        <time>2013-05-05T07:32:11Z</time>
      </trkpt>
      <trkpt lat="50.5633" lon="4.08247">
        <ele>77.04</ele>
        <time>2013-05-05T07:32:21Z</time>
      </trkpt>
      <trkpt lat="50.56325" lon="4.08211">
        <ele>79.93</ele>
        <time>2013-05-05T07:32:33Z</time>
      </trkpt>
      <trkpt lat="50.56325" lon="4.08208">
        <ele>79.93</ele>
        <time>2013-05-05T07:32:34Z</time>
      </trkpt>
      <trkpt lat="50.56329" lon="4.08179">
        <ele>83.77</ele>
        <time>2013-05-05T07:32:45Z</time>
      </trkpt>
      <trkpt lat="50.56335" lon="4.08149">
        <ele>86.66</ele>
        <time>2013-05-05T07:32:58Z</time>
      </trkpt>
      <trkpt lat="50.56341" lon="4.08119">
        <ele>90.02</ele>
        <time>2013-05-05T07:33:12Z</time>
      </trkpt>
      <trkpt lat="50.56342" lon="4.08116">
        <ele>89.54</ele>
        <time>2013-05-05T07:33:14Z</time>
      </trkpt>
      <trkpt lat="50.56331" lon="4.08126">
        <ele>90.98</ele>
        <time>2013-05-05T07:33:23Z</time>
      </trkpt>
      <trkpt lat="50.56311" lon="4.08171">
        <ele>90.98</ele>
        <time>2013-05-05T07:33:41Z</time>
      </trkpt>
      <trkpt lat="50.5629" lon="4.08226">
        <ele>91.46</ele>
        <time>2013-05-05T07:33:58Z</time>
      </trkpt>
      <trkpt lat="50.56277" lon="4.08262">
        <ele>91.46</ele>
        <time>2013-05-05T07:34:08Z</time>
      </trkpt>
      <trkpt lat="50.56282" lon="4.08306">
        <ele>91.46</ele>
        <time>2013-05-05T07:34:21Z</time>
      </trkpt>
      <trkpt lat="50.56309" lon="4.08336">
        <ele>92.42</ele>
        <time>2013-05-05T07:34:34Z</time>
      </trkpt>
      <trkpt lat="50.56314" lon="4.0834">
        <ele>91.94</ele>
        <time>2013-05-05T07:34:36Z</time>
      </trkpt>
      <trkpt lat="50.56342" lon="4.08367">
        <ele>91.94</ele>
        <time>2013-05-05T07:34:50Z</time>
      </trkpt>
      <trkpt lat="50.56346" lon="4.08371">
        <ele>92.42</ele>
        <time>2013-05-05T07:34:55Z</time>
      </trkpt>
      <trkpt lat="50.56348" lon="4.08383">
        <ele>92.9</ele>
        <time>2013-05-05T07:34:59Z</time>
      </trkpt>
      <trkpt lat="50.56348" lon="4.08387">
        <ele>92.42</ele>
        <time>2013-05-05T07:35:00Z</time>
      </trkpt>
      <trkpt lat="50.56349" lon="4.08391">
        <ele>92.9</ele>
        <time>2013-05-05T07:35:01Z</time>
      </trkpt>
      <trkpt lat="50.56349" lon="4.08394">
        <ele>92.9</ele>
        <time>2013-05-05T07:35:02Z</time>
      </trkpt>
      <trkpt lat="50.5635" lon="4.08398">
        <ele>92.42</ele>
        <time>2013-05-05T07:35:03Z</time>
      </trkpt>
      <trkpt lat="50.56351" lon="4.08402">
        <ele>92.42</ele>
        <time>2013-05-05T07:35:04Z</time>
      </trkpt>
      <trkpt lat="50.56358" lon="4.08472">
        <ele>93.39</ele>
        <time>2013-05-05T07:35:16Z</time>
      </trkpt>
      <trkpt lat="50.56363" lon="4.08546">
        <ele>93.87</ele>
        <time>2013-05-05T07:35:29Z</time>
      </trkpt>
      <trkpt lat="50.56368" lon="4.08615">
        <ele>94.83</ele>
        <time>2013-05-05T07:35:40Z</time>
      </trkpt>
      <trkpt lat="50.56374" lon="4.08703">
        <ele>94.83</ele>
        <time>2013-05-05T07:35:53Z</time>
      </trkpt>
      <trkpt lat="50.56379" lon="4.08785">
        <ele>95.79</ele>
        <time>2013-05-05T07:36:06Z</time>
      </trkpt>
      <trkpt lat="50.56384" lon="4.0886">
        <ele>96.27</ele>
        <time>2013-05-05T07:36:19Z</time>
      </trkpt>
      <trkpt lat="50.5639" lon="4.08881">
        <ele>96.27</ele>
        <time>2013-05-05T07:36:23Z</time>
      </trkpt>
      <trkpt lat="50.56394" lon="4.08884">
        <ele>95.79</ele>
        <time>2013-05-05T07:36:25Z</time>
      </trkpt>
      <trkpt lat="50.56396" lon="4.08883">
        <ele>95.79</ele>
        <time>2013-05-05T07:36:26Z</time>
      </trkpt>
      <trkpt lat="50.56398" lon="4.08881">
        <ele>95.79</ele>
        <time>2013-05-05T07:36:27Z</time>
      </trkpt>
      <trkpt lat="50.56401" lon="4.08877">
        <ele>95.79</ele>
        <time>2013-05-05T07:36:28Z</time>
      </trkpt>
      <trkpt lat="50.56404" lon="4.08874">
        <ele>95.79</ele>
        <time>2013-05-05T07:36:29Z</time>
      </trkpt>
      <trkpt lat="50.56429" lon="4.08838">
        <ele>95.79</ele>
        <time>2013-05-05T07:36:37Z</time>
      </trkpt>
      <trkpt lat="50.56489" lon="4.08759">
        <ele>95.31</ele>
        <time>2013-05-05T07:36:54Z</time>
      </trkpt>
      <trkpt lat="50.56523" lon="4.08717">
        <ele>95.31</ele>
        <time>2013-05-05T07:37:03Z</time>
      </trkpt>
      <trkpt lat="50.56532" lon="4.08709">
        <ele>94.83</ele>
        <time>2013-05-05T07:37:05Z</time>
      </trkpt>
      <trkpt lat="50.56583" lon="4.08636">
        <ele>94.35</ele>
        <time>2013-05-05T07:37:20Z</time>
      </trkpt>
      <trkpt lat="50.56613" lon="4.08594">
        <ele>93.39</ele>
        <time>2013-05-05T07:37:31Z</time>
      </trkpt>
      <trkpt lat="50.56615" lon="4.08592">
        <ele>93.39</ele>
        <time>2013-05-05T07:37:32Z</time>
      </trkpt>
      <trkpt lat="50.56619" lon="4.08595">
        <ele>93.87</ele>
        <time>2013-05-05T07:37:34Z</time>
      </trkpt>
      <trkpt lat="50.56619" lon="4.08598">
        <ele>93.39</ele>
        <time>2013-05-05T07:37:35Z</time>
      </trkpt>
      <trkpt lat="50.56619" lon="4.08602">
        <ele>93.87</ele>
        <time>2013-05-05T07:37:36Z</time>
      </trkpt>
      <trkpt lat="50.56619" lon="4.08606">
        <ele>93.87</ele>
        <time>2013-05-05T07:37:37Z</time>
      </trkpt>
      <trkpt lat="50.56619" lon="4.0861">
        <ele>93.87</ele>
        <time>2013-05-05T07:37:38Z</time>
      </trkpt>
      <trkpt lat="50.56619" lon="4.08615">
        <ele>93.87</ele>
        <time>2013-05-05T07:37:39Z</time>
      </trkpt>
      <trkpt lat="50.56619" lon="4.08621">
        <ele>93.87</ele>
        <time>2013-05-05T07:37:40Z</time>
      </trkpt>
      <trkpt lat="50.56623" lon="4.0868">
        <ele>94.35</ele>
        <time>2013-05-05T07:37:50Z</time>
      </trkpt>
      <trkpt lat="50.56638" lon="4.08703">
        <ele>93.87</ele>
        <time>2013-05-05T07:37:55Z</time>
      </trkpt>
      <trkpt lat="50.56647" lon="4.08709">
        <ele>93.87</ele>
        <time>2013-05-05T07:37:57Z</time>
      </trkpt>
      <trkpt lat="50.56656" lon="4.08715">
        <ele>94.35</ele>
        <time>2013-05-05T07:37:59Z</time>
      </trkpt>
      <trkpt lat="50.56699" lon="4.08751">
        <ele>93.87</ele>
        <time>2013-05-05T07:38:08Z</time>
      </trkpt>
      <trkpt lat="50.5676" lon="4.08847">
        <ele>92.9</ele>
        <time>2013-05-05T07:38:24Z</time>
      </trkpt>
      <trkpt lat="50.5678" lon="4.08882">
        <ele>93.87</ele>
        <time>2013-05-05T07:38:31Z</time>
      </trkpt>
      <trkpt lat="50.56779" lon="4.08886">
        <ele>93.87</ele>
        <time>2013-05-05T07:38:32Z</time>
      </trkpt>
      <trkpt lat="50.56776" lon="4.0889">
        <ele>94.83</ele>
        <time>2013-05-05T07:38:33Z</time>
      </trkpt>
      <trkpt lat="50.56774" lon="4.08893">
        <ele>94.83</ele>
        <time>2013-05-05T07:38:34Z</time>
      </trkpt>
      <trkpt lat="50.56771" lon="4.08897">
        <ele>94.83</ele>
        <time>2013-05-05T07:38:35Z</time>
      </trkpt>
      <trkpt lat="50.56768" lon="4.08902">
        <ele>94.35</ele>
        <time>2013-05-05T07:38:36Z</time>
      </trkpt>
      <trkpt lat="50.56718" lon="4.08977">
        <ele>95.31</ele>
        <time>2013-05-05T07:38:50Z</time>
      </trkpt>
      <trkpt lat="50.56657" lon="4.0907">
        <ele>94.83</ele>
        <time>2013-05-05T07:39:06Z</time>
      </trkpt>
      <trkpt lat="50.56633" lon="4.09108">
        <ele>95.79</ele>
        <time>2013-05-05T07:39:13Z</time>
      </trkpt>
      <trkpt lat="50.5663" lon="4.09113">
        <ele>95.31</ele>
        <time>2013-05-05T07:39:14Z</time>
      </trkpt>
      <trkpt lat="50.56606" lon="4.09154">
        <ele>95.31</ele>
        <time>2013-05-05T07:39:22Z</time>
      </trkpt>
      <trkpt lat="50.56606" lon="4.09158">
        <ele>95.79</ele>
        <time>2013-05-05T07:39:23Z</time>
      </trkpt>
      <trkpt lat="50.56608" lon="4.09164">
        <ele>96.27</ele>
        <time>2013-05-05T07:39:25Z</time>
      </trkpt>
      <trkpt lat="50.5661" lon="4.09166">
        <ele>96.27</ele>
        <time>2013-05-05T07:39:27Z</time>
      </trkpt>
      <trkpt lat="50.56613" lon="4.09166">
        <ele>96.27</ele>
        <time>2013-05-05T07:39:28Z</time>
      </trkpt>
      <trkpt lat="50.56617" lon="4.09164">
        <ele>96.27</ele>
        <time>2013-05-05T07:39:29Z</time>
      </trkpt>
      <trkpt lat="50.5662" lon="4.09164">
        <ele>96.27</ele>
        <time>2013-05-05T07:39:30Z</time>
      </trkpt>
      <trkpt lat="50.56624" lon="4.09164">
        <ele>96.27</ele>
        <time>2013-05-05T07:39:31Z</time>
      </trkpt>
      <trkpt lat="50.56632" lon="4.09168">
        <ele>96.27</ele>
        <time>2013-05-05T07:39:33Z</time>
      </trkpt>
      <trkpt lat="50.56655" lon="4.09163">
        <ele>95.79</ele>
        <time>2013-05-05T07:39:42Z</time>
      </trkpt>
      <trkpt lat="50.56644" lon="4.09174">
        <ele>95.79</ele>
        <time>2013-05-05T07:39:51Z</time>
      </trkpt>
      <trkpt lat="50.56629" lon="4.09176">
        <ele>96.75</ele>
        <time>2013-05-05T07:39:55Z</time>
      </trkpt>
      <trkpt lat="50.56619" lon="4.09172">
        <ele>96.27</ele>
        <time>2013-05-05T07:39:58Z</time>
      </trkpt>
      <trkpt lat="50.56617" lon="4.09174">
        <ele>96.27</ele>
        <time>2013-05-05T07:40:00Z</time>
      </trkpt>
      <trkpt lat="50.56619" lon="4.09189">
        <ele>96.75</ele>
        <time>2013-05-05T07:40:05Z</time>
      </trkpt>
      <trkpt lat="50.56612" lon="4.09207">
        <ele>96.75</ele>
        <time>2013-05-05T07:40:09Z</time>
      </trkpt>
      <trkpt lat="50.56599" lon="4.09245">
        <ele>97.23</ele>
        <time>2013-05-05T07:40:16Z</time>
      </trkpt>
      <trkpt lat="50.56608" lon="4.09269">
        <ele>97.23</ele>
        <time>2013-05-05T07:40:20Z</time>
      </trkpt>
      <trkpt lat="50.56615" lon="4.09279">
        <ele>97.71</ele>
        <time>2013-05-05T07:40:22Z</time>
      </trkpt>
      <trkpt lat="50.56645" lon="4.09331">
        <ele>97.71</ele>
        <time>2013-05-05T07:40:31Z</time>
      </trkpt>
      <trkpt lat="50.5666" lon="4.09366">
        <ele>97.71</ele>
        <time>2013-05-05T07:40:37Z</time>
      </trkpt>
      <trkpt lat="50.5667" lon="4.09412">
        <ele>98.67</ele>
        <time>2013-05-05T07:40:44Z</time>
      </trkpt>
      <trkpt lat="50.56719" lon="4.09486">
        <ele>98.67</ele>
        <time>2013-05-05T07:40:58Z</time>
      </trkpt>
      <trkpt lat="50.56743" lon="4.09486">
        <ele>98.67</ele>
        <time>2013-05-05T07:41:06Z</time>
      </trkpt>
      <trkpt lat="50.56743" lon="4.09483">
        <ele>98.67</ele>
        <time>2013-05-05T07:41:07Z</time>
      </trkpt>
      <trkpt lat="50.56739" lon="4.09458">
        <ele>97.71</ele>
        <time>2013-05-05T07:41:12Z</time>
      </trkpt>
      <trkpt lat="50.56729" lon="4.09409">
        <ele>97.23</ele>
        <time>2013-05-05T07:41:21Z</time>
      </trkpt>
      <trkpt lat="50.56703" lon="4.09371">
        <ele>97.71</ele>
        <time>2013-05-05T07:41:28Z</time>
      </trkpt>
      <trkpt lat="50.56698" lon="4.09325">
        <ele>97.23</ele>
        <time>2013-05-05T07:41:34Z</time>
      </trkpt>
      <trkpt lat="50.56708" lon="4.09297">
        <ele>97.23</ele>
        <time>2013-05-05T07:41:38Z</time>
      </trkpt>
      <trkpt lat="50.56718" lon="4.09235">
        <ele>96.75</ele>
        <time>2013-05-05T07:41:46Z</time>
      </trkpt>
      <trkpt lat="50.56728" lon="4.092">
        <ele>95.79</ele>
        <time>2013-05-05T07:41:51Z</time>
      </trkpt>
      <trkpt lat="50.56738" lon="4.09132">
        <ele>96.27</ele>
        <time>2013-05-05T07:42:00Z</time>
      </trkpt>
      <trkpt lat="50.56732" lon="4.09106">
        <ele>96.75</ele>
        <time>2013-05-05T07:42:06Z</time>
      </trkpt>
      <trkpt lat="50.56725" lon="4.09105">
        <ele>97.23</ele>
        <time>2013-05-05T07:42:08Z</time>
      </trkpt>
      <trkpt lat="50.56718" lon="4.09111">
        <ele>99.15</ele>
        <time>2013-05-05T07:42:11Z</time>
      </trkpt>
      <trkpt lat="50.56714" lon="4.09116">
        <ele>99.63</ele>
        <time>2013-05-05T07:42:13Z</time>
      </trkpt>
      <trkpt lat="50.56707" lon="4.09126">
        <ele>101.56</ele>
        <time>2013-05-05T07:42:17Z</time>
      </trkpt>
      <trkpt lat="50.56705" lon="4.0913">
        <ele>102.52</ele>
        <time>2013-05-05T07:42:19Z</time>
      </trkpt>
      <trkpt lat="50.56697" lon="4.09142">
        <ele>104.44</ele>
        <time>2013-05-05T07:42:24Z</time>
      </trkpt>
      <trkpt lat="50.56688" lon="4.09141">
        <ele>103.96</ele>
        <time>2013-05-05T07:42:28Z</time>
      </trkpt>
      <trkpt lat="50.56683" lon="4.09136">
        <ele>103.96</ele>
        <time>2013-05-05T07:42:30Z</time>
      </trkpt>
      <trkpt lat="50.56688" lon="4.091">
        <ele>101.56</ele>
        <time>2013-05-05T07:42:35Z</time>
      </trkpt>
      <trkpt lat="50.56705" lon="4.09072">
        <ele>98.19</ele>
        <time>2013-05-05T07:42:40Z</time>
      </trkpt>
      <trkpt lat="50.56708" lon="4.0907">
        <ele>97.71</ele>
        <time>2013-05-05T07:42:41Z</time>
      </trkpt>
      <trkpt lat="50.5672" lon="4.09072">
        <ele>97.23</ele>
        <time>2013-05-05T07:42:44Z</time>
      </trkpt>
      <trkpt lat="50.56735" lon="4.09098">
        <ele>96.27</ele>
        <time>2013-05-05T07:42:54Z</time>
      </trkpt>
      <trkpt lat="50.56734" lon="4.09098">
        <ele>96.75</ele>
        <time>2013-05-05T07:43:02Z</time>
      </trkpt>
      <trkpt lat="50.56732" lon="4.09099">
        <ele>96.75</ele>
        <time>2013-05-05T07:43:08Z</time>
      </trkpt>
      <trkpt lat="50.5672" lon="4.09059">
        <ele>96.75</ele>
        <time>2013-05-05T07:43:20Z</time>
      </trkpt>
      <trkpt lat="50.56719" lon="4.09048">
        <ele>96.75</ele>
        <time>2013-05-05T07:43:22Z</time>
      </trkpt>
      <trkpt lat="50.56729" lon="4.09011">
        <ele>96.27</ele>
        <time>2013-05-05T07:43:28Z</time>
      </trkpt>
      <trkpt lat="50.56768" lon="4.08947">
        <ele>95.31</ele>
        <time>2013-05-05T07:43:43Z</time>
      </trkpt>
      <trkpt lat="50.5679" lon="4.08899">
        <ele>95.79</ele>
        <time>2013-05-05T07:43:53Z</time>
      </trkpt>
      <trkpt lat="50.56784" lon="4.08882">
        <ele>94.83</ele>
        <time>2013-05-05T07:43:57Z</time>
      </trkpt>
      <trkpt lat="50.56785" lon="4.08876">
        <ele>94.83</ele>
        <time>2013-05-05T07:43:58Z</time>
      </trkpt>
      <trkpt lat="50.56787" lon="4.08872">
        <ele>94.83</ele>
        <time>2013-05-05T07:43:59Z</time>
      </trkpt>
      <trkpt lat="50.5679" lon="4.08868">
        <ele>95.31</ele>
        <time>2013-05-05T07:44:00Z</time>
      </trkpt>
      <trkpt lat="50.56794" lon="4.08863">
        <ele>94.83</ele>
        <time>2013-05-05T07:44:01Z</time>
      </trkpt>
      <trkpt lat="50.56843" lon="4.08789">
        <ele>94.83</ele>
        <time>2013-05-05T07:44:15Z</time>
      </trkpt>
      <trkpt lat="50.56909" lon="4.08691">
        <ele>95.31</ele>
        <time>2013-05-05T07:44:31Z</time>
      </trkpt>
      <trkpt lat="50.5693" lon="4.08658">
        <ele>95.31</ele>
        <time>2013-05-05T07:44:36Z</time>
      </trkpt>
      <trkpt lat="50.56938" lon="4.08644">
        <ele>95.31</ele>
        <time>2013-05-05T07:44:38Z</time>
      </trkpt>
      <trkpt lat="50.56942" lon="4.08639">
        <ele>95.31</ele>
        <time>2013-05-05T07:44:39Z</time>
      </trkpt>
      <trkpt lat="50.56951" lon="4.08627">
        <ele>94.83</ele>
        <time>2013-05-05T07:44:41Z</time>
      </trkpt>
      <trkpt lat="50.57027" lon="4.08508">
        <ele>96.27</ele>
        <time>2013-05-05T07:45:00Z</time>
      </trkpt>
      <trkpt lat="50.57097" lon="4.08399">
        <ele>98.19</ele>
        <time>2013-05-05T07:45:19Z</time>
      </trkpt>
      <trkpt lat="50.57111" lon="4.08377">
        <ele>97.71</ele>
        <time>2013-05-05T07:45:25Z</time>
      </trkpt>
      <trkpt lat="50.57115" lon="4.08372">
        <ele>98.19</ele>
        <time>2013-05-05T07:45:26Z</time>
      </trkpt>
      <trkpt lat="50.57171" lon="4.08286">
        <ele>98.19</ele>
        <time>2013-05-05T07:45:39Z</time>
      </trkpt>
      <trkpt lat="50.57267" lon="4.08138">
        <ele>96.75</ele>
        <time>2013-05-05T07:46:00Z</time>
      </trkpt>
      <trkpt lat="50.57351" lon="4.08008">
        <ele>95.31</ele>
        <time>2013-05-05T07:46:17Z</time>
      </trkpt>
      <trkpt lat="50.57363" lon="4.07989">
        <ele>95.31</ele>
        <time>2013-05-05T07:46:20Z</time>
      </trkpt>
      <trkpt lat="50.57366" lon="4.07984">
        <ele>94.83</ele>
        <time>2013-05-05T07:46:21Z</time>
      </trkpt>
      <trkpt lat="50.57368" lon="4.0798">
        <ele>94.83</ele>
        <time>2013-05-05T07:46:22Z</time>
      </trkpt>
      <trkpt lat="50.57368" lon="4.07976">
        <ele>94.83</ele>
        <time>2013-05-05T07:46:23Z</time>
      </trkpt>
      <trkpt lat="50.57366" lon="4.07973">
        <ele>95.31</ele>
        <time>2013-05-05T07:46:24Z</time>
      </trkpt>
      <trkpt lat="50.57365" lon="4.0797">
        <ele>94.83</ele>
        <time>2013-05-05T07:46:25Z</time>
      </trkpt>
      <trkpt lat="50.57363" lon="4.07966">
        <ele>95.31</ele>
        <time>2013-05-05T07:46:26Z</time>
      </trkpt>
      <trkpt lat="50.57362" lon="4.07961">
        <ele>95.31</ele>
        <time>2013-05-05T07:46:27Z</time>
      </trkpt>
      <trkpt lat="50.57349" lon="4.07929">
        <ele>95.31</ele>
        <time>2013-05-05T07:46:32Z</time>
      </trkpt>
      <trkpt lat="50.57348" lon="4.07923">
        <ele>95.31</ele>
        <time>2013-05-05T07:46:33Z</time>
      </trkpt>
      <trkpt lat="50.57349" lon="4.07915">
        <ele>94.83</ele>
        <time>2013-05-05T07:46:34Z</time>
      </trkpt>
      <trkpt lat="50.5735" lon="4.07907">
        <ele>94.83</ele>
        <time>2013-05-05T07:46:35Z</time>
      </trkpt>
      <trkpt lat="50.57351" lon="4.07898">
        <ele>94.83</ele>
        <time>2013-05-05T07:46:36Z</time>
      </trkpt>
      <trkpt lat="50.57352" lon="4.07888">
        <ele>94.35</ele>
        <time>2013-05-05T07:46:37Z</time>
      </trkpt>
      <trkpt lat="50.57359" lon="4.0784">
        <ele>93.39</ele>
        <time>2013-05-05T07:46:42Z</time>
      </trkpt>
      <trkpt lat="50.5736" lon="4.07832">
        <ele>92.9</ele>
        <time>2013-05-05T07:46:43Z</time>
      </trkpt>
      <trkpt lat="50.57362" lon="4.07825">
        <ele>92.9</ele>
        <time>2013-05-05T07:46:44Z</time>
      </trkpt>
      <trkpt lat="50.57365" lon="4.07818">
        <ele>92.42</ele>
        <time>2013-05-05T07:46:45Z</time>
      </trkpt>
      <trkpt lat="50.57369" lon="4.07813">
        <ele>92.42</ele>
        <time>2013-05-05T07:46:46Z</time>
      </trkpt>
      <trkpt lat="50.57374" lon="4.07808">
        <ele>92.42</ele>
        <time>2013-05-05T07:46:47Z</time>
      </trkpt>
      <trkpt lat="50.57377" lon="4.078">
        <ele>92.42</ele>
        <time>2013-05-05T07:46:48Z</time>
      </trkpt>
      <trkpt lat="50.57377" lon="4.07791">
        <ele>91.94</ele>
        <time>2013-05-05T07:46:49Z</time>
      </trkpt>
      <trkpt lat="50.57375" lon="4.07782">
        <ele>91.46</ele>
        <time>2013-05-05T07:46:50Z</time>
      </trkpt>
      <trkpt lat="50.57373" lon="4.07773">
        <ele>90.98</ele>
        <time>2013-05-05T07:46:51Z</time>
      </trkpt>
      <trkpt lat="50.5737" lon="4.07764">
        <ele>91.46</ele>
        <time>2013-05-05T07:46:52Z</time>
      </trkpt>
      <trkpt lat="50.57337" lon="4.07664">
        <ele>89.06</ele>
        <time>2013-05-05T07:47:04Z</time>
      </trkpt>
      <trkpt lat="50.57339" lon="4.07659">
        <ele>88.58</ele>
        <time>2013-05-05T07:47:05Z</time>
      </trkpt>
      <trkpt lat="50.57342" lon="4.07656">
        <ele>89.06</ele>
        <time>2013-05-05T07:47:06Z</time>
      </trkpt>
      <trkpt lat="50.57346" lon="4.07652">
        <ele>89.06</ele>
        <time>2013-05-05T07:47:07Z</time>
      </trkpt>
      <trkpt lat="50.57351" lon="4.07649">
        <ele>88.58</ele>
        <time>2013-05-05T07:47:08Z</time>
      </trkpt>
      <trkpt lat="50.5744" lon="4.07586">
        <ele>86.18</ele>
        <time>2013-05-05T07:47:23Z</time>
      </trkpt>
      <trkpt lat="50.57447" lon="4.0758">
        <ele>86.18</ele>
        <time>2013-05-05T07:47:24Z</time>
      </trkpt>
      <trkpt lat="50.57467" lon="4.07562">
        <ele>85.21</ele>
        <time>2013-05-05T07:47:27Z</time>
      </trkpt>
      <trkpt lat="50.57481" lon="4.07554">
        <ele>85.21</ele>
        <time>2013-05-05T07:47:29Z</time>
      </trkpt>
      <trkpt lat="50.57489" lon="4.07552">
        <ele>84.73</ele>
        <time>2013-05-05T07:47:30Z</time>
      </trkpt>
      <trkpt lat="50.57504" lon="4.07549">
        <ele>84.25</ele>
        <time>2013-05-05T07:47:32Z</time>
      </trkpt>
      <trkpt lat="50.57558" lon="4.07547">
        <ele>81.85</ele>
        <time>2013-05-05T07:47:41Z</time>
      </trkpt>
      <trkpt lat="50.57561" lon="4.07542">
        <ele>81.85</ele>
        <time>2013-05-05T07:47:42Z</time>
      </trkpt>
      <trkpt lat="50.57563" lon="4.07535">
        <ele>81.37</ele>
        <time>2013-05-05T07:47:43Z</time>
      </trkpt>
      <trkpt lat="50.57565" lon="4.07527">
        <ele>81.85</ele>
        <time>2013-05-05T07:47:44Z</time>
      </trkpt>
      <trkpt lat="50.57567" lon="4.07518">
        <ele>81.37</ele>
        <time>2013-05-05T07:47:45Z</time>
      </trkpt>
      <trkpt lat="50.57601" lon="4.07381">
        <ele>80.41</ele>
        <time>2013-05-05T07:47:59Z</time>
      </trkpt>
      <trkpt lat="50.57605" lon="4.07373">
        <ele>80.89</ele>
        <time>2013-05-05T07:48:00Z</time>
      </trkpt>
      <trkpt lat="50.5761" lon="4.07367">
        <ele>80.89</ele>
        <time>2013-05-05T07:48:01Z</time>
      </trkpt>
      <trkpt lat="50.57623" lon="4.07348">
        <ele>80.41</ele>
        <time>2013-05-05T07:48:04Z</time>
      </trkpt>
      <trkpt lat="50.57633" lon="4.07337">
        <ele>80.89</ele>
        <time>2013-05-05T07:48:06Z</time>
      </trkpt>
      <trkpt lat="50.57639" lon="4.07333">
        <ele>80.41</ele>
        <time>2013-05-05T07:48:07Z</time>
      </trkpt>
      <trkpt lat="50.57695" lon="4.07289">
        <ele>81.37</ele>
        <time>2013-05-05T07:48:17Z</time>
      </trkpt>
      <trkpt lat="50.577" lon="4.07283">
        <ele>80.89</ele>
        <time>2013-05-05T07:48:18Z</time>
      </trkpt>
      <trkpt lat="50.57704" lon="4.07276">
        <ele>80.89</ele>
        <time>2013-05-05T07:48:19Z</time>
      </trkpt>
      <trkpt lat="50.57745" lon="4.07199">
        <ele>80.89</ele>
        <time>2013-05-05T07:48:32Z</time>
      </trkpt>
      <trkpt lat="50.57751" lon="4.07189">
        <ele>80.89</ele>
        <time>2013-05-05T07:48:38Z</time>
      </trkpt>
      <trkpt lat="50.57752" lon="4.07185">
        <ele>80.89</ele>
        <time>2013-05-05T07:48:39Z</time>
      </trkpt>
      <trkpt lat="50.57755" lon="4.07175">
        <ele>80.89</ele>
        <time>2013-05-05T07:48:41Z</time>
      </trkpt>
      <trkpt lat="50.57758" lon="4.07172">
        <ele>80.89</ele>
        <time>2013-05-05T07:48:42Z</time>
      </trkpt>
      <trkpt lat="50.57762" lon="4.07171">
        <ele>80.89</ele>
        <time>2013-05-05T07:48:43Z</time>
      </trkpt>
      <trkpt lat="50.57827" lon="4.07145">
        <ele>81.37</ele>
        <time>2013-05-05T07:48:56Z</time>
      </trkpt>
      <trkpt lat="50.57833" lon="4.0714">
        <ele>81.85</ele>
        <time>2013-05-05T07:48:57Z</time>
      </trkpt>
      <trkpt lat="50.57853" lon="4.07115">
        <ele>81.85</ele>
        <time>2013-05-05T07:49:01Z</time>
      </trkpt>
      <trkpt lat="50.57858" lon="4.07109">
        <ele>81.85</ele>
        <time>2013-05-05T07:49:02Z</time>
      </trkpt>
      <trkpt lat="50.57863" lon="4.07104">
        <ele>82.33</ele>
        <time>2013-05-05T07:49:03Z</time>
      </trkpt>
      <trkpt lat="50.57866" lon="4.07098">
        <ele>81.85</ele>
        <time>2013-05-05T07:49:04Z</time>
      </trkpt>
      <trkpt lat="50.57868" lon="4.07093">
        <ele>81.85</ele>
        <time>2013-05-05T07:49:05Z</time>
      </trkpt>
      <trkpt lat="50.57867" lon="4.07088">
        <ele>81.37</ele>
        <time>2013-05-05T07:49:06Z</time>
      </trkpt>
      <trkpt lat="50.57864" lon="4.07083">
        <ele>81.85</ele>
        <time>2013-05-05T07:49:07Z</time>
      </trkpt>
      <trkpt lat="50.57861" lon="4.07078">
        <ele>81.37</ele>
        <time>2013-05-05T07:49:08Z</time>
      </trkpt>
      <trkpt lat="50.57857" lon="4.07072">
        <ele>81.37</ele>
        <time>2013-05-05T07:49:09Z</time>
      </trkpt>
      <trkpt lat="50.57837" lon="4.07035">
        <ele>80.89</ele>
        <time>2013-05-05T07:49:14Z</time>
      </trkpt>
      <trkpt lat="50.57829" lon="4.07">
        <ele>77.04</ele>
        <time>2013-05-05T07:49:18Z</time>
      </trkpt>
      <trkpt lat="50.57827" lon="4.06992">
        <ele>77.04</ele>
        <time>2013-05-05T07:49:19Z</time>
      </trkpt>
      <trkpt lat="50.57825" lon="4.06984">
        <ele>84.73</ele>
        <time>2013-05-05T07:49:20Z</time>
      </trkpt>
      <trkpt lat="50.57823" lon="4.06978">
        <ele>80.41</ele>
        <time>2013-05-05T07:49:21Z</time>
      </trkpt>
      <trkpt lat="50.57819" lon="4.06972">
        <ele>79.93</ele>
        <time>2013-05-05T07:49:22Z</time>
      </trkpt>
      <trkpt lat="50.57815" lon="4.06968">
        <ele>80.41</ele>
        <time>2013-05-05T07:49:23Z</time>
      </trkpt>
      <trkpt lat="50.5781" lon="4.06963">
        <ele>79.93</ele>
        <time>2013-05-05T07:49:24Z</time>
      </trkpt>
      <trkpt lat="50.57806" lon="4.06958">
        <ele>80.41</ele>
        <time>2013-05-05T07:49:25Z</time>
      </trkpt>
      <trkpt lat="50.578" lon="4.06947">
        <ele>80.89</ele>
        <time>2013-05-05T07:49:27Z</time>
      </trkpt>
      <trkpt lat="50.57799" lon="4.06941">
        <ele>80.89</ele>
        <time>2013-05-05T07:49:28Z</time>
      </trkpt>
      <trkpt lat="50.57801" lon="4.06934">
        <ele>80.89</ele>
        <time>2013-05-05T07:49:29Z</time>
      </trkpt>
      <trkpt lat="50.57805" lon="4.06928">
        <ele>80.89</ele>
        <time>2013-05-05T07:49:30Z</time>
      </trkpt>
      <trkpt lat="50.57809" lon="4.06922">
        <ele>80.41</ele>
        <time>2013-05-05T07:49:31Z</time>
      </trkpt>
      <trkpt lat="50.57812" lon="4.06916">
        <ele>80.41</ele>
        <time>2013-05-05T07:49:32Z</time>
      </trkpt>
      <trkpt lat="50.57815" lon="4.0691">
        <ele>80.41</ele>
        <time>2013-05-05T07:49:33Z</time>
      </trkpt>
      <trkpt lat="50.57822" lon="4.06898">
        <ele>79.93</ele>
        <time>2013-05-05T07:49:35Z</time>
      </trkpt>
      <trkpt lat="50.57824" lon="4.06892">
        <ele>79.93</ele>
        <time>2013-05-05T07:49:36Z</time>
      </trkpt>
      <trkpt lat="50.57825" lon="4.06885">
        <ele>79.93</ele>
        <time>2013-05-05T07:49:37Z</time>
      </trkpt>
      <trkpt lat="50.57825" lon="4.06878">
        <ele>79.93</ele>
        <time>2013-05-05T07:49:38Z</time>
      </trkpt>
      <trkpt lat="50.57825" lon="4.06872">
        <ele>79.45</ele>
        <time>2013-05-05T07:49:39Z</time>
      </trkpt>
      <trkpt lat="50.57812" lon="4.0686">
        <ele>79.45</ele>
        <time>2013-05-05T07:49:47Z</time>
      </trkpt>
      <trkpt lat="50.57812" lon="4.06851">
        <ele>79.93</ele>
        <time>2013-05-05T07:49:49Z</time>
      </trkpt>
      <trkpt lat="50.57814" lon="4.06832">
        <ele>80.41</ele>
        <time>2013-05-05T07:49:53Z</time>
      </trkpt>
      <trkpt lat="50.57811" lon="4.06817">
        <ele>80.41</ele>
        <time>2013-05-05T07:49:56Z</time>
      </trkpt>
      <trkpt lat="50.57813" lon="4.06813">
        <ele>80.41</ele>
        <time>2013-05-05T07:49:57Z</time>
      </trkpt>
      <trkpt lat="50.57815" lon="4.06809">
        <ele>80.89</ele>
        <time>2013-05-05T07:49:58Z</time>
      </trkpt>
      <trkpt lat="50.57818" lon="4.06805">
        <ele>80.89</ele>
        <time>2013-05-05T07:49:59Z</time>
      </trkpt>
      <trkpt lat="50.57864" lon="4.06733">
        <ele>81.85</ele>
        <time>2013-05-05T07:50:09Z</time>
      </trkpt>
      <trkpt lat="50.57877" lon="4.06716">
        <ele>81.37</ele>
        <time>2013-05-05T07:50:12Z</time>
      </trkpt>
      <trkpt lat="50.5788" lon="4.06712">
        <ele>81.85</ele>
        <time>2013-05-05T07:50:13Z</time>
      </trkpt>
      <trkpt lat="50.57884" lon="4.06708">
        <ele>81.37</ele>
        <time>2013-05-05T07:50:14Z</time>
      </trkpt>
      <trkpt lat="50.57886" lon="4.06706">
        <ele>81.37</ele>
        <time>2013-05-05T07:50:15Z</time>
      </trkpt>
      <trkpt lat="50.57887" lon="4.06704">
        <ele>80.89</ele>
        <time>2013-05-05T07:50:16Z</time>
      </trkpt>
      <trkpt lat="50.57888" lon="4.06703">
        <ele>80.89</ele>
        <time>2013-05-05T07:50:17Z</time>
      </trkpt>
      <trkpt lat="50.57888" lon="4.067">
        <ele>80.89</ele>
        <time>2013-05-05T07:50:18Z</time>
      </trkpt>
      <trkpt lat="50.57887" lon="4.06699">
        <ele>80.89</ele>
        <time>2013-05-05T07:50:19Z</time>
      </trkpt>
      <trkpt lat="50.57886" lon="4.06699">
        <ele>81.37</ele>
        <time>2013-05-05T07:50:20Z</time>
      </trkpt>
      <trkpt lat="50.57885" lon="4.06701">
        <ele>80.89</ele>
        <time>2013-05-05T07:50:21Z</time>
      </trkpt>
      <trkpt lat="50.57887" lon="4.06711">
        <ele>79.93</ele>
        <time>2013-05-05T07:50:31Z</time>
      </trkpt>
      <trkpt lat="50.57887" lon="4.06712">
        <ele>78.97</ele>
        <time>2013-05-05T07:50:32Z</time>
      </trkpt>
      <trkpt lat="50.57887" lon="4.06715">
        <ele>78.97</ele>
        <time>2013-05-05T07:50:33Z</time>
      </trkpt>
      <trkpt lat="50.57889" lon="4.06719">
        <ele>78.97</ele>
        <time>2013-05-05T07:50:34Z</time>
      </trkpt>
      <trkpt lat="50.5789" lon="4.06723">
        <ele>78.97</ele>
        <time>2013-05-05T07:50:35Z</time>
      </trkpt>
      <trkpt lat="50.57893" lon="4.06728">
        <ele>78.48</ele>
        <time>2013-05-05T07:50:36Z</time>
      </trkpt>
      <trkpt lat="50.57895" lon="4.06733">
        <ele>78</ele>
        <time>2013-05-05T07:50:37Z</time>
      </trkpt>
      <trkpt lat="50.57898" lon="4.06738">
        <ele>78</ele>
        <time>2013-05-05T07:50:38Z</time>
      </trkpt>
      <trkpt lat="50.57902" lon="4.06742">
        <ele>77.52</ele>
        <time>2013-05-05T07:50:39Z</time>
      </trkpt>
      <trkpt lat="50.57906" lon="4.06744">
        <ele>77.52</ele>
        <time>2013-05-05T07:50:40Z</time>
      </trkpt>
      <trkpt lat="50.57911" lon="4.06746">
        <ele>77.52</ele>
        <time>2013-05-05T07:50:41Z</time>
      </trkpt>
      <trkpt lat="50.57914" lon="4.06746">
        <ele>77.52</ele>
        <time>2013-05-05T07:50:42Z</time>
      </trkpt>
      <trkpt lat="50.57917" lon="4.06745">
        <ele>77.04</ele>
        <time>2013-05-05T07:50:43Z</time>
      </trkpt>
      <trkpt lat="50.5792" lon="4.06743">
        <ele>78</ele>
        <time>2013-05-05T07:50:44Z</time>
      </trkpt>
      <trkpt lat="50.57923" lon="4.06741">
        <ele>77.52</ele>
        <time>2013-05-05T07:50:45Z</time>
      </trkpt>
      <trkpt lat="50.57925" lon="4.06738">
        <ele>77.52</ele>
        <time>2013-05-05T07:50:46Z</time>
      </trkpt>
      <trkpt lat="50.57926" lon="4.06735">
        <ele>78</ele>
        <time>2013-05-05T07:50:47Z</time>
      </trkpt>
      <trkpt lat="50.57932" lon="4.06687">
        <ele>79.45</ele>
        <time>2013-05-05T07:50:58Z</time>
      </trkpt>
      <trkpt lat="50.57933" lon="4.06673">
        <ele>80.89</ele>
        <time>2013-05-05T07:51:00Z</time>
      </trkpt>
      <trkpt lat="50.57933" lon="4.06666">
        <ele>80.89</ele>
        <time>2013-05-05T07:51:01Z</time>
      </trkpt>
      <trkpt lat="50.57927" lon="4.06627">
        <ele>82.33</ele>
        <time>2013-05-05T07:51:06Z</time>
      </trkpt>
      <trkpt lat="50.57922" lon="4.06607">
        <ele>83.29</ele>
        <time>2013-05-05T07:51:09Z</time>
      </trkpt>
      <trkpt lat="50.57919" lon="4.06603">
        <ele>83.77</ele>
        <time>2013-05-05T07:51:10Z</time>
      </trkpt>
      <trkpt lat="50.57917" lon="4.06603">
        <ele>82.81</ele>
        <time>2013-05-05T07:51:11Z</time>
      </trkpt>
      <trkpt lat="50.57914" lon="4.06605">
        <ele>83.77</ele>
        <time>2013-05-05T07:51:12Z</time>
      </trkpt>
      <trkpt lat="50.57911" lon="4.06608">
        <ele>83.77</ele>
        <time>2013-05-05T07:51:13Z</time>
      </trkpt>
      <trkpt lat="50.57889" lon="4.06625">
        <ele>83.29</ele>
        <time>2013-05-05T07:51:18Z</time>
      </trkpt>
      <trkpt lat="50.57883" lon="4.06625">
        <ele>83.29</ele>
        <time>2013-05-05T07:51:19Z</time>
      </trkpt>
      <trkpt lat="50.57878" lon="4.06623">
        <ele>83.29</ele>
        <time>2013-05-05T07:51:20Z</time>
      </trkpt>
      <trkpt lat="50.57873" lon="4.0662">
        <ele>83.77</ele>
        <time>2013-05-05T07:51:21Z</time>
      </trkpt>
      <trkpt lat="50.57868" lon="4.06616">
        <ele>83.77</ele>
        <time>2013-05-05T07:51:22Z</time>
      </trkpt>
      <trkpt lat="50.57863" lon="4.06611">
        <ele>83.29</ele>
        <time>2013-05-05T07:51:23Z</time>
      </trkpt>
      <trkpt lat="50.57784" lon="4.06532">
        <ele>84.25</ele>
        <time>2013-05-05T07:51:40Z</time>
      </trkpt>
      <trkpt lat="50.5778" lon="4.06527">
        <ele>85.21</ele>
        <time>2013-05-05T07:51:41Z</time>
      </trkpt>
      <trkpt lat="50.57747" lon="4.06485">
        <ele>84.25</ele>
        <time>2013-05-05T07:51:48Z</time>
      </trkpt>
      <trkpt lat="50.57681" lon="4.06366">
        <ele>84.25</ele>
        <time>2013-05-05T07:52:05Z</time>
      </trkpt>
      <trkpt lat="50.57677" lon="4.0636">
        <ele>83.77</ele>
        <time>2013-05-05T07:52:06Z</time>
      </trkpt>
      <trkpt lat="50.57671" lon="4.06356">
        <ele>83.77</ele>
        <time>2013-05-05T07:52:07Z</time>
      </trkpt>
      <trkpt lat="50.57588" lon="4.06291">
        <ele>82.33</ele>
        <time>2013-05-05T07:52:22Z</time>
      </trkpt>
      <trkpt lat="50.57519" lon="4.06233">
        <ele>83.77</ele>
        <time>2013-05-05T07:52:36Z</time>
      </trkpt>
      <trkpt lat="50.57514" lon="4.06229">
        <ele>83.77</ele>
        <time>2013-05-05T07:52:37Z</time>
      </trkpt>
      <trkpt lat="50.57428" lon="4.06158">
        <ele>85.21</ele>
        <time>2013-05-05T07:52:56Z</time>
      </trkpt>
      <trkpt lat="50.57386" lon="4.06124">
        <ele>86.18</ele>
        <time>2013-05-05T07:53:06Z</time>
      </trkpt>
      <trkpt lat="50.57382" lon="4.06119">
        <ele>85.69</ele>
        <time>2013-05-05T07:53:07Z</time>
      </trkpt>
      <trkpt lat="50.57379" lon="4.06113">
        <ele>86.18</ele>
        <time>2013-05-05T07:53:08Z</time>
      </trkpt>
      <trkpt lat="50.57336" lon="4.06014">
        <ele>87.14</ele>
        <time>2013-05-05T07:53:23Z</time>
      </trkpt>
      <trkpt lat="50.57286" lon="4.05902">
        <ele>86.66</ele>
        <time>2013-05-05T07:53:39Z</time>
      </trkpt>
      <trkpt lat="50.57227" lon="4.05781">
        <ele>87.62</ele>
        <time>2013-05-05T07:53:56Z</time>
      </trkpt>
      <trkpt lat="50.57187" lon="4.05678">
        <ele>86.66</ele>
        <time>2013-05-05T07:54:09Z</time>
      </trkpt>
      <trkpt lat="50.57171" lon="4.05568">
        <ele>86.66</ele>
        <time>2013-05-05T07:54:21Z</time>
      </trkpt>
      <trkpt lat="50.57168" lon="4.0556">
        <ele>86.66</ele>
        <time>2013-05-05T07:54:22Z</time>
      </trkpt>
      <trkpt lat="50.57136" lon="4.05492">
        <ele>87.14</ele>
        <time>2013-05-05T07:54:32Z</time>
      </trkpt>
      <trkpt lat="50.57132" lon="4.05486">
        <ele>86.66</ele>
        <time>2013-05-05T07:54:33Z</time>
      </trkpt>
      <trkpt lat="50.57122" lon="4.05476">
        <ele>87.62</ele>
        <time>2013-05-05T07:54:35Z</time>
      </trkpt>
      <trkpt lat="50.57108" lon="4.05461">
        <ele>87.14</ele>
        <time>2013-05-05T07:54:38Z</time>
      </trkpt>
      <trkpt lat="50.57105" lon="4.05455">
        <ele>87.14</ele>
        <time>2013-05-05T07:54:39Z</time>
      </trkpt>
      <trkpt lat="50.57071" lon="4.05375">
        <ele>86.18</ele>
        <time>2013-05-05T07:54:50Z</time>
      </trkpt>
      <trkpt lat="50.57066" lon="4.05371">
        <ele>86.66</ele>
        <time>2013-05-05T07:54:51Z</time>
      </trkpt>
      <trkpt lat="50.5706" lon="4.05371">
        <ele>86.66</ele>
        <time>2013-05-05T07:54:52Z</time>
      </trkpt>
      <trkpt lat="50.57055" lon="4.05373">
        <ele>87.14</ele>
        <time>2013-05-05T07:54:53Z</time>
      </trkpt>
      <trkpt lat="50.57051" lon="4.05378">
        <ele>87.14</ele>
        <time>2013-05-05T07:54:54Z</time>
      </trkpt>
      <trkpt lat="50.57047" lon="4.05383">
        <ele>87.62</ele>
        <time>2013-05-05T07:54:55Z</time>
      </trkpt>
      <trkpt lat="50.57044" lon="4.05389">
        <ele>87.62</ele>
        <time>2013-05-05T07:54:56Z</time>
      </trkpt>
      <trkpt lat="50.56993" lon="4.05452">
        <ele>89.06</ele>
        <time>2013-05-05T07:55:11Z</time>
      </trkpt>
      <trkpt lat="50.56989" lon="4.0545">
        <ele>89.06</ele>
        <time>2013-05-05T07:55:12Z</time>
      </trkpt>
      <trkpt lat="50.56986" lon="4.05446">
        <ele>88.58</ele>
        <time>2013-05-05T07:55:13Z</time>
      </trkpt>
      <trkpt lat="50.56989" lon="4.05405">
        <ele>89.06</ele>
        <time>2013-05-05T07:55:21Z</time>
      </trkpt>
      <trkpt lat="50.56995" lon="4.05396">
        <ele>88.58</ele>
        <time>2013-05-05T07:55:23Z</time>
      </trkpt>
      <trkpt lat="50.57006" lon="4.05355">
        <ele>89.06</ele>
        <time>2013-05-05T07:55:30Z</time>
      </trkpt>
      <trkpt lat="50.57005" lon="4.0533">
        <ele>89.54</ele>
        <time>2013-05-05T07:55:34Z</time>
      </trkpt>
      <trkpt lat="50.56983" lon="4.05291">
        <ele>87.62</ele>
        <time>2013-05-05T07:55:42Z</time>
      </trkpt>
      <trkpt lat="50.56948" lon="4.05282">
        <ele>83.77</ele>
        <time>2013-05-05T07:55:48Z</time>
      </trkpt>
      <trkpt lat="50.56932" lon="4.05286">
        <ele>81.37</ele>
        <time>2013-05-05T07:55:51Z</time>
      </trkpt>
      <trkpt lat="50.56928" lon="4.05288">
        <ele>81.37</ele>
        <time>2013-05-05T07:55:52Z</time>
      </trkpt>
      <trkpt lat="50.5692" lon="4.05288">
        <ele>80.41</ele>
        <time>2013-05-05T07:55:54Z</time>
      </trkpt>
      <trkpt lat="50.56915" lon="4.05274">
        <ele>78.97</ele>
        <time>2013-05-05T07:55:57Z</time>
      </trkpt>
      <trkpt lat="50.56917" lon="4.05267">
        <ele>78.48</ele>
        <time>2013-05-05T07:55:58Z</time>
      </trkpt>
      <trkpt lat="50.5692" lon="4.05262">
        <ele>78.48</ele>
        <time>2013-05-05T07:55:59Z</time>
      </trkpt>
      <trkpt lat="50.56925" lon="4.05257">
        <ele>78</ele>
        <time>2013-05-05T07:56:00Z</time>
      </trkpt>
      <trkpt lat="50.56931" lon="4.05252">
        <ele>78</ele>
        <time>2013-05-05T07:56:01Z</time>
      </trkpt>
      <trkpt lat="50.56952" lon="4.05231">
        <ele>75.12</ele>
        <time>2013-05-05T07:56:04Z</time>
      </trkpt>
      <trkpt lat="50.56976" lon="4.05202">
        <ele>71.76</ele>
        <time>2013-05-05T07:56:07Z</time>
      </trkpt>
      <trkpt lat="50.56983" lon="4.0519">
        <ele>70.79</ele>
        <time>2013-05-05T07:56:08Z</time>
      </trkpt>
      <trkpt lat="50.56996" lon="4.05166">
        <ele>69.83</ele>
        <time>2013-05-05T07:56:10Z</time>
      </trkpt>
      <trkpt lat="50.5703" lon="4.05085">
        <ele>70.79</ele>
        <time>2013-05-05T07:56:19Z</time>
      </trkpt>
      <trkpt lat="50.57043" lon="4.05037">
        <ele>71.76</ele>
        <time>2013-05-05T07:56:26Z</time>
      </trkpt>
      <trkpt lat="50.57043" lon="4.05029">
        <ele>71.76</ele>
        <time>2013-05-05T07:56:27Z</time>
      </trkpt>
      <trkpt lat="50.57043" lon="4.0502">
        <ele>71.76</ele>
        <time>2013-05-05T07:56:28Z</time>
      </trkpt>
      <trkpt lat="50.57043" lon="4.05011">
        <ele>71.27</ele>
        <time>2013-05-05T07:56:29Z</time>
      </trkpt>
      <trkpt lat="50.57044" lon="4.05003">
        <ele>71.76</ele>
        <time>2013-05-05T07:56:30Z</time>
      </trkpt>
      <trkpt lat="50.57046" lon="4.04933">
        <ele>69.83</ele>
        <time>2013-05-05T07:56:37Z</time>
      </trkpt>
      <trkpt lat="50.57048" lon="4.04849">
        <ele>70.31</ele>
        <time>2013-05-05T07:56:48Z</time>
      </trkpt>
      <trkpt lat="50.57058" lon="4.04804">
        <ele>74.16</ele>
        <time>2013-05-05T07:56:58Z</time>
      </trkpt>
      <trkpt lat="50.57066" lon="4.04777">
        <ele>77.52</ele>
        <time>2013-05-05T07:57:05Z</time>
      </trkpt>
      <trkpt lat="50.57074" lon="4.04757">
        <ele>77.52</ele>
        <time>2013-05-05T07:57:10Z</time>
      </trkpt>
      <trkpt lat="50.57088" lon="4.04676">
        <ele>76.08</ele>
        <time>2013-05-05T07:57:21Z</time>
      </trkpt>
      <trkpt lat="50.57098" lon="4.04586">
        <ele>78.48</ele>
        <time>2013-05-05T07:57:35Z</time>
      </trkpt>
      <trkpt lat="50.57108" lon="4.04499">
        <ele>79.93</ele>
        <time>2013-05-05T07:57:48Z</time>
      </trkpt>
      <trkpt lat="50.57116" lon="4.04407">
        <ele>82.81</ele>
        <time>2013-05-05T07:58:05Z</time>
      </trkpt>
      <trkpt lat="50.57104" lon="4.04321">
        <ele>82.81</ele>
        <time>2013-05-05T07:58:21Z</time>
      </trkpt>
      <trkpt lat="50.57098" lon="4.04235">
        <ele>82.33</ele>
        <time>2013-05-05T07:58:37Z</time>
      </trkpt>
      <trkpt lat="50.57099" lon="4.04231">
        <ele>82.81</ele>
        <time>2013-05-05T07:58:38Z</time>
      </trkpt>
      <trkpt lat="50.57101" lon="4.04228">
        <ele>82.81</ele>
        <time>2013-05-05T07:58:39Z</time>
      </trkpt>
      <trkpt lat="50.57103" lon="4.04226">
        <ele>83.29</ele>
        <time>2013-05-05T07:58:40Z</time>
      </trkpt>
      <trkpt lat="50.5711" lon="4.04233">
        <ele>83.29</ele>
        <time>2013-05-05T07:58:43Z</time>
      </trkpt>
      <trkpt lat="50.5712" lon="4.043">
        <ele>86.66</ele>
        <time>2013-05-05T07:59:00Z</time>
      </trkpt>
      <trkpt lat="50.5712" lon="4.04311">
        <ele>87.14</ele>
        <time>2013-05-05T07:59:03Z</time>
      </trkpt>
      <trkpt lat="50.57121" lon="4.04315">
        <ele>87.14</ele>
        <time>2013-05-05T07:59:04Z</time>
      </trkpt>
      <trkpt lat="50.57132" lon="4.04374">
        <ele>89.54</ele>
        <time>2013-05-05T07:59:20Z</time>
      </trkpt>
      <trkpt lat="50.57144" lon="4.04444">
        <ele>92.42</ele>
        <time>2013-05-05T07:59:39Z</time>
      </trkpt>
      <trkpt lat="50.57152" lon="4.04505">
        <ele>95.79</ele>
        <time>2013-05-05T07:59:56Z</time>
      </trkpt>
      <trkpt lat="50.57169" lon="4.04559">
        <ele>98.19</ele>
        <time>2013-05-05T08:00:13Z</time>
      </trkpt>
      <trkpt lat="50.57189" lon="4.04593">
        <ele>99.15</ele>
        <time>2013-05-05T08:00:24Z</time>
      </trkpt>
      <trkpt lat="50.5719" lon="4.04599">
        <ele>99.63</ele>
        <time>2013-05-05T08:00:25Z</time>
      </trkpt>
      <trkpt lat="50.57191" lon="4.0463">
        <ele>99.15</ele>
        <time>2013-05-05T08:00:30Z</time>
      </trkpt>
      <trkpt lat="50.57186" lon="4.04658">
        <ele>98.67</ele>
        <time>2013-05-05T08:00:34Z</time>
      </trkpt>
      <trkpt lat="50.57171" lon="4.04699">
        <ele>102.04</ele>
        <time>2013-05-05T08:00:42Z</time>
      </trkpt>
      <trkpt lat="50.57146" lon="4.04795">
        <ele>104.44</ele>
        <time>2013-05-05T08:01:00Z</time>
      </trkpt>
      <trkpt lat="50.57144" lon="4.04813">
        <ele>104.44</ele>
        <time>2013-05-05T08:01:03Z</time>
      </trkpt>
      <trkpt lat="50.57145" lon="4.04838">
        <ele>104.44</ele>
        <time>2013-05-05T08:01:07Z</time>
      </trkpt>
      <trkpt lat="50.57165" lon="4.04922">
        <ele>106.36</ele>
        <time>2013-05-05T08:01:23Z</time>
      </trkpt>
      <trkpt lat="50.57151" lon="4.04944">
        <ele>103.96</ele>
        <time>2013-05-05T08:01:28Z</time>
      </trkpt>
      <trkpt lat="50.57138" lon="4.04927">
        <ele>101.08</ele>
        <time>2013-05-05T08:01:35Z</time>
      </trkpt>
      <trkpt lat="50.57136" lon="4.04945">
        <ele>101.56</ele>
        <time>2013-05-05T08:01:43Z</time>
      </trkpt>
      <trkpt lat="50.57136" lon="4.04968">
        <ele>102.52</ele>
        <time>2013-05-05T08:01:49Z</time>
      </trkpt>
      <trkpt lat="50.57149" lon="4.05015">
        <ele>105.88</ele>
        <time>2013-05-05T08:02:05Z</time>
      </trkpt>
      <trkpt lat="50.57157" lon="4.05052">
        <ele>108.77</ele>
        <time>2013-05-05T08:02:19Z</time>
      </trkpt>
      <trkpt lat="50.57163" lon="4.05083">
        <ele>111.17</ele>
        <time>2013-05-05T08:02:31Z</time>
      </trkpt>
      <trkpt lat="50.5717" lon="4.0512">
        <ele>114.05</ele>
        <time>2013-05-05T08:02:46Z</time>
      </trkpt>
      <trkpt lat="50.57172" lon="4.05137">
        <ele>115.5</ele>
        <time>2013-05-05T08:02:53Z</time>
      </trkpt>
      <trkpt lat="50.57175" lon="4.05161">
        <ele>117.42</ele>
        <time>2013-05-05T08:03:03Z</time>
      </trkpt>
      <trkpt lat="50.57176" lon="4.0517">
        <ele>118.38</ele>
        <time>2013-05-05T08:03:07Z</time>
      </trkpt>
      <trkpt lat="50.57181" lon="4.05208">
        <ele>121.26</ele>
        <time>2013-05-05T08:03:23Z</time>
      </trkpt>
      <trkpt lat="50.57197" lon="4.05255">
        <ele>122.71</ele>
        <time>2013-05-05T08:03:41Z</time>
      </trkpt>
      <trkpt lat="50.57217" lon="4.05305">
        <ele>125.11</ele>
        <time>2013-05-05T08:03:59Z</time>
      </trkpt>
      <trkpt lat="50.57242" lon="4.05325">
        <ele>127.03</ele>
        <time>2013-05-05T08:04:14Z</time>
      </trkpt>
      <trkpt lat="50.57277" lon="4.05329">
        <ele>129.43</ele>
        <time>2013-05-05T08:04:33Z</time>
      </trkpt>
      <trkpt lat="50.57305" lon="4.05301">
        <ele>130.88</ele>
        <time>2013-05-05T08:04:49Z</time>
      </trkpt>
      <trkpt lat="50.57331" lon="4.0526">
        <ele>131.36</ele>
        <time>2013-05-05T08:05:03Z</time>
      </trkpt>
      <trkpt lat="50.5736" lon="4.052">
        <ele>131.36</ele>
        <time>2013-05-05T08:05:18Z</time>
      </trkpt>
      <trkpt lat="50.57389" lon="4.05164">
        <ele>134.72</ele>
        <time>2013-05-05T08:05:31Z</time>
      </trkpt>
      <trkpt lat="50.57392" lon="4.05123">
        <ele>135.68</ele>
        <time>2013-05-05T08:05:41Z</time>
      </trkpt>
      <trkpt lat="50.57365" lon="4.05076">
        <ele>136.16</ele>
        <time>2013-05-05T08:05:55Z</time>
      </trkpt>
      <trkpt lat="50.57336" lon="4.0505">
        <ele>136.16</ele>
        <time>2013-05-05T08:06:07Z</time>
      </trkpt>
      <trkpt lat="50.57331" lon="4.0502">
        <ele>134.72</ele>
        <time>2013-05-05T08:06:12Z</time>
      </trkpt>
      <trkpt lat="50.57326" lon="4.05004">
        <ele>133.76</ele>
        <time>2013-05-05T08:06:14Z</time>
      </trkpt>
      <trkpt lat="50.57322" lon="4.04988">
        <ele>133.76</ele>
        <time>2013-05-05T08:06:16Z</time>
      </trkpt>
      <trkpt lat="50.5732" lon="4.04964">
        <ele>132.32</ele>
        <time>2013-05-05T08:06:19Z</time>
      </trkpt>
      <trkpt lat="50.57326" lon="4.04926">
        <ele>132.32</ele>
        <time>2013-05-05T08:06:24Z</time>
      </trkpt>
      <trkpt lat="50.57364" lon="4.04841">
        <ele>130.88</ele>
        <time>2013-05-05T08:06:37Z</time>
      </trkpt>
      <trkpt lat="50.5738" lon="4.04825">
        <ele>126.55</ele>
        <time>2013-05-05T08:06:41Z</time>
      </trkpt>
      <trkpt lat="50.5739" lon="4.04825">
        <ele>125.11</ele>
        <time>2013-05-05T08:06:43Z</time>
      </trkpt>
      <trkpt lat="50.57399" lon="4.04826">
        <ele>123.67</ele>
        <time>2013-05-05T08:06:45Z</time>
      </trkpt>
      <trkpt lat="50.57414" lon="4.04819">
        <ele>121.26</ele>
        <time>2013-05-05T08:06:50Z</time>
      </trkpt>
      <trkpt lat="50.57407" lon="4.04774">
        <ele>120.3</ele>
        <time>2013-05-05T08:07:01Z</time>
      </trkpt>
      <trkpt lat="50.57373" lon="4.04669">
        <ele>117.42</ele>
        <time>2013-05-05T08:07:15Z</time>
      </trkpt>
      <trkpt lat="50.57349" lon="4.04605">
        <ele>113.57</ele>
        <time>2013-05-05T08:07:21Z</time>
      </trkpt>
      <trkpt lat="50.57339" lon="4.04579">
        <ele>111.17</ele>
        <time>2013-05-05T08:07:23Z</time>
      </trkpt>
      <trkpt lat="50.57322" lon="4.04546">
        <ele>106.84</ele>
        <time>2013-05-05T08:07:26Z</time>
      </trkpt>
      <trkpt lat="50.57317" lon="4.04537">
        <ele>105.4</ele>
        <time>2013-05-05T08:07:27Z</time>
      </trkpt>
      <trkpt lat="50.57294" lon="4.04505">
        <ele>103</ele>
        <time>2013-05-05T08:07:31Z</time>
      </trkpt>
      <trkpt lat="50.57242" lon="4.0445">
        <ele>101.56</ele>
        <time>2013-05-05T08:07:41Z</time>
      </trkpt>
      <trkpt lat="50.57228" lon="4.04424">
        <ele>102.04</ele>
        <time>2013-05-05T08:07:45Z</time>
      </trkpt>
      <trkpt lat="50.57207" lon="4.04321">
        <ele>102.52</ele>
        <time>2013-05-05T08:07:58Z</time>
      </trkpt>
      <trkpt lat="50.57182" lon="4.04206">
        <ele>102.52</ele>
        <time>2013-05-05T08:08:13Z</time>
      </trkpt>
      <trkpt lat="50.57165" lon="4.04124">
        <ele>102.04</ele>
        <time>2013-05-05T08:08:23Z</time>
      </trkpt>
      <trkpt lat="50.57139" lon="4.04092">
        <ele>101.08</ele>
        <time>2013-05-05T08:08:29Z</time>
      </trkpt>
      <trkpt lat="50.57071" lon="4.04044">
        <ele>100.6</ele>
        <time>2013-05-05T08:08:43Z</time>
      </trkpt>
      <trkpt lat="50.57029" lon="4.03984">
        <ele>100.11</ele>
        <time>2013-05-05T08:08:54Z</time>
      </trkpt>
      <trkpt lat="50.57006" lon="4.0396">
        <ele>98.67</ele>
        <time>2013-05-05T08:09:03Z</time>
      </trkpt>
      <trkpt lat="50.57005" lon="4.03965">
        <ele>98.19</ele>
        <time>2013-05-05T08:09:04Z</time>
      </trkpt>
      <trkpt lat="50.57006" lon="4.03972">
        <ele>97.23</ele>
        <time>2013-05-05T08:09:05Z</time>
      </trkpt>
      <trkpt lat="50.57008" lon="4.0398">
        <ele>96.75</ele>
        <time>2013-05-05T08:09:06Z</time>
      </trkpt>
      <trkpt lat="50.57014" lon="4.04008">
        <ele>92.9</ele>
        <time>2013-05-05T08:09:09Z</time>
      </trkpt>
      <trkpt lat="50.57019" lon="4.0403">
        <ele>90.02</ele>
        <time>2013-05-05T08:09:11Z</time>
      </trkpt>
      <trkpt lat="50.57029" lon="4.04064">
        <ele>86.66</ele>
        <time>2013-05-05T08:09:14Z</time>
      </trkpt>
      <trkpt lat="50.57034" lon="4.04074">
        <ele>86.66</ele>
        <time>2013-05-05T08:09:15Z</time>
      </trkpt>
      <trkpt lat="50.57055" lon="4.04117">
        <ele>83.29</ele>
        <time>2013-05-05T08:09:19Z</time>
      </trkpt>
      <trkpt lat="50.57088" lon="4.04205">
        <ele>82.33</ele>
        <time>2013-05-05T08:09:27Z</time>
      </trkpt>
      <trkpt lat="50.5709" lon="4.04215">
        <ele>82.81</ele>
        <time>2013-05-05T08:09:28Z</time>
      </trkpt>
      <trkpt lat="50.57091" lon="4.04224">
        <ele>81.85</ele>
        <time>2013-05-05T08:09:29Z</time>
      </trkpt>
      <trkpt lat="50.57093" lon="4.04232">
        <ele>82.81</ele>
        <time>2013-05-05T08:09:30Z</time>
      </trkpt>
      <trkpt lat="50.57094" lon="4.0424">
        <ele>83.29</ele>
        <time>2013-05-05T08:09:31Z</time>
      </trkpt>
      <trkpt lat="50.57096" lon="4.04257">
        <ele>82.33</ele>
        <time>2013-05-05T08:09:33Z</time>
      </trkpt>
      <trkpt lat="50.57113" lon="4.04395">
        <ele>83.29</ele>
        <time>2013-05-05T08:09:49Z</time>
      </trkpt>
      <trkpt lat="50.57113" lon="4.04404">
        <ele>83.29</ele>
        <time>2013-05-05T08:09:50Z</time>
      </trkpt>
      <trkpt lat="50.57113" lon="4.04412">
        <ele>83.29</ele>
        <time>2013-05-05T08:09:51Z</time>
      </trkpt>
      <trkpt lat="50.57113" lon="4.04422">
        <ele>83.29</ele>
        <time>2013-05-05T08:09:52Z</time>
      </trkpt>
      <trkpt lat="50.57099" lon="4.04498">
        <ele>78.97</ele>
        <time>2013-05-05T08:09:59Z</time>
      </trkpt>
      <trkpt lat="50.57096" lon="4.04511">
        <ele>78.48</ele>
        <time>2013-05-05T08:10:00Z</time>
      </trkpt>
      <trkpt lat="50.57082" lon="4.0458">
        <ele>75.12</ele>
        <time>2013-05-05T08:10:05Z</time>
      </trkpt>
      <trkpt lat="50.5708" lon="4.04594">
        <ele>75.12</ele>
        <time>2013-05-05T08:10:06Z</time>
      </trkpt>
      <trkpt lat="50.57069" lon="4.0465">
        <ele>72.24</ele>
        <time>2013-05-05T08:10:10Z</time>
      </trkpt>
      <trkpt lat="50.57054" lon="4.0471">
        <ele>68.39</ele>
        <time>2013-05-05T08:10:14Z</time>
      </trkpt>
      <trkpt lat="50.57041" lon="4.04756">
        <ele>65.03</ele>
        <time>2013-05-05T08:10:17Z</time>
      </trkpt>
      <trkpt lat="50.57028" lon="4.04806">
        <ele>62.14</ele>
        <time>2013-05-05T08:10:21Z</time>
      </trkpt>
      <trkpt lat="50.57022" lon="4.04832">
        <ele>60.7</ele>
        <time>2013-05-05T08:10:23Z</time>
      </trkpt>
      <trkpt lat="50.57018" lon="4.04879">
        <ele>57.34</ele>
        <time>2013-05-05T08:10:27Z</time>
      </trkpt>
      <trkpt lat="50.57017" lon="4.04888">
        <ele>56.37</ele>
        <time>2013-05-05T08:10:28Z</time>
      </trkpt>
      <trkpt lat="50.57016" lon="4.04896">
        <ele>55.89</ele>
        <time>2013-05-05T08:10:29Z</time>
      </trkpt>
      <trkpt lat="50.57013" lon="4.04903">
        <ele>54.93</ele>
        <time>2013-05-05T08:10:30Z</time>
      </trkpt>
      <trkpt lat="50.5701" lon="4.0491">
        <ele>54.93</ele>
        <time>2013-05-05T08:10:31Z</time>
      </trkpt>
      <trkpt lat="50.57005" lon="4.04915">
        <ele>54.45</ele>
        <time>2013-05-05T08:10:32Z</time>
      </trkpt>
      <trkpt lat="50.57" lon="4.0492">
        <ele>53.97</ele>
        <time>2013-05-05T08:10:33Z</time>
      </trkpt>
      <trkpt lat="50.56995" lon="4.04924">
        <ele>53.97</ele>
        <time>2013-05-05T08:10:34Z</time>
      </trkpt>
      <trkpt lat="50.56989" lon="4.04928">
        <ele>53.49</ele>
        <time>2013-05-05T08:10:35Z</time>
      </trkpt>
      <trkpt lat="50.56981" lon="4.04931">
        <ele>53.01</ele>
        <time>2013-05-05T08:10:36Z</time>
      </trkpt>
      <trkpt lat="50.56964" lon="4.04937">
        <ele>49.65</ele>
        <time>2013-05-05T08:10:38Z</time>
      </trkpt>
      <trkpt lat="50.56947" lon="4.0494">
        <ele>46.28</ele>
        <time>2013-05-05T08:10:40Z</time>
      </trkpt>
      <trkpt lat="50.56939" lon="4.04939">
        <ele>45.32</ele>
        <time>2013-05-05T08:10:41Z</time>
      </trkpt>
      <trkpt lat="50.56932" lon="4.04936">
        <ele>44.84</ele>
        <time>2013-05-05T08:10:42Z</time>
      </trkpt>
      <trkpt lat="50.56927" lon="4.04933">
        <ele>43.88</ele>
        <time>2013-05-05T08:10:43Z</time>
      </trkpt>
      <trkpt lat="50.56921" lon="4.04928">
        <ele>43.88</ele>
        <time>2013-05-05T08:10:44Z</time>
      </trkpt>
      <trkpt lat="50.56917" lon="4.04922">
        <ele>43.4</ele>
        <time>2013-05-05T08:10:45Z</time>
      </trkpt>
      <trkpt lat="50.56912" lon="4.04915">
        <ele>42.92</ele>
        <time>2013-05-05T08:10:46Z</time>
      </trkpt>
      <trkpt lat="50.56909" lon="4.04906">
        <ele>42.92</ele>
        <time>2013-05-05T08:10:47Z</time>
      </trkpt>
      <trkpt lat="50.56906" lon="4.04896">
        <ele>42.92</ele>
        <time>2013-05-05T08:10:48Z</time>
      </trkpt>
      <trkpt lat="50.56904" lon="4.04886">
        <ele>42.44</ele>
        <time>2013-05-05T08:10:49Z</time>
      </trkpt>
      <trkpt lat="50.56903" lon="4.04875">
        <ele>41.47</ele>
        <time>2013-05-05T08:10:50Z</time>
      </trkpt>
      <trkpt lat="50.56903" lon="4.04864">
        <ele>41.95</ele>
        <time>2013-05-05T08:10:51Z</time>
      </trkpt>
      <trkpt lat="50.56903" lon="4.04854">
        <ele>41.47</ele>
        <time>2013-05-05T08:10:52Z</time>
      </trkpt>
      <trkpt lat="50.56926" lon="4.04721">
        <ele>40.51</ele>
        <time>2013-05-05T08:11:07Z</time>
      </trkpt>
      <trkpt lat="50.56959" lon="4.04624">
        <ele>41.47</ele>
        <time>2013-05-05T08:11:21Z</time>
      </trkpt>
      <trkpt lat="50.56968" lon="4.04555">
        <ele>44.84</ele>
        <time>2013-05-05T08:11:33Z</time>
      </trkpt>
      <trkpt lat="50.56969" lon="4.04551">
        <ele>45.32</ele>
        <time>2013-05-05T08:11:34Z</time>
      </trkpt>
      <trkpt lat="50.56984" lon="4.04503">
        <ele>48.2</ele>
        <time>2013-05-05T08:11:47Z</time>
      </trkpt>
      <trkpt lat="50.56997" lon="4.04469">
        <ele>51.09</ele>
        <time>2013-05-05T08:11:59Z</time>
      </trkpt>
      <trkpt lat="50.57006" lon="4.04427">
        <ele>53.97</ele>
        <time>2013-05-05T08:12:15Z</time>
      </trkpt>
      <trkpt lat="50.57015" lon="4.04395">
        <ele>57.34</ele>
        <time>2013-05-05T08:12:28Z</time>
      </trkpt>
      <trkpt lat="50.57023" lon="4.04349">
        <ele>58.3</ele>
        <time>2013-05-05T08:12:43Z</time>
      </trkpt>
      <trkpt lat="50.5702" lon="4.04319">
        <ele>58.78</ele>
        <time>2013-05-05T08:12:49Z</time>
      </trkpt>
      <trkpt lat="50.56982" lon="4.04249">
        <ele>57.34</ele>
        <time>2013-05-05T08:13:00Z</time>
      </trkpt>
      <trkpt lat="50.56954" lon="4.04185">
        <ele>57.82</ele>
        <time>2013-05-05T08:13:12Z</time>
      </trkpt>
      <trkpt lat="50.5695" lon="4.04178">
        <ele>57.82</ele>
        <time>2013-05-05T08:13:13Z</time>
      </trkpt>
      <trkpt lat="50.56938" lon="4.04159">
        <ele>53.01</ele>
        <time>2013-05-05T08:13:16Z</time>
      </trkpt>
      <trkpt lat="50.56925" lon="4.04144">
        <ele>49.16</ele>
        <time>2013-05-05T08:13:19Z</time>
      </trkpt>
      <trkpt lat="50.56922" lon="4.0414">
        <ele>47.72</ele>
        <time>2013-05-05T08:13:20Z</time>
      </trkpt>
      <trkpt lat="50.56913" lon="4.04114">
        <ele>44.84</ele>
        <time>2013-05-05T08:13:24Z</time>
      </trkpt>
      <trkpt lat="50.56904" lon="4.04046">
        <ele>40.99</ele>
        <time>2013-05-05T08:13:30Z</time>
      </trkpt>
      <trkpt lat="50.56894" lon="4.03999">
        <ele>37.63</ele>
        <time>2013-05-05T08:13:34Z</time>
      </trkpt>
      <trkpt lat="50.56883" lon="4.03969">
        <ele>34.26</ele>
        <time>2013-05-05T08:13:37Z</time>
      </trkpt>
      <trkpt lat="50.56875" lon="4.03952">
        <ele>30.9</ele>
        <time>2013-05-05T08:13:40Z</time>
      </trkpt>
      <trkpt lat="50.56873" lon="4.03946">
        <ele>30.9</ele>
        <time>2013-05-05T08:13:41Z</time>
      </trkpt>
      <trkpt lat="50.5687" lon="4.03927">
        <ele>28.5</ele>
        <time>2013-05-05T08:13:44Z</time>
      </trkpt>
      <trkpt lat="50.5686" lon="4.03922">
        <ele>26.09</ele>
        <time>2013-05-05T08:13:48Z</time>
      </trkpt>
      <trkpt lat="50.5685" lon="4.03934">
        <ele>24.17</ele>
        <time>2013-05-05T08:13:51Z</time>
      </trkpt>
      <trkpt lat="50.56811" lon="4.03923">
        <ele>21.77</ele>
        <time>2013-05-05T08:13:58Z</time>
      </trkpt>
      <trkpt lat="50.56803" lon="4.0391">
        <ele>21.77</ele>
        <time>2013-05-05T08:14:00Z</time>
      </trkpt>
      <trkpt lat="50.56791" lon="4.03893">
        <ele>20.81</ele>
        <time>2013-05-05T08:14:03Z</time>
      </trkpt>
      <trkpt lat="50.56783" lon="4.03885">
        <ele>21.29</ele>
        <time>2013-05-05T08:14:05Z</time>
      </trkpt>
      <trkpt lat="50.56779" lon="4.03882">
        <ele>21.29</ele>
        <time>2013-05-05T08:14:06Z</time>
      </trkpt>
      <trkpt lat="50.56776" lon="4.03881">
        <ele>21.77</ele>
        <time>2013-05-05T08:14:07Z</time>
      </trkpt>
      <trkpt lat="50.56773" lon="4.03881">
        <ele>21.77</ele>
        <time>2013-05-05T08:14:08Z</time>
      </trkpt>
      <trkpt lat="50.56772" lon="4.03881">
        <ele>22.25</ele>
        <time>2013-05-05T08:14:09Z</time>
      </trkpt>
      <trkpt lat="50.56771" lon="4.03881">
        <ele>22.25</ele>
        <time>2013-05-05T08:14:22Z</time>
      </trkpt>
      <trkpt lat="50.5677" lon="4.03881">
        <ele>22.25</ele>
        <time>2013-05-05T08:14:25Z</time>
      </trkpt>
      <trkpt lat="50.56768" lon="4.03882">
        <ele>22.73</ele>
        <time>2013-05-05T08:14:26Z</time>
      </trkpt>
      <trkpt lat="50.56766" lon="4.03881">
        <ele>22.73</ele>
        <time>2013-05-05T08:14:27Z</time>
      </trkpt>
      <trkpt lat="50.56764" lon="4.03881">
        <ele>23.21</ele>
        <time>2013-05-05T08:14:28Z</time>
      </trkpt>
      <trkpt lat="50.56761" lon="4.03881">
        <ele>23.21</ele>
        <time>2013-05-05T08:14:29Z</time>
      </trkpt>
      <trkpt lat="50.56759" lon="4.03882">
        <ele>23.69</ele>
        <time>2013-05-05T08:14:30Z</time>
      </trkpt>
      <trkpt lat="50.56756" lon="4.03882">
        <ele>23.69</ele>
        <time>2013-05-05T08:14:31Z</time>
      </trkpt>
      <trkpt lat="50.56717" lon="4.039">
        <ele>26.57</ele>
        <time>2013-05-05T08:14:46Z</time>
      </trkpt>
      <trkpt lat="50.56678" lon="4.03897">
        <ele>29.46</ele>
        <time>2013-05-05T08:15:02Z</time>
      </trkpt>
      <trkpt lat="50.56677" lon="4.03894">
        <ele>29.46</ele>
        <time>2013-05-05T08:15:03Z</time>
      </trkpt>
      <trkpt lat="50.56688" lon="4.0386">
        <ele>30.9</ele>
        <time>2013-05-05T08:15:16Z</time>
      </trkpt>
      <trkpt lat="50.56707" lon="4.03847">
        <ele>33.78</ele>
        <time>2013-05-05T08:15:29Z</time>
      </trkpt>
      <trkpt lat="50.56731" lon="4.03831">
        <ele>37.15</ele>
        <time>2013-05-05T08:15:45Z</time>
      </trkpt>
      <trkpt lat="50.5675" lon="4.03821">
        <ele>40.03</ele>
        <time>2013-05-05T08:15:58Z</time>
      </trkpt>
      <trkpt lat="50.56767" lon="4.03811">
        <ele>43.4</ele>
        <time>2013-05-05T08:16:11Z</time>
      </trkpt>
      <trkpt lat="50.56784" lon="4.03804">
        <ele>46.28</ele>
        <time>2013-05-05T08:16:23Z</time>
      </trkpt>
      <trkpt lat="50.56785" lon="4.03803">
        <ele>46.76</ele>
        <time>2013-05-05T08:16:24Z</time>
      </trkpt>
      <trkpt lat="50.568" lon="4.03796">
        <ele>49.65</ele>
        <time>2013-05-05T08:16:36Z</time>
      </trkpt>
      <trkpt lat="50.5682" lon="4.03784">
        <ele>52.53</ele>
        <time>2013-05-05T08:16:52Z</time>
      </trkpt>
      <trkpt lat="50.56844" lon="4.03782">
        <ele>55.41</ele>
        <time>2013-05-05T08:17:10Z</time>
      </trkpt>
      <trkpt lat="50.56869" lon="4.03785">
        <ele>59.26</ele>
        <time>2013-05-05T08:17:28Z</time>
      </trkpt>
      <trkpt lat="50.56894" lon="4.0379">
        <ele>61.66</ele>
        <time>2013-05-05T08:17:45Z</time>
      </trkpt>
      <trkpt lat="50.56913" lon="4.03803">
        <ele>65.03</ele>
        <time>2013-05-05T08:18:00Z</time>
      </trkpt>
      <trkpt lat="50.56929" lon="4.03825">
        <ele>67.91</ele>
        <time>2013-05-05T08:18:14Z</time>
      </trkpt>
      <trkpt lat="50.56936" lon="4.03831">
        <ele>68.39</ele>
        <time>2013-05-05T08:18:19Z</time>
      </trkpt>
      <trkpt lat="50.56941" lon="4.03831">
        <ele>68.87</ele>
        <time>2013-05-05T08:18:22Z</time>
      </trkpt>
      <trkpt lat="50.56948" lon="4.03815">
        <ele>68.87</ele>
        <time>2013-05-05T08:18:29Z</time>
      </trkpt>
      <trkpt lat="50.56954" lon="4.03759">
        <ele>69.35</ele>
        <time>2013-05-05T08:18:48Z</time>
      </trkpt>
      <trkpt lat="50.56935" lon="4.03698">
        <ele>68.39</ele>
        <time>2013-05-05T08:19:02Z</time>
      </trkpt>
      <trkpt lat="50.56896" lon="4.03641">
        <ele>67.43</ele>
        <time>2013-05-05T08:19:17Z</time>
      </trkpt>
      <trkpt lat="50.56871" lon="4.03637">
        <ele>66.47</ele>
        <time>2013-05-05T08:19:22Z</time>
      </trkpt>
      <trkpt lat="50.56845" lon="4.03644">
        <ele>65.51</ele>
        <time>2013-05-05T08:19:27Z</time>
      </trkpt>
      <trkpt lat="50.56817" lon="4.03677">
        <ele>63.58</ele>
        <time>2013-05-05T08:19:33Z</time>
      </trkpt>
      <trkpt lat="50.56799" lon="4.03703">
        <ele>63.1</ele>
        <time>2013-05-05T08:19:38Z</time>
      </trkpt>
      <trkpt lat="50.56747" lon="4.03725">
        <ele>63.1</ele>
        <time>2013-05-05T08:19:51Z</time>
      </trkpt>
      <trkpt lat="50.56706" lon="4.03735">
        <ele>63.1</ele>
        <time>2013-05-05T08:20:00Z</time>
      </trkpt>
      <trkpt lat="50.56672" lon="4.03758">
        <ele>60.22</ele>
        <time>2013-05-05T08:20:07Z</time>
      </trkpt>
      <trkpt lat="50.56635" lon="4.03798">
        <ele>57.82</ele>
        <time>2013-05-05T08:20:13Z</time>
      </trkpt>
      <trkpt lat="50.56581" lon="4.03884">
        <ele>54.45</ele>
        <time>2013-05-05T08:20:24Z</time>
      </trkpt>
      <trkpt lat="50.56571" lon="4.03901">
        <ele>54.45</ele>
        <time>2013-05-05T08:20:26Z</time>
      </trkpt>
      <trkpt lat="50.56556" lon="4.03917">
        <ele>55.41</ele>
        <time>2013-05-05T08:20:29Z</time>
      </trkpt>
      <trkpt lat="50.56531" lon="4.03976">
        <ele>54.45</ele>
        <time>2013-05-05T08:20:39Z</time>
      </trkpt>
      <trkpt lat="50.5653" lon="4.03994">
        <ele>54.93</ele>
        <time>2013-05-05T08:20:42Z</time>
      </trkpt>
      <trkpt lat="50.56529" lon="4.0402">
        <ele>54.93</ele>
        <time>2013-05-05T08:20:46Z</time>
      </trkpt>
      <trkpt lat="50.56529" lon="4.04041">
        <ele>55.41</ele>
        <time>2013-05-05T08:20:49Z</time>
      </trkpt>
      <trkpt lat="50.56523" lon="4.04101">
        <ele>58.3</ele>
        <time>2013-05-05T08:21:01Z</time>
      </trkpt>
      <trkpt lat="50.56524" lon="4.04108">
        <ele>58.78</ele>
        <time>2013-05-05T08:21:03Z</time>
      </trkpt>
      <trkpt lat="50.56528" lon="4.04153">
        <ele>61.18</ele>
        <time>2013-05-05T08:21:18Z</time>
      </trkpt>
      <trkpt lat="50.56538" lon="4.04197">
        <ele>64.07</ele>
        <time>2013-05-05T08:21:34Z</time>
      </trkpt>
      <trkpt lat="50.56548" lon="4.0423">
        <ele>67.43</ele>
        <time>2013-05-05T08:21:48Z</time>
      </trkpt>
      <trkpt lat="50.56544" lon="4.04264">
        <ele>68.39</ele>
        <time>2013-05-05T08:22:03Z</time>
      </trkpt>
      <trkpt lat="50.56525" lon="4.04252">
        <ele>70.31</ele>
        <time>2013-05-05T08:22:15Z</time>
      </trkpt>
      <trkpt lat="50.56524" lon="4.04249">
        <ele>70.31</ele>
        <time>2013-05-05T08:22:16Z</time>
      </trkpt>
      <trkpt lat="50.56517" lon="4.04225">
        <ele>73.68</ele>
        <time>2013-05-05T08:22:27Z</time>
      </trkpt>
      <trkpt lat="50.56506" lon="4.04206">
        <ele>77.52</ele>
        <time>2013-05-05T08:22:41Z</time>
      </trkpt>
      <trkpt lat="50.56495" lon="4.04186">
        <ele>80.41</ele>
        <time>2013-05-05T08:22:55Z</time>
      </trkpt>
      <trkpt lat="50.56491" lon="4.04179">
        <ele>82.81</ele>
        <time>2013-05-05T08:23:01Z</time>
      </trkpt>
      <trkpt lat="50.56487" lon="4.04179">
        <ele>82.33</ele>
        <time>2013-05-05T08:23:14Z</time>
      </trkpt>
      <trkpt lat="50.56486" lon="4.04177">
        <ele>82.81</ele>
        <time>2013-05-05T08:23:43Z</time>
      </trkpt>
      <trkpt lat="50.56486" lon="4.04177">
        <ele>82.33</ele>
        <time>2013-05-05T08:23:50Z</time>
      </trkpt>
      <trkpt lat="50.56481" lon="4.04162">
        <ele>83.77</ele>
        <time>2013-05-05T08:24:00Z</time>
      </trkpt>
      <trkpt lat="50.56473" lon="4.04137">
        <ele>87.14</ele>
        <time>2013-05-05T08:24:12Z</time>
      </trkpt>
      <trkpt lat="50.56469" lon="4.04125">
        <ele>88.58</ele>
        <time>2013-05-05T08:24:18Z</time>
      </trkpt>
      <trkpt lat="50.56457" lon="4.04096">
        <ele>91.94</ele>
        <time>2013-05-05T08:24:33Z</time>
      </trkpt>
      <trkpt lat="50.56447" lon="4.04077">
        <ele>94.83</ele>
        <time>2013-05-05T08:24:45Z</time>
      </trkpt>
      <trkpt lat="50.56431" lon="4.04052">
        <ele>97.71</ele>
        <time>2013-05-05T08:25:02Z</time>
      </trkpt>
      <trkpt lat="50.56404" lon="4.0404">
        <ele>99.63</ele>
        <time>2013-05-05T08:25:24Z</time>
      </trkpt>
      <trkpt lat="50.56419" lon="4.04096">
        <ele>100.11</ele>
        <time>2013-05-05T08:25:39Z</time>
      </trkpt>
      <trkpt lat="50.5642" lon="4.04127">
        <ele>100.11</ele>
        <time>2013-05-05T08:25:44Z</time>
      </trkpt>
      <trkpt lat="50.5643" lon="4.04168">
        <ele>99.63</ele>
        <time>2013-05-05T08:25:51Z</time>
      </trkpt>
      <trkpt lat="50.56445" lon="4.04283">
        <ele>99.63</ele>
        <time>2013-05-05T08:26:08Z</time>
      </trkpt>
      <trkpt lat="50.56446" lon="4.04296">
        <ele>99.63</ele>
        <time>2013-05-05T08:26:10Z</time>
      </trkpt>
      <trkpt lat="50.56444" lon="4.04331">
        <ele>99.15</ele>
        <time>2013-05-05T08:26:15Z</time>
      </trkpt>
      <trkpt lat="50.56449" lon="4.0436">
        <ele>98.67</ele>
        <time>2013-05-05T08:26:20Z</time>
      </trkpt>
      <trkpt lat="50.56454" lon="4.0437">
        <ele>98.19</ele>
        <time>2013-05-05T08:26:22Z</time>
      </trkpt>
      <trkpt lat="50.56471" lon="4.04397">
        <ele>98.67</ele>
        <time>2013-05-05T08:26:27Z</time>
      </trkpt>
      <trkpt lat="50.56479" lon="4.04416">
        <ele>98.67</ele>
        <time>2013-05-05T08:26:30Z</time>
      </trkpt>
      <trkpt lat="50.56503" lon="4.04557">
        <ele>98.19</ele>
        <time>2013-05-05T08:26:49Z</time>
      </trkpt>
      <trkpt lat="50.56504" lon="4.04566">
        <ele>98.19</ele>
        <time>2013-05-05T08:26:50Z</time>
      </trkpt>
      <trkpt lat="50.56511" lon="4.04598">
        <ele>96.27</ele>
        <time>2013-05-05T08:26:53Z</time>
      </trkpt>
      <trkpt lat="50.56519" lon="4.04628">
        <ele>96.27</ele>
        <time>2013-05-05T08:26:56Z</time>
      </trkpt>
      <trkpt lat="50.56564" lon="4.04703">
        <ele>95.79</ele>
        <time>2013-05-05T08:27:08Z</time>
      </trkpt>
      <trkpt lat="50.56568" lon="4.04708">
        <ele>95.31</ele>
        <time>2013-05-05T08:27:09Z</time>
      </trkpt>
      <trkpt lat="50.5658" lon="4.04717">
        <ele>95.31</ele>
        <time>2013-05-05T08:27:12Z</time>
      </trkpt>
      <trkpt lat="50.56585" lon="4.04716">
        <ele>94.83</ele>
        <time>2013-05-05T08:27:13Z</time>
      </trkpt>
      <trkpt lat="50.56589" lon="4.04714">
        <ele>94.83</ele>
        <time>2013-05-05T08:27:14Z</time>
      </trkpt>
      <trkpt lat="50.56593" lon="4.04711">
        <ele>94.83</ele>
        <time>2013-05-05T08:27:15Z</time>
      </trkpt>
      <trkpt lat="50.56597" lon="4.04707">
        <ele>95.31</ele>
        <time>2013-05-05T08:27:16Z</time>
      </trkpt>
      <trkpt lat="50.566" lon="4.04702">
        <ele>94.83</ele>
        <time>2013-05-05T08:27:17Z</time>
      </trkpt>
      <trkpt lat="50.56615" lon="4.04681">
        <ele>95.31</ele>
        <time>2013-05-05T08:27:21Z</time>
      </trkpt>
      <trkpt lat="50.56619" lon="4.04678">
        <ele>94.83</ele>
        <time>2013-05-05T08:27:22Z</time>
      </trkpt>
      <trkpt lat="50.56623" lon="4.04676">
        <ele>95.31</ele>
        <time>2013-05-05T08:27:23Z</time>
      </trkpt>
      <trkpt lat="50.56628" lon="4.04676">
        <ele>94.83</ele>
        <time>2013-05-05T08:27:24Z</time>
      </trkpt>
      <trkpt lat="50.56632" lon="4.04678">
        <ele>95.31</ele>
        <time>2013-05-05T08:27:25Z</time>
      </trkpt>
      <trkpt lat="50.56636" lon="4.04681">
        <ele>95.31</ele>
        <time>2013-05-05T08:27:26Z</time>
      </trkpt>
      <trkpt lat="50.5664" lon="4.04684">
        <ele>94.83</ele>
        <time>2013-05-05T08:27:27Z</time>
      </trkpt>
      <trkpt lat="50.56643" lon="4.04688">
        <ele>95.31</ele>
        <time>2013-05-05T08:27:28Z</time>
      </trkpt>
      <trkpt lat="50.56646" lon="4.04693">
        <ele>94.35</ele>
        <time>2013-05-05T08:27:29Z</time>
      </trkpt>
      <trkpt lat="50.56648" lon="4.04698">
        <ele>94.83</ele>
        <time>2013-05-05T08:27:30Z</time>
      </trkpt>
      <trkpt lat="50.5665" lon="4.04703">
        <ele>94.83</ele>
        <time>2013-05-05T08:27:31Z</time>
      </trkpt>
      <trkpt lat="50.56659" lon="4.04725">
        <ele>94.35</ele>
        <time>2013-05-05T08:27:37Z</time>
      </trkpt>
      <trkpt lat="50.56659" lon="4.04728">
        <ele>94.83</ele>
        <time>2013-05-05T08:27:38Z</time>
      </trkpt>
      <trkpt lat="50.56658" lon="4.04737">
        <ele>94.83</ele>
        <time>2013-05-05T08:27:47Z</time>
      </trkpt>
      <trkpt lat="50.56659" lon="4.04735">
        <ele>94.83</ele>
        <time>2013-05-05T08:27:51Z</time>
      </trkpt>
      <trkpt lat="50.56659" lon="4.04731">
        <ele>94.83</ele>
        <time>2013-05-05T08:27:53Z</time>
      </trkpt>
      <trkpt lat="50.56659" lon="4.04728">
        <ele>94.83</ele>
        <time>2013-05-05T08:28:07Z</time>
      </trkpt>
      <trkpt lat="50.56663" lon="4.04729">
        <ele>95.31</ele>
        <time>2013-05-05T08:28:26Z</time>
      </trkpt>
      <trkpt lat="50.56658" lon="4.0472">
        <ele>95.31</ele>
        <time>2013-05-05T08:28:43Z</time>
      </trkpt>
      <trkpt lat="50.56663" lon="4.04719">
        <ele>94.83</ele>
        <time>2013-05-05T08:29:05Z</time>
      </trkpt>
      <trkpt lat="50.56663" lon="4.04726">
        <ele>94.83</ele>
        <time>2013-05-05T08:29:21Z</time>
      </trkpt>
      <trkpt lat="50.56663" lon="4.04728">
        <ele>94.83</ele>
        <time>2013-05-05T08:29:34Z</time>
      </trkpt>
      <trkpt lat="50.56658" lon="4.04717">
        <ele>95.31</ele>
        <time>2013-05-05T08:29:52Z</time>
      </trkpt>
      <trkpt lat="50.56664" lon="4.04723">
        <ele>95.31</ele>
        <time>2013-05-05T08:30:09Z</time>
      </trkpt>
      <trkpt lat="50.56665" lon="4.04721">
        <ele>94.83</ele>
        <time>2013-05-05T08:30:25Z</time>
      </trkpt>
      <trkpt lat="50.56661" lon="4.04713">
        <ele>95.31</ele>
        <time>2013-05-05T08:30:41Z</time>
      </trkpt>
      <trkpt lat="50.56663" lon="4.04707">
        <ele>95.79</ele>
        <time>2013-05-05T08:31:08Z</time>
      </trkpt>
      <trkpt lat="50.56659" lon="4.0471">
        <ele>95.79</ele>
        <time>2013-05-05T08:31:30Z</time>
      </trkpt>
      <trkpt lat="50.56664" lon="4.04722">
        <ele>95.79</ele>
        <time>2013-05-05T08:31:44Z</time>
      </trkpt>
      <trkpt lat="50.56662" lon="4.04719">
        <ele>95.79</ele>
        <time>2013-05-05T08:31:56Z</time>
      </trkpt>
      <trkpt lat="50.56661" lon="4.04726">
        <ele>95.79</ele>
        <time>2013-05-05T08:31:59Z</time>
      </trkpt>
      <trkpt lat="50.56658" lon="4.04733">
        <ele>95.79</ele>
        <time>2013-05-05T08:32:05Z</time>
      </trkpt>
      <trkpt lat="50.56658" lon="4.04724">
        <ele>95.31</ele>
        <time>2013-05-05T08:32:19Z</time>
      </trkpt>
      <trkpt lat="50.5665" lon="4.0471">
        <ele>95.79</ele>
        <time>2013-05-05T08:32:29Z</time>
      </trkpt>
      <trkpt lat="50.56625" lon="4.04684">
        <ele>95.79</ele>
        <time>2013-05-05T08:32:43Z</time>
      </trkpt>
      <trkpt lat="50.566" lon="4.0471">
        <ele>95.79</ele>
        <time>2013-05-05T08:32:53Z</time>
      </trkpt>
      <trkpt lat="50.56561" lon="4.04749">
        <ele>96.75</ele>
        <time>2013-05-05T08:33:06Z</time>
      </trkpt>
      <trkpt lat="50.56557" lon="4.04749">
        <ele>96.75</ele>
        <time>2013-05-05T08:33:07Z</time>
      </trkpt>
      <trkpt lat="50.56549" lon="4.04749">
        <ele>97.23</ele>
        <time>2013-05-05T08:33:09Z</time>
      </trkpt>
      <trkpt lat="50.56537" lon="4.04742">
        <ele>96.75</ele>
        <time>2013-05-05T08:33:12Z</time>
      </trkpt>
      <trkpt lat="50.56495" lon="4.04691">
        <ele>97.23</ele>
        <time>2013-05-05T08:33:24Z</time>
      </trkpt>
      <trkpt lat="50.56445" lon="4.04594">
        <ele>97.71</ele>
        <time>2013-05-05T08:33:42Z</time>
      </trkpt>
      <trkpt lat="50.56424" lon="4.04558">
        <ele>97.23</ele>
        <time>2013-05-05T08:33:49Z</time>
      </trkpt>
      <trkpt lat="50.56421" lon="4.04555">
        <ele>97.23</ele>
        <time>2013-05-05T08:33:50Z</time>
      </trkpt>
      <trkpt lat="50.56417" lon="4.04552">
        <ele>97.23</ele>
        <time>2013-05-05T08:33:51Z</time>
      </trkpt>
      <trkpt lat="50.56413" lon="4.0455">
        <ele>97.23</ele>
        <time>2013-05-05T08:33:52Z</time>
      </trkpt>
      <trkpt lat="50.56409" lon="4.04548">
        <ele>97.23</ele>
        <time>2013-05-05T08:33:53Z</time>
      </trkpt>
      <trkpt lat="50.56394" lon="4.04532">
        <ele>97.71</ele>
        <time>2013-05-05T08:33:57Z</time>
      </trkpt>
      <trkpt lat="50.56391" lon="4.04526">
        <ele>97.71</ele>
        <time>2013-05-05T08:33:58Z</time>
      </trkpt>
      <trkpt lat="50.56368" lon="4.04473">
        <ele>99.63</ele>
        <time>2013-05-05T08:34:10Z</time>
      </trkpt>
      <trkpt lat="50.56334" lon="4.04413">
        <ele>99.63</ele>
        <time>2013-05-05T08:34:23Z</time>
      </trkpt>
      <trkpt lat="50.56339" lon="4.04314">
        <ele>100.6</ele>
        <time>2013-05-05T08:34:38Z</time>
      </trkpt>
      <trkpt lat="50.56349" lon="4.04182">
        <ele>101.08</ele>
        <time>2013-05-05T08:34:57Z</time>
      </trkpt>
      <trkpt lat="50.56352" lon="4.04134">
        <ele>101.56</ele>
        <time>2013-05-05T08:35:04Z</time>
      </trkpt>
      <trkpt lat="50.56362" lon="4.04006">
        <ele>101.56</ele>
        <time>2013-05-05T08:35:23Z</time>
      </trkpt>
      <trkpt lat="50.56365" lon="4.03986">
        <ele>101.56</ele>
        <time>2013-05-05T08:35:26Z</time>
      </trkpt>
      <trkpt lat="50.56367" lon="4.03979">
        <ele>101.08</ele>
        <time>2013-05-05T08:35:27Z</time>
      </trkpt>
      <trkpt lat="50.56378" lon="4.03936">
        <ele>102.04</ele>
        <time>2013-05-05T08:35:34Z</time>
      </trkpt>
      <trkpt lat="50.5638" lon="4.03929">
        <ele>102.52</ele>
        <time>2013-05-05T08:35:35Z</time>
      </trkpt>
      <trkpt lat="50.56381" lon="4.03923">
        <ele>101.56</ele>
        <time>2013-05-05T08:35:36Z</time>
      </trkpt>
      <trkpt lat="50.56382" lon="4.03917">
        <ele>102.04</ele>
        <time>2013-05-05T08:35:37Z</time>
      </trkpt>
      <trkpt lat="50.56384" lon="4.0391">
        <ele>102.04</ele>
        <time>2013-05-05T08:35:38Z</time>
      </trkpt>
      <trkpt lat="50.56385" lon="4.03904">
        <ele>102.52</ele>
        <time>2013-05-05T08:35:39Z</time>
      </trkpt>
      <trkpt lat="50.56398" lon="4.0386">
        <ele>100.6</ele>
        <time>2013-05-05T08:35:45Z</time>
      </trkpt>
      <trkpt lat="50.56401" lon="4.03851">
        <ele>100.11</ele>
        <time>2013-05-05T08:35:46Z</time>
      </trkpt>
      <trkpt lat="50.56418" lon="4.03812">
        <ele>97.71</ele>
        <time>2013-05-05T08:35:50Z</time>
      </trkpt>
      <trkpt lat="50.5643" lon="4.03791">
        <ele>96.27</ele>
        <time>2013-05-05T08:35:52Z</time>
      </trkpt>
      <trkpt lat="50.56453" lon="4.03765">
        <ele>94.83</ele>
        <time>2013-05-05T08:35:55Z</time>
      </trkpt>
      <trkpt lat="50.56511" lon="4.03726">
        <ele>91.46</ele>
        <time>2013-05-05T08:36:02Z</time>
      </trkpt>
      <trkpt lat="50.56546" lon="4.03702">
        <ele>87.62</ele>
        <time>2013-05-05T08:36:06Z</time>
      </trkpt>
      <trkpt lat="50.56647" lon="4.03634">
        <ele>84.73</ele>
        <time>2013-05-05T08:36:18Z</time>
      </trkpt>
      <trkpt lat="50.56719" lon="4.03584">
        <ele>83.77</ele>
        <time>2013-05-05T08:36:30Z</time>
      </trkpt>
      <trkpt lat="50.5676" lon="4.03551">
        <ele>84.25</ele>
        <time>2013-05-05T08:36:38Z</time>
      </trkpt>
      <trkpt lat="50.56799" lon="4.03524">
        <ele>84.73</ele>
        <time>2013-05-05T08:36:46Z</time>
      </trkpt>
      <trkpt lat="50.56803" lon="4.03521">
        <ele>84.25</ele>
        <time>2013-05-05T08:36:47Z</time>
      </trkpt>
      <trkpt lat="50.56807" lon="4.03519">
        <ele>84.73</ele>
        <time>2013-05-05T08:36:48Z</time>
      </trkpt>
      <trkpt lat="50.56812" lon="4.03518">
        <ele>84.25</ele>
        <time>2013-05-05T08:36:49Z</time>
      </trkpt>
      <trkpt lat="50.56816" lon="4.03519">
        <ele>84.25</ele>
        <time>2013-05-05T08:36:50Z</time>
      </trkpt>
      <trkpt lat="50.56821" lon="4.03523">
        <ele>84.73</ele>
        <time>2013-05-05T08:36:51Z</time>
      </trkpt>
      <trkpt lat="50.56838" lon="4.03541">
        <ele>83.77</ele>
        <time>2013-05-05T08:36:56Z</time>
      </trkpt>
      <trkpt lat="50.56867" lon="4.03542">
        <ele>86.66</ele>
        <time>2013-05-05T08:37:07Z</time>
      </trkpt>
      <trkpt lat="50.5689" lon="4.0354">
        <ele>90.02</ele>
        <time>2013-05-05T08:37:17Z</time>
      </trkpt>
      <trkpt lat="50.56904" lon="4.03531">
        <ele>90.98</ele>
        <time>2013-05-05T08:37:24Z</time>
      </trkpt>
      <trkpt lat="50.56906" lon="4.03526">
        <ele>90.98</ele>
        <time>2013-05-05T08:37:26Z</time>
      </trkpt>
      <trkpt lat="50.56906" lon="4.03522">
        <ele>90.98</ele>
        <time>2013-05-05T08:37:27Z</time>
      </trkpt>
      <trkpt lat="50.56905" lon="4.03519">
        <ele>90.98</ele>
        <time>2013-05-05T08:37:28Z</time>
      </trkpt>
      <trkpt lat="50.56903" lon="4.03517">
        <ele>90.98</ele>
        <time>2013-05-05T08:37:29Z</time>
      </trkpt>
      <trkpt lat="50.56902" lon="4.03515">
        <ele>91.94</ele>
        <time>2013-05-05T08:37:30Z</time>
      </trkpt>
      <trkpt lat="50.569" lon="4.03512">
        <ele>91.94</ele>
        <time>2013-05-05T08:37:31Z</time>
      </trkpt>
      <trkpt lat="50.56899" lon="4.0351">
        <ele>92.42</ele>
        <time>2013-05-05T08:37:32Z</time>
      </trkpt>
      <trkpt lat="50.56898" lon="4.03508">
        <ele>92.42</ele>
        <time>2013-05-05T08:37:33Z</time>
      </trkpt>
      <trkpt lat="50.56896" lon="4.03506">
        <ele>92.9</ele>
        <time>2013-05-05T08:37:34Z</time>
      </trkpt>
      <trkpt lat="50.56894" lon="4.03505">
        <ele>92.9</ele>
        <time>2013-05-05T08:37:35Z</time>
      </trkpt>
      <trkpt lat="50.56893" lon="4.03503">
        <ele>92.9</ele>
        <time>2013-05-05T08:37:36Z</time>
      </trkpt>
      <trkpt lat="50.56872" lon="4.03478">
        <ele>96.27</ele>
        <time>2013-05-05T08:37:50Z</time>
      </trkpt>
      <trkpt lat="50.56857" lon="4.03458">
        <ele>99.15</ele>
        <time>2013-05-05T08:38:03Z</time>
      </trkpt>
      <trkpt lat="50.56829" lon="4.03425">
        <ele>101.56</ele>
        <time>2013-05-05T08:38:22Z</time>
      </trkpt>
      <trkpt lat="50.56791" lon="4.03366">
        <ele>101.56</ele>
        <time>2013-05-05T08:38:37Z</time>
      </trkpt>
      <trkpt lat="50.56765" lon="4.03329">
        <ele>101.56</ele>
        <time>2013-05-05T08:38:45Z</time>
      </trkpt>
      <trkpt lat="50.56761" lon="4.03323">
        <ele>101.08</ele>
        <time>2013-05-05T08:38:46Z</time>
      </trkpt>
      <trkpt lat="50.56745" lon="4.03299">
        <ele>101.56</ele>
        <time>2013-05-05T08:38:51Z</time>
      </trkpt>
      <trkpt lat="50.56731" lon="4.03284">
        <ele>101.56</ele>
        <time>2013-05-05T08:38:55Z</time>
      </trkpt>
      <trkpt lat="50.56728" lon="4.03281">
        <ele>101.56</ele>
        <time>2013-05-05T08:38:56Z</time>
      </trkpt>
      <trkpt lat="50.56725" lon="4.03278">
        <ele>101.08</ele>
        <time>2013-05-05T08:38:57Z</time>
      </trkpt>
      <trkpt lat="50.56723" lon="4.03273">
        <ele>101.08</ele>
        <time>2013-05-05T08:38:58Z</time>
      </trkpt>
      <trkpt lat="50.56722" lon="4.03269">
        <ele>101.08</ele>
        <time>2013-05-05T08:38:59Z</time>
      </trkpt>
      <trkpt lat="50.56722" lon="4.03264">
        <ele>100.6</ele>
        <time>2013-05-05T08:39:00Z</time>
      </trkpt>
      <trkpt lat="50.56725" lon="4.03256">
        <ele>100.6</ele>
        <time>2013-05-05T08:39:02Z</time>
      </trkpt>
      <trkpt lat="50.56728" lon="4.03252">
        <ele>100.6</ele>
        <time>2013-05-05T08:39:03Z</time>
      </trkpt>
      <trkpt lat="50.56802" lon="4.03174">
        <ele>99.15</ele>
        <time>2013-05-05T08:39:19Z</time>
      </trkpt>
      <trkpt lat="50.56823" lon="4.03152">
        <ele>98.67</ele>
        <time>2013-05-05T08:39:23Z</time>
      </trkpt>
      <trkpt lat="50.56917" lon="4.03105">
        <ele>97.71</ele>
        <time>2013-05-05T08:39:38Z</time>
      </trkpt>
      <trkpt lat="50.56992" lon="4.03107">
        <ele>97.23</ele>
        <time>2013-05-05T08:39:49Z</time>
      </trkpt>
      <trkpt lat="50.57011" lon="4.03116">
        <ele>96.27</ele>
        <time>2013-05-05T08:39:52Z</time>
      </trkpt>
      <trkpt lat="50.57028" lon="4.03107">
        <ele>95.31</ele>
        <time>2013-05-05T08:39:57Z</time>
      </trkpt>
      <trkpt lat="50.57028" lon="4.031">
        <ele>94.83</ele>
        <time>2013-05-05T08:39:58Z</time>
      </trkpt>
      <trkpt lat="50.57027" lon="4.03094">
        <ele>94.83</ele>
        <time>2013-05-05T08:39:59Z</time>
      </trkpt>
      <trkpt lat="50.57026" lon="4.03087">
        <ele>94.83</ele>
        <time>2013-05-05T08:40:00Z</time>
      </trkpt>
      <trkpt lat="50.57023" lon="4.0308">
        <ele>94.83</ele>
        <time>2013-05-05T08:40:01Z</time>
      </trkpt>
      <trkpt lat="50.57021" lon="4.03072">
        <ele>94.83</ele>
        <time>2013-05-05T08:40:02Z</time>
      </trkpt>
      <trkpt lat="50.56999" lon="4.03005">
        <ele>94.35</ele>
        <time>2013-05-05T08:40:09Z</time>
      </trkpt>
      <trkpt lat="50.56982" lon="4.02956">
        <ele>94.35</ele>
        <time>2013-05-05T08:40:14Z</time>
      </trkpt>
      <trkpt lat="50.56976" lon="4.02935">
        <ele>94.35</ele>
        <time>2013-05-05T08:40:16Z</time>
      </trkpt>
      <trkpt lat="50.56926" lon="4.02781">
        <ele>92.42</ele>
        <time>2013-05-05T08:40:32Z</time>
      </trkpt>
      <trkpt lat="50.56888" lon="4.02664">
        <ele>90.5</ele>
        <time>2013-05-05T08:40:44Z</time>
      </trkpt>
      <trkpt lat="50.56843" lon="4.02511">
        <ele>88.58</ele>
        <time>2013-05-05T08:40:59Z</time>
      </trkpt>
      <trkpt lat="50.56812" lon="4.02402">
        <ele>87.14</ele>
        <time>2013-05-05T08:41:09Z</time>
      </trkpt>
      <trkpt lat="50.56798" lon="4.02258">
        <ele>86.18</ele>
        <time>2013-05-05T08:41:22Z</time>
      </trkpt>
      <trkpt lat="50.56779" lon="4.02122">
        <ele>87.14</ele>
        <time>2013-05-05T08:41:37Z</time>
      </trkpt>
      <trkpt lat="50.56779" lon="4.02104">
        <ele>87.62</ele>
        <time>2013-05-05T08:41:39Z</time>
      </trkpt>
      <trkpt lat="50.56779" lon="4.02095">
        <ele>87.62</ele>
        <time>2013-05-05T08:41:40Z</time>
      </trkpt>
      <trkpt lat="50.5678" lon="4.02087">
        <ele>87.62</ele>
        <time>2013-05-05T08:41:41Z</time>
      </trkpt>
      <trkpt lat="50.56781" lon="4.02078">
        <ele>87.62</ele>
        <time>2013-05-05T08:41:42Z</time>
      </trkpt>
      <trkpt lat="50.56783" lon="4.02069">
        <ele>88.1</ele>
        <time>2013-05-05T08:41:43Z</time>
      </trkpt>
      <trkpt lat="50.5681" lon="4.01917">
        <ele>87.62</ele>
        <time>2013-05-05T08:42:01Z</time>
      </trkpt>
      <trkpt lat="50.56825" lon="4.01782">
        <ele>87.14</ele>
        <time>2013-05-05T08:42:16Z</time>
      </trkpt>
      <trkpt lat="50.56823" lon="4.01681">
        <ele>88.1</ele>
        <time>2013-05-05T08:42:29Z</time>
      </trkpt>
      <trkpt lat="50.56821" lon="4.01675">
        <ele>87.62</ele>
        <time>2013-05-05T08:42:30Z</time>
      </trkpt>
      <trkpt lat="50.56819" lon="4.0167">
        <ele>87.62</ele>
        <time>2013-05-05T08:42:31Z</time>
      </trkpt>
      <trkpt lat="50.56815" lon="4.01668">
        <ele>87.62</ele>
        <time>2013-05-05T08:42:32Z</time>
      </trkpt>
      <trkpt lat="50.5681" lon="4.01668">
        <ele>87.62</ele>
        <time>2013-05-05T08:42:33Z</time>
      </trkpt>
      <trkpt lat="50.56806" lon="4.01669">
        <ele>87.62</ele>
        <time>2013-05-05T08:42:34Z</time>
      </trkpt>
      <trkpt lat="50.56801" lon="4.01671">
        <ele>87.62</ele>
        <time>2013-05-05T08:42:35Z</time>
      </trkpt>
      <trkpt lat="50.56796" lon="4.01673">
        <ele>87.62</ele>
        <time>2013-05-05T08:42:36Z</time>
      </trkpt>
      <trkpt lat="50.56733" lon="4.01694">
        <ele>88.58</ele>
        <time>2013-05-05T08:42:49Z</time>
      </trkpt>
      <trkpt lat="50.56702" lon="4.01704">
        <ele>89.06</ele>
        <time>2013-05-05T08:42:55Z</time>
      </trkpt>
      <trkpt lat="50.56645" lon="4.0171">
        <ele>90.02</ele>
        <time>2013-05-05T08:43:06Z</time>
      </trkpt>
      <trkpt lat="50.5664" lon="4.01706">
        <ele>90.02</ele>
        <time>2013-05-05T08:43:07Z</time>
      </trkpt>
      <trkpt lat="50.56638" lon="4.017">
        <ele>89.54</ele>
        <time>2013-05-05T08:43:08Z</time>
      </trkpt>
      <trkpt lat="50.56637" lon="4.01693">
        <ele>89.06</ele>
        <time>2013-05-05T08:43:09Z</time>
      </trkpt>
      <trkpt lat="50.56622" lon="4.01644">
        <ele>87.62</ele>
        <time>2013-05-05T08:43:15Z</time>
      </trkpt>
      <trkpt lat="50.56604" lon="4.01583">
        <ele>86.66</ele>
        <time>2013-05-05T08:43:23Z</time>
      </trkpt>
      <trkpt lat="50.56599" lon="4.01572">
        <ele>86.18</ele>
        <time>2013-05-05T08:43:25Z</time>
      </trkpt>
      <trkpt lat="50.56583" lon="4.01534">
        <ele>85.69</ele>
        <time>2013-05-05T08:43:35Z</time>
      </trkpt>
      <trkpt lat="50.56562" lon="4.0147">
        <ele>85.21</ele>
        <time>2013-05-05T08:43:48Z</time>
      </trkpt>
      <trkpt lat="50.56561" lon="4.01434">
        <ele>85.21</ele>
        <time>2013-05-05T08:43:57Z</time>
      </trkpt>
      <trkpt lat="50.56581" lon="4.01378">
        <ele>84.73</ele>
        <time>2013-05-05T08:44:09Z</time>
      </trkpt>
      <trkpt lat="50.56597" lon="4.01308">
        <ele>84.73</ele>
        <time>2013-05-05T08:44:24Z</time>
      </trkpt>
      <trkpt lat="50.56596" lon="4.01289">
        <ele>84.25</ele>
        <time>2013-05-05T08:44:28Z</time>
      </trkpt>
      <trkpt lat="50.5659" lon="4.01219">
        <ele>84.25</ele>
        <time>2013-05-05T08:44:41Z</time>
      </trkpt>
      <trkpt lat="50.56581" lon="4.01136">
        <ele>84.25</ele>
        <time>2013-05-05T08:44:57Z</time>
      </trkpt>
      <trkpt lat="50.56586" lon="4.01067">
        <ele>83.29</ele>
        <time>2013-05-05T08:45:11Z</time>
      </trkpt>
      <trkpt lat="50.56587" lon="4.00962">
        <ele>84.73</ele>
        <time>2013-05-05T08:45:29Z</time>
      </trkpt>
      <trkpt lat="50.56584" lon="4.00937">
        <ele>83.77</ele>
        <time>2013-05-05T08:45:33Z</time>
      </trkpt>
      <trkpt lat="50.56561" lon="4.00851">
        <ele>83.29</ele>
        <time>2013-05-05T08:45:46Z</time>
      </trkpt>
      <trkpt lat="50.56558" lon="4.00845">
        <ele>82.81</ele>
        <time>2013-05-05T08:45:47Z</time>
      </trkpt>
      <trkpt lat="50.56555" lon="4.0084">
        <ele>83.29</ele>
        <time>2013-05-05T08:45:48Z</time>
      </trkpt>
      <trkpt lat="50.56551" lon="4.00835">
        <ele>82.81</ele>
        <time>2013-05-05T08:45:49Z</time>
      </trkpt>
      <trkpt lat="50.56546" lon="4.0083">
        <ele>82.81</ele>
        <time>2013-05-05T08:45:50Z</time>
      </trkpt>
      <trkpt lat="50.56542" lon="4.00826">
        <ele>82.81</ele>
        <time>2013-05-05T08:45:51Z</time>
      </trkpt>
      <trkpt lat="50.56537" lon="4.00823">
        <ele>82.33</ele>
        <time>2013-05-05T08:45:52Z</time>
      </trkpt>
      <trkpt lat="50.56531" lon="4.00821">
        <ele>82.81</ele>
        <time>2013-05-05T08:45:53Z</time>
      </trkpt>
      <trkpt lat="50.56526" lon="4.00821">
        <ele>82.81</ele>
        <time>2013-05-05T08:45:54Z</time>
      </trkpt>
      <trkpt lat="50.5652" lon="4.00821">
        <ele>82.81</ele>
        <time>2013-05-05T08:45:55Z</time>
      </trkpt>
      <trkpt lat="50.56435" lon="4.00806">
        <ele>83.29</ele>
        <time>2013-05-05T08:46:11Z</time>
      </trkpt>
      <trkpt lat="50.56398" lon="4.00795">
        <ele>83.77</ele>
        <time>2013-05-05T08:46:18Z</time>
      </trkpt>
      <trkpt lat="50.56393" lon="4.00793">
        <ele>84.25</ele>
        <time>2013-05-05T08:46:19Z</time>
      </trkpt>
      <trkpt lat="50.56336" lon="4.00752">
        <ele>84.73</ele>
        <time>2013-05-05T08:46:30Z</time>
      </trkpt>
      <trkpt lat="50.56332" lon="4.00748">
        <ele>84.73</ele>
        <time>2013-05-05T08:46:31Z</time>
      </trkpt>
      <trkpt lat="50.56265" lon="4.00677">
        <ele>85.21</ele>
        <time>2013-05-05T08:46:46Z</time>
      </trkpt>
      <trkpt lat="50.56256" lon="4.00668">
        <ele>85.69</ele>
        <time>2013-05-05T08:46:48Z</time>
      </trkpt>
      <trkpt lat="50.56178" lon="4.00577">
        <ele>87.14</ele>
        <time>2013-05-05T08:47:07Z</time>
      </trkpt>
      <trkpt lat="50.5612" lon="4.00485">
        <ele>88.58</ele>
        <time>2013-05-05T08:47:23Z</time>
      </trkpt>
      <trkpt lat="50.56084" lon="4.00409">
        <ele>88.1</ele>
        <time>2013-05-05T08:47:37Z</time>
      </trkpt>
      <trkpt lat="50.56077" lon="4.00391">
        <ele>88.58</ele>
        <time>2013-05-05T08:47:40Z</time>
      </trkpt>
      <trkpt lat="50.5603" lon="4.00279">
        <ele>89.06</ele>
        <time>2013-05-05T08:47:57Z</time>
      </trkpt>
      <trkpt lat="50.55987" lon="4.00179">
        <ele>89.54</ele>
        <time>2013-05-05T08:48:12Z</time>
      </trkpt>
      <trkpt lat="50.55936" lon="4.00077">
        <ele>90.98</ele>
        <time>2013-05-05T08:48:28Z</time>
      </trkpt>
      <trkpt lat="50.55933" lon="4.0007">
        <ele>90.5</ele>
        <time>2013-05-05T08:48:29Z</time>
      </trkpt>
      <trkpt lat="50.5593" lon="4.00063">
        <ele>90.5</ele>
        <time>2013-05-05T08:48:30Z</time>
      </trkpt>
      <trkpt lat="50.5592" lon="4.00025">
        <ele>90.98</ele>
        <time>2013-05-05T08:48:35Z</time>
      </trkpt>
      <trkpt lat="50.55919" lon="4.00017">
        <ele>90.98</ele>
        <time>2013-05-05T08:48:36Z</time>
      </trkpt>
      <trkpt lat="50.55917" lon="4.0001">
        <ele>90.5</ele>
        <time>2013-05-05T08:48:37Z</time>
      </trkpt>
      <trkpt lat="50.55915" lon="4.00002">
        <ele>90.98</ele>
        <time>2013-05-05T08:48:38Z</time>
      </trkpt>
      <trkpt lat="50.55913" lon="3.99995">
        <ele>90.98</ele>
        <time>2013-05-05T08:48:39Z</time>
      </trkpt>
      <trkpt lat="50.55911" lon="3.99987">
        <ele>90.98</ele>
        <time>2013-05-05T08:48:40Z</time>
      </trkpt>
      <trkpt lat="50.55896" lon="3.99921">
        <ele>91.46</ele>
        <time>2013-05-05T08:48:49Z</time>
      </trkpt>
      <trkpt lat="50.5588" lon="3.99863">
        <ele>90.98</ele>
        <time>2013-05-05T08:48:58Z</time>
      </trkpt>
      <trkpt lat="50.55865" lon="3.9974">
        <ele>91.46</ele>
        <time>2013-05-05T08:49:16Z</time>
      </trkpt>
      <trkpt lat="50.55847" lon="3.99612">
        <ele>92.42</ele>
        <time>2013-05-05T08:49:35Z</time>
      </trkpt>
      <trkpt lat="50.55822" lon="3.99502">
        <ele>93.39</ele>
        <time>2013-05-05T08:49:53Z</time>
      </trkpt>
      <trkpt lat="50.55788" lon="3.99398">
        <ele>94.83</ele>
        <time>2013-05-05T08:50:11Z</time>
      </trkpt>
      <trkpt lat="50.55746" lon="3.99259">
        <ele>96.75</ele>
        <time>2013-05-05T08:50:32Z</time>
      </trkpt>
      <trkpt lat="50.55711" lon="3.99141">
        <ele>98.19</ele>
        <time>2013-05-05T08:50:48Z</time>
      </trkpt>
      <trkpt lat="50.55705" lon="3.99119">
        <ele>97.23</ele>
        <time>2013-05-05T08:50:51Z</time>
      </trkpt>
      <trkpt lat="50.55703" lon="3.99112">
        <ele>97.71</ele>
        <time>2013-05-05T08:50:52Z</time>
      </trkpt>
      <trkpt lat="50.55685" lon="3.99047">
        <ele>98.67</ele>
        <time>2013-05-05T08:51:01Z</time>
      </trkpt>
      <trkpt lat="50.55664" lon="3.98983">
        <ele>98.67</ele>
        <time>2013-05-05T08:51:10Z</time>
      </trkpt>
      <trkpt lat="50.55649" lon="3.98955">
        <ele>99.15</ele>
        <time>2013-05-05T08:51:15Z</time>
      </trkpt>
      <trkpt lat="50.55587" lon="3.98851">
        <ele>99.15</ele>
        <time>2013-05-05T08:51:33Z</time>
      </trkpt>
      <trkpt lat="50.55529" lon="3.98741">
        <ele>100.11</ele>
        <time>2013-05-05T08:51:51Z</time>
      </trkpt>
      <trkpt lat="50.55518" lon="3.98723">
        <ele>99.63</ele>
        <time>2013-05-05T08:51:54Z</time>
      </trkpt>
      <trkpt lat="50.55513" lon="3.98718">
        <ele>100.11</ele>
        <time>2013-05-05T08:51:55Z</time>
      </trkpt>
      <trkpt lat="50.55509" lon="3.98714">
        <ele>100.11</ele>
        <time>2013-05-05T08:51:56Z</time>
      </trkpt>
      <trkpt lat="50.5542" lon="3.98642">
        <ele>100.11</ele>
        <time>2013-05-05T08:52:15Z</time>
      </trkpt>
      <trkpt lat="50.55324" lon="3.98565">
        <ele>99.15</ele>
        <time>2013-05-05T08:52:35Z</time>
      </trkpt>
      <trkpt lat="50.5532" lon="3.98561">
        <ele>99.15</ele>
        <time>2013-05-05T08:52:36Z</time>
      </trkpt>
      <trkpt lat="50.55316" lon="3.9856">
        <ele>98.19</ele>
        <time>2013-05-05T08:52:37Z</time>
      </trkpt>
      <trkpt lat="50.55312" lon="3.98563">
        <ele>98.19</ele>
        <time>2013-05-05T08:52:38Z</time>
      </trkpt>
      <trkpt lat="50.5531" lon="3.98568">
        <ele>98.19</ele>
        <time>2013-05-05T08:52:39Z</time>
      </trkpt>
      <trkpt lat="50.55308" lon="3.98575">
        <ele>98.19</ele>
        <time>2013-05-05T08:52:40Z</time>
      </trkpt>
      <trkpt lat="50.55306" lon="3.98583">
        <ele>98.19</ele>
        <time>2013-05-05T08:52:41Z</time>
      </trkpt>
      <trkpt lat="50.55278" lon="3.98714">
        <ele>98.67</ele>
        <time>2013-05-05T08:52:56Z</time>
      </trkpt>
      <trkpt lat="50.55245" lon="3.98844">
        <ele>98.19</ele>
        <time>2013-05-05T08:53:10Z</time>
      </trkpt>
      <trkpt lat="50.55195" lon="3.99002">
        <ele>96.75</ele>
        <time>2013-05-05T08:53:26Z</time>
      </trkpt>
      <trkpt lat="50.55174" lon="3.99139">
        <ele>94.83</ele>
        <time>2013-05-05T08:53:38Z</time>
      </trkpt>
      <trkpt lat="50.55186" lon="3.99311">
        <ele>93.87</ele>
        <time>2013-05-05T08:53:52Z</time>
      </trkpt>
      <trkpt lat="50.5523" lon="3.99502">
        <ele>93.39</ele>
        <time>2013-05-05T08:54:08Z</time>
      </trkpt>
      <trkpt lat="50.55254" lon="3.99638">
        <ele>91.94</ele>
        <time>2013-05-05T08:54:20Z</time>
      </trkpt>
      <trkpt lat="50.55261" lon="3.9967">
        <ele>91.94</ele>
        <time>2013-05-05T08:54:23Z</time>
      </trkpt>
      <trkpt lat="50.55263" lon="3.99693">
        <ele>90.98</ele>
        <time>2013-05-05T08:54:26Z</time>
      </trkpt>
      <trkpt lat="50.55261" lon="3.99697">
        <ele>90.5</ele>
        <time>2013-05-05T08:54:27Z</time>
      </trkpt>
      <trkpt lat="50.55257" lon="3.99699">
        <ele>90.98</ele>
        <time>2013-05-05T08:54:28Z</time>
      </trkpt>
      <trkpt lat="50.55254" lon="3.99698">
        <ele>90.5</ele>
        <time>2013-05-05T08:54:29Z</time>
      </trkpt>
      <trkpt lat="50.55249" lon="3.99694">
        <ele>90.98</ele>
        <time>2013-05-05T08:54:30Z</time>
      </trkpt>
      <trkpt lat="50.55245" lon="3.99689">
        <ele>90.5</ele>
        <time>2013-05-05T08:54:31Z</time>
      </trkpt>
      <trkpt lat="50.55223" lon="3.99662">
        <ele>91.46</ele>
        <time>2013-05-05T08:54:36Z</time>
      </trkpt>
      <trkpt lat="50.55123" lon="3.99577">
        <ele>93.87</ele>
        <time>2013-05-05T08:54:55Z</time>
      </trkpt>
      <trkpt lat="50.5505" lon="3.99511">
        <ele>94.35</ele>
        <time>2013-05-05T08:55:10Z</time>
      </trkpt>
      <trkpt lat="50.55034" lon="3.99498">
        <ele>93.87</ele>
        <time>2013-05-05T08:55:13Z</time>
      </trkpt>
      <trkpt lat="50.55028" lon="3.99495">
        <ele>94.35</ele>
        <time>2013-05-05T08:55:14Z</time>
      </trkpt>
      <trkpt lat="50.54944" lon="3.99441">
        <ele>95.31</ele>
        <time>2013-05-05T08:55:30Z</time>
      </trkpt>
      <trkpt lat="50.54922" lon="3.99414">
        <ele>95.79</ele>
        <time>2013-05-05T08:55:35Z</time>
      </trkpt>
      <trkpt lat="50.54919" lon="3.99407">
        <ele>95.31</ele>
        <time>2013-05-05T08:55:36Z</time>
      </trkpt>
      <trkpt lat="50.54859" lon="3.99311">
        <ele>96.27</ele>
        <time>2013-05-05T08:55:52Z</time>
      </trkpt>
      <trkpt lat="50.54842" lon="3.99286">
        <ele>96.27</ele>
        <time>2013-05-05T08:55:57Z</time>
      </trkpt>
      <trkpt lat="50.5481" lon="3.99222">
        <ele>96.27</ele>
        <time>2013-05-05T08:56:12Z</time>
      </trkpt>
      <trkpt lat="50.54782" lon="3.99167">
        <ele>96.75</ele>
        <time>2013-05-05T08:56:29Z</time>
      </trkpt>
      <trkpt lat="50.54757" lon="3.99107">
        <ele>97.71</ele>
        <time>2013-05-05T08:56:46Z</time>
      </trkpt>
      <trkpt lat="50.54744" lon="3.99046">
        <ele>98.19</ele>
        <time>2013-05-05T08:57:01Z</time>
      </trkpt>
      <trkpt lat="50.54722" lon="3.98988">
        <ele>98.67</ele>
        <time>2013-05-05T08:57:16Z</time>
      </trkpt>
      <trkpt lat="50.54677" lon="3.98928">
        <ele>100.11</ele>
        <time>2013-05-05T08:57:33Z</time>
      </trkpt>
      <trkpt lat="50.54623" lon="3.98885">
        <ele>100.6</ele>
        <time>2013-05-05T08:57:49Z</time>
      </trkpt>
      <trkpt lat="50.54565" lon="3.98833">
        <ele>101.56</ele>
        <time>2013-05-05T08:58:07Z</time>
      </trkpt>
      <trkpt lat="50.54548" lon="3.98813">
        <ele>102.04</ele>
        <time>2013-05-05T08:58:12Z</time>
      </trkpt>
      <trkpt lat="50.54532" lon="3.98793">
        <ele>102.04</ele>
        <time>2013-05-05T08:58:17Z</time>
      </trkpt>
      <trkpt lat="50.54486" lon="3.98758">
        <ele>102.04</ele>
        <time>2013-05-05T08:58:30Z</time>
      </trkpt>
      <trkpt lat="50.54479" lon="3.98762">
        <ele>102.04</ele>
        <time>2013-05-05T08:58:32Z</time>
      </trkpt>
      <trkpt lat="50.54478" lon="3.98767">
        <ele>101.56</ele>
        <time>2013-05-05T08:58:33Z</time>
      </trkpt>
      <trkpt lat="50.54479" lon="3.98773">
        <ele>101.56</ele>
        <time>2013-05-05T08:58:34Z</time>
      </trkpt>
      <trkpt lat="50.5448" lon="3.98779">
        <ele>102.04</ele>
        <time>2013-05-05T08:58:35Z</time>
      </trkpt>
      <trkpt lat="50.54497" lon="3.98906">
        <ele>101.08</ele>
        <time>2013-05-05T08:58:50Z</time>
      </trkpt>
      <trkpt lat="50.54503" lon="3.98937">
        <ele>100.6</ele>
        <time>2013-05-05T08:58:53Z</time>
      </trkpt>
      <trkpt lat="50.54544" lon="3.99083">
        <ele>97.71</ele>
        <time>2013-05-05T08:59:08Z</time>
      </trkpt>
      <trkpt lat="50.54544" lon="3.9909">
        <ele>97.71</ele>
        <time>2013-05-05T08:59:09Z</time>
      </trkpt>
      <trkpt lat="50.54543" lon="3.99097">
        <ele>97.23</ele>
        <time>2013-05-05T08:59:10Z</time>
      </trkpt>
      <trkpt lat="50.54542" lon="3.99102">
        <ele>97.23</ele>
        <time>2013-05-05T08:59:11Z</time>
      </trkpt>
      <trkpt lat="50.54538" lon="3.99105">
        <ele>97.23</ele>
        <time>2013-05-05T08:59:12Z</time>
      </trkpt>
      <trkpt lat="50.54535" lon="3.99106">
        <ele>97.71</ele>
        <time>2013-05-05T08:59:13Z</time>
      </trkpt>
      <trkpt lat="50.54531" lon="3.99108">
        <ele>97.71</ele>
        <time>2013-05-05T08:59:14Z</time>
      </trkpt>
      <trkpt lat="50.54526" lon="3.9911">
        <ele>97.71</ele>
        <time>2013-05-05T08:59:15Z</time>
      </trkpt>
      <trkpt lat="50.54521" lon="3.99112">
        <ele>97.71</ele>
        <time>2013-05-05T08:59:16Z</time>
      </trkpt>
      <trkpt lat="50.5445" lon="3.99167">
        <ele>99.63</ele>
        <time>2013-05-05T08:59:31Z</time>
      </trkpt>
      <trkpt lat="50.54397" lon="3.99181">
        <ele>99.63</ele>
        <time>2013-05-05T08:59:44Z</time>
      </trkpt>
      <trkpt lat="50.5432" lon="3.99189">
        <ele>100.6</ele>
        <time>2013-05-05T09:00:01Z</time>
      </trkpt>
      <trkpt lat="50.54299" lon="3.99195">
        <ele>101.08</ele>
        <time>2013-05-05T09:00:06Z</time>
      </trkpt>
      <trkpt lat="50.54229" lon="3.99229">
        <ele>102.52</ele>
        <time>2013-05-05T09:00:24Z</time>
      </trkpt>
      <trkpt lat="50.54176" lon="3.99255">
        <ele>103</ele>
        <time>2013-05-05T09:00:40Z</time>
      </trkpt>
      <trkpt lat="50.54121" lon="3.99282">
        <ele>104.44</ele>
        <time>2013-05-05T09:00:57Z</time>
      </trkpt>
      <trkpt lat="50.54067" lon="3.99296">
        <ele>104.44</ele>
        <time>2013-05-05T09:01:13Z</time>
      </trkpt>
      <trkpt lat="50.53992" lon="3.99301">
        <ele>104.44</ele>
        <time>2013-05-05T09:01:33Z</time>
      </trkpt>
      <trkpt lat="50.53988" lon="3.99301">
        <ele>104.44</ele>
        <time>2013-05-05T09:01:34Z</time>
      </trkpt>
      <trkpt lat="50.53984" lon="3.993">
        <ele>104.44</ele>
        <time>2013-05-05T09:01:35Z</time>
      </trkpt>
      <trkpt lat="50.5398" lon="3.99299">
        <ele>104.44</ele>
        <time>2013-05-05T09:01:36Z</time>
      </trkpt>
      <trkpt lat="50.53905" lon="3.99311">
        <ele>104.44</ele>
        <time>2013-05-05T09:01:53Z</time>
      </trkpt>
      <trkpt lat="50.53885" lon="3.99314">
        <ele>103.96</ele>
        <time>2013-05-05T09:01:58Z</time>
      </trkpt>
      <trkpt lat="50.53881" lon="3.99315">
        <ele>104.44</ele>
        <time>2013-05-05T09:01:59Z</time>
      </trkpt>
      <trkpt lat="50.53865" lon="3.99317">
        <ele>104.44</ele>
        <time>2013-05-05T09:02:03Z</time>
      </trkpt>
      <trkpt lat="50.5381" lon="3.99327">
        <ele>104.92</ele>
        <time>2013-05-05T09:02:17Z</time>
      </trkpt>
      <trkpt lat="50.5379" lon="3.99333">
        <ele>103.96</ele>
        <time>2013-05-05T09:02:23Z</time>
      </trkpt>
      <trkpt lat="50.53788" lon="3.99336">
        <ele>103.96</ele>
        <time>2013-05-05T09:02:24Z</time>
      </trkpt>
      <trkpt lat="50.53788" lon="3.99338">
        <ele>104.44</ele>
        <time>2013-05-05T09:02:25Z</time>
      </trkpt>
      <trkpt lat="50.5379" lon="3.9934">
        <ele>104.44</ele>
        <time>2013-05-05T09:02:26Z</time>
      </trkpt>
      <trkpt lat="50.53792" lon="3.99343">
        <ele>104.44</ele>
        <time>2013-05-05T09:02:27Z</time>
      </trkpt>
      <trkpt lat="50.53794" lon="3.99347">
        <ele>104.44</ele>
        <time>2013-05-05T09:02:28Z</time>
      </trkpt>
      <trkpt lat="50.53796" lon="3.99352">
        <ele>104.44</ele>
        <time>2013-05-05T09:02:29Z</time>
      </trkpt>
      <trkpt lat="50.538" lon="3.99363">
        <ele>104.44</ele>
        <time>2013-05-05T09:02:31Z</time>
      </trkpt>
      <trkpt lat="50.53802" lon="3.9937">
        <ele>104.92</ele>
        <time>2013-05-05T09:02:32Z</time>
      </trkpt>
      <trkpt lat="50.53804" lon="3.99377">
        <ele>104.44</ele>
        <time>2013-05-05T09:02:33Z</time>
      </trkpt>
      <trkpt lat="50.53805" lon="3.99384">
        <ele>103.96</ele>
        <time>2013-05-05T09:02:34Z</time>
      </trkpt>
      <trkpt lat="50.53805" lon="3.99391">
        <ele>104.92</ele>
        <time>2013-05-05T09:02:35Z</time>
      </trkpt>
      <trkpt lat="50.53804" lon="3.99503">
        <ele>104.92</ele>
        <time>2013-05-05T09:02:50Z</time>
      </trkpt>
      <trkpt lat="50.53804" lon="3.9951">
        <ele>104.92</ele>
        <time>2013-05-05T09:02:51Z</time>
      </trkpt>
      <trkpt lat="50.53803" lon="3.99538">
        <ele>104.92</ele>
        <time>2013-05-05T09:02:55Z</time>
      </trkpt>
      <trkpt lat="50.53802" lon="3.99545">
        <ele>104.92</ele>
        <time>2013-05-05T09:02:56Z</time>
      </trkpt>
      <trkpt lat="50.53803" lon="3.99551">
        <ele>103.96</ele>
        <time>2013-05-05T09:02:57Z</time>
      </trkpt>
      <trkpt lat="50.53803" lon="3.99565">
        <ele>103.96</ele>
        <time>2013-05-05T09:02:59Z</time>
      </trkpt>
      <trkpt lat="50.53807" lon="3.99595">
        <ele>103.96</ele>
        <time>2013-05-05T09:03:03Z</time>
      </trkpt>
      <trkpt lat="50.53809" lon="3.99602">
        <ele>103.96</ele>
        <time>2013-05-05T09:03:04Z</time>
      </trkpt>
      <trkpt lat="50.53811" lon="3.99609">
        <ele>104.44</ele>
        <time>2013-05-05T09:03:05Z</time>
      </trkpt>
      <trkpt lat="50.53813" lon="3.99617">
        <ele>103.96</ele>
        <time>2013-05-05T09:03:06Z</time>
      </trkpt>
      <trkpt lat="50.53814" lon="3.99626">
        <ele>103.96</ele>
        <time>2013-05-05T09:03:07Z</time>
      </trkpt>
      <trkpt lat="50.53816" lon="3.99634">
        <ele>103.96</ele>
        <time>2013-05-05T09:03:08Z</time>
      </trkpt>
      <trkpt lat="50.53818" lon="3.99643">
        <ele>103.96</ele>
        <time>2013-05-05T09:03:09Z</time>
      </trkpt>
      <trkpt lat="50.53849" lon="3.99778">
        <ele>103.96</ele>
        <time>2013-05-05T09:03:24Z</time>
      </trkpt>
      <trkpt lat="50.53853" lon="3.99796">
        <ele>103</ele>
        <time>2013-05-05T09:03:26Z</time>
      </trkpt>
      <trkpt lat="50.53857" lon="3.99804">
        <ele>103</ele>
        <time>2013-05-05T09:03:27Z</time>
      </trkpt>
      <trkpt lat="50.53861" lon="3.9981">
        <ele>103</ele>
        <time>2013-05-05T09:03:28Z</time>
      </trkpt>
      <trkpt lat="50.5393" lon="3.99913">
        <ele>102.04</ele>
        <time>2013-05-05T09:03:43Z</time>
      </trkpt>
      <trkpt lat="50.54017" lon="4.00042">
        <ele>101.08</ele>
        <time>2013-05-05T09:03:59Z</time>
      </trkpt>
      <trkpt lat="50.54126" lon="4.00197">
        <ele>99.63</ele>
        <time>2013-05-05T09:04:19Z</time>
      </trkpt>
      <trkpt lat="50.54211" lon="4.00307">
        <ele>99.15</ele>
        <time>2013-05-05T09:04:35Z</time>
      </trkpt>
      <trkpt lat="50.54308" lon="4.00391">
        <ele>99.15</ele>
        <time>2013-05-05T09:04:53Z</time>
      </trkpt>
      <trkpt lat="50.54396" lon="4.0046">
        <ele>99.15</ele>
        <time>2013-05-05T09:05:11Z</time>
      </trkpt>
      <trkpt lat="50.54472" lon="4.00541">
        <ele>99.63</ele>
        <time>2013-05-05T09:05:29Z</time>
      </trkpt>
      <trkpt lat="50.54516" lon="4.00586">
        <ele>100.6</ele>
        <time>2013-05-05T09:05:39Z</time>
      </trkpt>
      <trkpt lat="50.54521" lon="4.00589">
        <ele>100.6</ele>
        <time>2013-05-05T09:05:40Z</time>
      </trkpt>
      <trkpt lat="50.54526" lon="4.00591">
        <ele>100.11</ele>
        <time>2013-05-05T09:05:41Z</time>
      </trkpt>
      <trkpt lat="50.54612" lon="4.00616">
        <ele>101.56</ele>
        <time>2013-05-05T09:05:59Z</time>
      </trkpt>
      <trkpt lat="50.54689" lon="4.00626">
        <ele>100.6</ele>
        <time>2013-05-05T09:06:13Z</time>
      </trkpt>
      <trkpt lat="50.54729" lon="4.00646">
        <ele>100.11</ele>
        <time>2013-05-05T09:06:20Z</time>
      </trkpt>
      <trkpt lat="50.54788" lon="4.0072">
        <ele>99.15</ele>
        <time>2013-05-05T09:06:33Z</time>
      </trkpt>
      <trkpt lat="50.54794" lon="4.00733">
        <ele>98.67</ele>
        <time>2013-05-05T09:06:35Z</time>
      </trkpt>
      <trkpt lat="50.54795" lon="4.00739">
        <ele>98.19</ele>
        <time>2013-05-05T09:06:36Z</time>
      </trkpt>
      <trkpt lat="50.54794" lon="4.00744">
        <ele>97.71</ele>
        <time>2013-05-05T09:06:37Z</time>
      </trkpt>
      <trkpt lat="50.54791" lon="4.00748">
        <ele>97.71</ele>
        <time>2013-05-05T09:06:38Z</time>
      </trkpt>
      <trkpt lat="50.54787" lon="4.0075">
        <ele>98.19</ele>
        <time>2013-05-05T09:06:39Z</time>
      </trkpt>
      <trkpt lat="50.54782" lon="4.00751">
        <ele>98.67</ele>
        <time>2013-05-05T09:06:40Z</time>
      </trkpt>
      <trkpt lat="50.54778" lon="4.00751">
        <ele>98.67</ele>
        <time>2013-05-05T09:06:41Z</time>
      </trkpt>
      <trkpt lat="50.54772" lon="4.00751">
        <ele>98.19</ele>
        <time>2013-05-05T09:06:42Z</time>
      </trkpt>
      <trkpt lat="50.54727" lon="4.00759">
        <ele>101.08</ele>
        <time>2013-05-05T09:06:51Z</time>
      </trkpt>
      <trkpt lat="50.54704" lon="4.00769">
        <ele>101.08</ele>
        <time>2013-05-05T09:06:56Z</time>
      </trkpt>
      <trkpt lat="50.54625" lon="4.00816">
        <ele>102.04</ele>
        <time>2013-05-05T09:07:13Z</time>
      </trkpt>
      <trkpt lat="50.54514" lon="4.00873">
        <ele>100.6</ele>
        <time>2013-05-05T09:07:31Z</time>
      </trkpt>
      <trkpt lat="50.54421" lon="4.00927">
        <ele>98.19</ele>
        <time>2013-05-05T09:07:45Z</time>
      </trkpt>
      <trkpt lat="50.54339" lon="4.0098">
        <ele>97.71</ele>
        <time>2013-05-05T09:07:58Z</time>
      </trkpt>
      <trkpt lat="50.54325" lon="4.00992">
        <ele>97.23</ele>
        <time>2013-05-05T09:08:02Z</time>
      </trkpt>
      <trkpt lat="50.54325" lon="4.00996">
        <ele>97.23</ele>
        <time>2013-05-05T09:08:03Z</time>
      </trkpt>
      <trkpt lat="50.54326" lon="4.01">
        <ele>97.23</ele>
        <time>2013-05-05T09:08:04Z</time>
      </trkpt>
      <trkpt lat="50.54328" lon="4.01003">
        <ele>97.23</ele>
        <time>2013-05-05T09:08:05Z</time>
      </trkpt>
      <trkpt lat="50.5433" lon="4.01007">
        <ele>96.75</ele>
        <time>2013-05-05T09:08:06Z</time>
      </trkpt>
      <trkpt lat="50.54332" lon="4.0101">
        <ele>96.27</ele>
        <time>2013-05-05T09:08:07Z</time>
      </trkpt>
      <trkpt lat="50.54334" lon="4.01013">
        <ele>95.31</ele>
        <time>2013-05-05T09:08:09Z</time>
      </trkpt>
      <trkpt lat="50.54333" lon="4.01015">
        <ele>95.31</ele>
        <time>2013-05-05T09:08:10Z</time>
      </trkpt>
      <trkpt lat="50.5433" lon="4.01008">
        <ele>94.83</ele>
        <time>2013-05-05T09:08:13Z</time>
      </trkpt>
      <trkpt lat="50.54324" lon="4.00998">
        <ele>93.87</ele>
        <time>2013-05-05T09:08:16Z</time>
      </trkpt>
      <trkpt lat="50.54313" lon="4.00991">
        <ele>94.35</ele>
        <time>2013-05-05T09:08:22Z</time>
      </trkpt>
      <trkpt lat="50.54325" lon="4.01027">
        <ele>95.79</ele>
        <time>2013-05-05T09:08:27Z</time>
      </trkpt>
      <trkpt lat="50.54313" lon="4.0102">
        <ele>96.75</ele>
        <time>2013-05-05T09:08:34Z</time>
      </trkpt>
      <trkpt lat="50.54309" lon="4.01017">
        <ele>97.23</ele>
        <time>2013-05-05T09:08:36Z</time>
      </trkpt>
      <trkpt lat="50.54305" lon="4.0102">
        <ele>97.71</ele>
        <time>2013-05-05T09:08:41Z</time>
      </trkpt>
      <trkpt lat="50.54283" lon="4.00993">
        <ele>97.71</ele>
        <time>2013-05-05T09:08:53Z</time>
      </trkpt>
      <trkpt lat="50.54274" lon="4.00996">
        <ele>97.23</ele>
        <time>2013-05-05T09:08:58Z</time>
      </trkpt>
      <trkpt lat="50.54271" lon="4.00993">
        <ele>96.75</ele>
        <time>2013-05-05T09:09:01Z</time>
      </trkpt>
      <trkpt lat="50.54272" lon="4.00985">
        <ele>97.23</ele>
        <time>2013-05-05T09:09:11Z</time>
      </trkpt>
      <trkpt lat="50.54272" lon="4.00986">
        <ele>96.75</ele>
        <time>2013-05-05T09:09:19Z</time>
      </trkpt>
      <trkpt lat="50.54272" lon="4.00987">
        <ele>99.63</ele>
        <time>2013-05-05T09:09:23Z</time>
      </trkpt>
      <trkpt lat="50.5427" lon="4.00986">
        <ele>96.75</ele>
        <time>2013-05-05T09:09:26Z</time>
      </trkpt>
      <trkpt lat="50.54271" lon="4.00995">
        <ele>96.75</ele>
        <time>2013-05-05T09:09:45Z</time>
      </trkpt>
      <trkpt lat="50.54269" lon="4.00985">
        <ele>97.23</ele>
        <time>2013-05-05T09:10:01Z</time>
      </trkpt>
      <trkpt lat="50.5427" lon="4.00983">
        <ele>97.23</ele>
        <time>2013-05-05T09:10:14Z</time>
      </trkpt>
      <trkpt lat="50.54269" lon="4.00987">
        <ele>97.23</ele>
        <time>2013-05-05T09:10:37Z</time>
      </trkpt>
      <trkpt lat="50.54274" lon="4.00994">
        <ele>97.71</ele>
        <time>2013-05-05T09:10:51Z</time>
      </trkpt>
      <trkpt lat="50.54276" lon="4.00996">
        <ele>97.23</ele>
        <time>2013-05-05T09:10:53Z</time>
      </trkpt>
      <trkpt lat="50.54268" lon="4.01004">
        <ele>97.71</ele>
        <time>2013-05-05T09:11:10Z</time>
      </trkpt>
      <trkpt lat="50.54258" lon="4.01013">
        <ele>97.71</ele>
        <time>2013-05-05T09:11:26Z</time>
      </trkpt>
      <trkpt lat="50.54251" lon="4.01022">
        <ele>97.71</ele>
        <time>2013-05-05T09:11:42Z</time>
      </trkpt>
      <trkpt lat="50.54246" lon="4.01018">
        <ele>97.71</ele>
        <time>2013-05-05T09:11:59Z</time>
      </trkpt>
      <trkpt lat="50.54251" lon="4.01024">
        <ele>98.19</ele>
        <time>2013-05-05T09:12:18Z</time>
      </trkpt>
    </trkseg>
  </trk>
</gpx>